GEFSSGP_prec_meanprecacc_168.txt.gz
Total_Precipitation_Accumulation
2.07 2.22 2.86 3.46 3.64 2.73 1.93 1.49 1.20 1.05 0.87 0.64 0.50 0.49 0.72 1.13 1.50 1.57 1.47 1.31 0.82 0.69 0.70 0.94 1.17 1.12 1.03 0.97 0.93 0.94 0.93 0.89 0.88 0.80 0.67 0.61 0.53 0.48 0.44 0.38 0.34 0.34 0.35 0.41 0.43 0.46 0.43 0.43 0.48
1.84 2.41 3.32 3.85 3.03 2.11 1.78 1.35 1.17 0.93 0.69 0.52 0.44 0.34 0.46 0.41 0.46 0.85 1.63 1.60 0.84 0.66 0.69 0.92 1.22 1.19 1.11 1.06 1.06 1.06 0.96 0.89 0.89 0.81 0.73 0.65 0.60 0.54 0.55 0.55 0.42 0.39 0.41 0.44 0.41 0.40 0.42 0.48 0.55
2.12 2.86 3.75 3.64 2.43 1.87 1.80 1.28 0.94 0.64 0.45 0.47 0.47 0.37 0.46 0.57 0.73 1.17 1.55 1.14 0.78 0.68 0.69 1.00 1.29 1.20 1.11 1.13 1.22 1.20 1.10 0.98 0.89 0.84 0.80 0.74 0.68 0.67 0.72 0.64 0.55 0.53 0.53 0.54 0.55 0.51 0.51 0.58 0.63
2.31 3.22 3.41 2.74 2.09 1.63 1.36 1.11 0.81 0.64 0.43 0.28 0.33 0.45 0.41 0.60 0.81 1.06 1.01 0.72 0.56 0.56 0.59 0.92 1.32 1.22 1.12 1.13 1.26 1.19 1.07 1.05 0.96 0.92 0.89 0.86 0.82 0.82 0.82 0.74 0.71 0.65 0.63 0.63 0.64 0.62 0.62 0.65 0.66
2.46 3.14 3.03 2.62 1.93 1.66 1.21 0.96 0.80 0.73 0.54 0.35 0.30 0.52 0.56 0.83 0.89 0.90 0.84 0.69 0.57 0.56 0.56 0.79 1.19 1.18 1.06 1.06 1.14 1.11 1.06 1.09 0.98 0.92 0.93 0.92 0.91 0.92 0.98 0.92 0.82 0.80 0.77 0.76 0.74 0.69 0.62 0.63 0.68
2.83 2.83 2.85 2.72 2.13 1.84 1.44 1.07 0.77 0.70 0.57 0.42 0.35 0.55 0.72 1.00 0.98 0.95 0.86 0.84 0.77 0.69 0.57 0.66 0.99 1.04 0.99 1.02 1.07 1.08 1.03 0.98 0.87 0.88 0.92 0.93 0.92 0.98 1.02 1.00 0.92 0.88 0.86 0.87 0.86 0.82 0.72 0.70 0.71
2.62 2.53 2.26 1.93 2.04 2.16 1.54 0.96 0.87 0.84 0.75 0.66 0.42 0.63 0.85 1.04 0.90 0.76 0.82 0.99 1.11 1.03 0.86 0.76 0.78 0.81 0.87 0.97 1.00 1.14 1.16 0.98 0.85 0.83 0.82 0.81 0.82 0.85 0.92 0.94 0.89 0.85 0.89 0.88 0.88 0.87 0.83 0.82 0.79
2.20 2.18 1.94 1.87 2.11 2.24 1.35 0.84 0.68 0.67 0.66 0.44 0.35 0.55 0.71 0.81 0.80 0.78 0.86 1.00 1.02 1.01 0.97 0.91 0.90 0.86 0.84 0.86 1.02 1.29 1.40 1.22 0.97 0.86 0.81 0.81 0.75 0.74 0.81 0.79 0.81 0.85 0.93 0.96 0.98 0.96 0.89 0.94 0.94
1.93 2.17 2.16 2.10 2.06 1.79 1.09 0.78 0.57 0.39 0.39 0.35 0.27 0.41 0.55 0.54 0.63 0.76 0.89 0.98 0.96 0.91 0.91 0.87 0.88 0.92 1.03 1.03 1.09 1.35 1.51 1.47 1.11 0.91 0.89 0.79 0.62 0.74 0.78 0.66 0.83 0.93 1.03 1.04 1.07 1.03 0.97 1.01 0.99
1.98 2.12 1.98 1.63 1.45 1.17 0.90 0.73 0.56 0.52 0.52 0.45 0.34 0.43 0.53 0.55 0.58 0.65 0.71 0.73 0.75 0.75 0.74 0.74 0.76 0.75 0.81 0.87 1.19 1.40 1.32 1.39 1.11 1.06 0.98 0.88 0.90 0.93 0.79 0.70 0.84 1.00 1.11 1.09 1.08 1.10 1.05 0.94 0.78
1.70 1.77 1.45 1.27 1.09 0.88 0.78 0.70 0.52 0.59 0.61 0.45 0.37 0.42 0.49 0.54 0.59 0.58 0.56 0.56 0.57 0.59 0.52 0.48 0.53 0.53 0.58 0.68 0.85 1.14 1.40 1.44 1.41 1.34 1.25 1.17 1.07 0.89 0.78 0.76 0.77 0.87 0.97 0.94 1.02 1.01 0.88 0.81 0.77
1.49 1.40 1.22 1.10 0.82 0.86 0.82 0.64 0.54 0.48 0.44 0.32 0.33 0.36 0.41 0.53 0.61 0.57 0.53 0.51 0.53 0.58 0.58 0.48 0.42 0.46 0.46 0.50 0.64 0.89 1.11 1.26 1.28 1.19 1.10 1.28 1.21 0.97 0.87 0.93 0.94 0.91 0.96 1.09 1.13 1.06 0.96 0.87 0.79
1.37 1.42 1.14 0.92 0.82 0.86 0.77 0.64 0.54 0.49 0.37 0.29 0.30 0.40 0.50 0.61 0.65 0.59 0.52 0.51 0.54 0.57 0.62 0.56 0.43 0.37 0.42 0.45 0.51 0.60 0.84 1.00 1.00 1.13 1.09 1.13 1.11 0.98 0.90 0.90 1.04 0.99 1.00 1.13 1.23 1.09 0.99 1.00 0.97
1.20 1.16 1.09 0.93 0.86 0.87 0.85 0.65 0.54 0.56 0.43 0.39 0.43 0.51 0.55 0.63 0.62 0.58 0.53 0.51 0.50 0.51 0.53 0.54 0.49 0.47 0.46 0.44 0.44 0.49 0.54 0.71 0.74 0.75 0.74 0.94 1.04 1.02 1.04 0.93 1.02 1.16 1.18 1.16 1.15 1.13 1.03 0.99 1.03
0.99 1.04 1.15 1.05 1.00 0.97 0.85 0.84 0.62 0.53 0.47 0.42 0.45 0.48 0.54 0.59 0.58 0.56 0.50 0.44 0.43 0.44 0.44 0.48 0.54 0.59 0.57 0.57 0.57 0.54 0.55 0.58 0.65 0.72 0.73 0.86 0.96 1.03 1.05 0.92 0.96 1.10 1.28 1.25 1.19 1.13 1.09 0.95 0.90
1.11 1.34 1.53 1.26 1.09 1.06 0.96 0.97 0.67 0.60 0.54 0.44 0.40 0.39 0.41 0.42 0.44 0.47 0.43 0.37 0.36 0.34 0.33 0.39 0.45 0.52 0.58 0.62 0.66 0.62 0.66 0.67 0.65 0.70 0.68 0.73 0.88 1.04 1.12 1.04 0.99 1.14 1.31 1.47 1.51 1.33 1.24 1.11 1.04
1.37 1.45 1.35 1.26 1.02 1.02 0.93 0.86 0.72 0.57 0.50 0.41 0.36 0.37 0.37 0.34 0.33 0.35 0.33 0.30 0.29 0.28 0.26 0.29 0.34 0.41 0.48 0.57 0.65 0.67 0.69 0.83 0.91 0.79 0.65 0.72 0.86 0.96 1.17 1.25 1.20 1.23 1.38 1.44 1.45 1.45 1.32 1.29 1.24
1.09 1.10 1.06 1.11 0.93 0.82 0.75 0.67 0.68 0.51 0.35 0.32 0.30 0.30 0.32 0.31 0.27 0.27 0.26 0.23 0.24 0.24 0.23 0.25 0.31 0.33 0.36 0.47 0.64 0.73 0.70 0.80 1.01 1.05 1.02 1.05 1.12 1.18 1.34 1.43 1.42 1.42 1.47 1.45 1.57 1.74 1.53 1.36 1.37
0.85 0.85 0.84 0.75 0.65 0.67 0.61 0.57 0.60 0.51 0.38 0.30 0.25 0.25 0.25 0.25 0.24 0.22 0.19 0.18 0.19 0.18 0.19 0.24 0.29 0.32 0.34 0.42 0.53 0.62 0.72 0.90 1.11 1.17 1.22 1.36 1.38 1.40 1.55 1.65 1.68 1.61 1.52 1.57 1.75 2.09 1.98 1.62 1.45
0.78 0.73 0.76 0.66 0.56 0.55 0.56 0.56 0.55 0.46 0.37 0.27 0.24 0.20 0.18 0.20 0.19 0.15 0.14 0.14 0.13 0.11 0.12 0.18 0.27 0.36 0.42 0.48 0.62 0.77 1.00 1.11 1.26 1.41 1.39 1.42 1.47 1.50 1.58 1.79 1.90 1.84 1.81 1.91 1.93 2.14 2.28 2.02 1.81
0.76 0.67 0.60 0.59 0.56 0.54 0.52 0.62 0.58 0.49 0.36 0.27 0.24 0.20 0.17 0.19 0.17 0.12 0.11 0.11 0.11 0.09 0.11 0.18 0.32 0.51 0.72 0.82 1.05 1.33 1.58 1.66 1.59 1.58 1.62 1.61 1.64 1.70 1.68 1.80 2.00 1.96 1.91 1.95 2.13 2.38 2.64 2.57 2.33
0.73 0.51 0.43 0.49 0.55 0.61 0.47 0.61 0.52 0.46 0.43 0.32 0.27 0.24 0.20 0.22 0.23 0.17 0.15 0.13 0.12 0.13 0.23 0.38 0.62 0.92 1.17 1.32 1.52 1.72 1.83 1.87 1.80 1.82 1.80 1.78 1.70 1.63 1.63 1.75 1.95 2.09 2.16 2.21 2.27 2.28 2.58 2.78 2.62
0.59 0.47 0.43 0.47 0.51 0.50 0.40 0.45 0.41 0.39 0.46 0.41 0.37 0.34 0.33 0.32 0.27 0.27 0.28 0.27 0.32 0.42 0.61 0.89 1.15 1.39 1.53 1.58 1.68 1.88 2.04 2.19 2.20 2.09 1.94 1.82 1.79 1.72 1.63 1.68 1.76 1.80 1.87 1.99 2.12 2.20 2.40 2.53 2.67
0.47 0.51 0.53 0.51 0.53 0.57 0.39 0.34 0.40 0.37 0.41 0.44 0.46 0.40 0.37 0.34 0.34 0.42 0.53 0.63 0.76 0.86 1.03 1.24 1.39 1.53 1.52 1.52 1.58 1.71 1.90 2.06 2.08 2.10 2.07 1.93 1.79 1.69 1.59 1.55 1.65 1.68 1.68 1.79 1.91 2.01 2.23 2.39 2.52
0.50 0.60 0.73 0.71 0.66 0.56 0.33 0.39 0.40 0.31 0.32 0.38 0.42 0.41 0.39 0.37 0.45 0.62 0.78 0.92 1.02 1.13 1.23 1.26 1.25 1.29 1.30 1.32 1.36 1.44 1.50 1.54 1.60 1.70 1.63 1.50 1.37 1.31 1.31 1.24 1.31 1.44 1.49 1.66 1.74 1.68 1.73 1.89 2.10
0.45 0.45 0.61 0.68 0.58 0.48 0.37 0.51 0.46 0.34 0.30 0.30 0.33 0.39 0.48 0.60 0.71 0.82 0.92 1.01 1.05 1.18 1.23 1.18 1.15 1.13 1.06 1.00 1.06 1.07 1.12 1.17 1.20 1.22 1.18 1.09 1.04 1.01 0.97 0.97 0.98 1.05 1.13 1.34 1.56 1.54 1.55 1.61 1.70
0.38 0.36 0.38 0.51 0.46 0.46 0.43 0.54 0.49 0.33 0.27 0.27 0.29 0.37 0.51 0.72 0.97 1.13 1.12 1.02 0.93 0.97 1.05 1.03 0.98 0.93 0.85 0.79 0.82 0.85 0.92 0.95 0.93 0.91 0.86 0.84 0.78 0.79 0.76 0.78 0.86 0.92 0.92 1.02 1.15 1.33 1.41 1.47 1.55
0.29 0.31 0.39 0.56 0.60 0.59 0.51 0.58 0.50 0.36 0.32 0.29 0.34 0.43 0.61 0.82 1.03 1.30 1.43 1.30 1.02 0.83 0.85 0.82 0.78 0.81 0.80 0.76 0.77 0.77 0.70 0.65 0.66 0.69 0.63 0.62 0.67 0.71 0.70 0.67 0.68 0.74 0.77 0.87 0.98 1.04 1.14 1.21 1.37
0.29 0.32 0.39 0.51 0.50 0.65 0.84 0.85 0.65 0.54 0.49 0.47 0.51 0.56 0.62 0.90 1.19 1.34 1.39 1.25 1.07 0.79 0.72 0.71 0.67 0.71 0.77 0.71 0.72 0.72 0.61 0.49 0.47 0.47 0.45 0.45 0.49 0.55 0.56 0.59 0.65 0.65 0.67 0.69 0.70 0.75 0.81 0.88 0.99
0.28 0.34 0.45 0.64 0.64 0.59 0.73 0.80 0.56 0.59 0.67 0.60 0.64 0.73 0.74 0.79 0.84 0.87 0.98 1.00 0.93 0.79 0.72 0.78 0.82 0.81 0.73 0.66 0.62 0.58 0.51 0.44 0.43 0.41 0.38 0.40 0.45 0.47 0.49 0.54 0.58 0.58 0.64 0.66 0.66 0.66 0.68 0.77 0.85

GEFSSGP_prec_meanprecacc_174.txt.gz
Total_Precipitation_Accumulation
2.07 2.24 2.93 3.59 3.87 2.90 2.07 1.60 1.30 1.14 0.92 0.69 0.53 0.52 0.77 1.22 1.58 1.62 1.52 1.37 0.85 0.70 0.71 0.96 1.19 1.14 1.05 0.99 0.95 0.96 0.95 0.90 0.89 0.81 0.68 0.62 0.54 0.48 0.45 0.39 0.35 0.35 0.37 0.44 0.46 0.49 0.46 0.46 0.50
1.85 2.44 3.42 4.05 3.22 2.22 1.90 1.46 1.24 0.99 0.74 0.56 0.46 0.38 0.49 0.43 0.48 0.87 1.67 1.63 0.85 0.66 0.70 0.93 1.24 1.21 1.13 1.08 1.08 1.07 0.97 0.90 0.90 0.82 0.74 0.67 0.62 0.55 0.56 0.55 0.43 0.41 0.43 0.45 0.42 0.41 0.44 0.51 0.57
2.13 2.89 3.88 3.82 2.56 1.95 1.88 1.37 0.98 0.67 0.48 0.49 0.49 0.40 0.48 0.60 0.76 1.20 1.57 1.15 0.79 0.68 0.69 1.02 1.32 1.23 1.13 1.15 1.24 1.21 1.11 0.98 0.90 0.84 0.81 0.75 0.69 0.68 0.73 0.64 0.57 0.55 0.54 0.55 0.56 0.52 0.52 0.61 0.65
2.32 3.27 3.54 2.87 2.19 1.69 1.40 1.15 0.82 0.65 0.45 0.30 0.35 0.47 0.43 0.64 0.84 1.09 1.05 0.74 0.57 0.57 0.60 0.94 1.33 1.23 1.13 1.14 1.27 1.19 1.07 1.05 0.97 0.94 0.90 0.87 0.82 0.83 0.83 0.76 0.72 0.67 0.64 0.64 0.65 0.64 0.63 0.67 0.68
2.48 3.20 3.13 2.71 2.03 1.74 1.26 1.00 0.82 0.73 0.56 0.38 0.32 0.54 0.58 0.87 0.91 0.92 0.87 0.71 0.58 0.57 0.57 0.79 1.19 1.18 1.07 1.07 1.15 1.12 1.07 1.10 0.99 0.93 0.93 0.93 0.92 0.93 0.99 0.93 0.84 0.81 0.78 0.76 0.75 0.70 0.63 0.64 0.71
2.86 2.91 2.92 2.78 2.23 1.94 1.49 1.10 0.79 0.72 0.59 0.44 0.38 0.58 0.77 1.08 1.03 0.99 0.89 0.85 0.78 0.69 0.57 0.66 1.00 1.04 0.99 1.03 1.08 1.08 1.04 0.99 0.87 0.88 0.93 0.94 0.93 0.99 1.03 1.01 0.93 0.91 0.87 0.88 0.87 0.83 0.74 0.72 0.74
2.65 2.59 2.31 1.98 2.11 2.24 1.59 0.99 0.90 0.86 0.77 0.69 0.45 0.66 0.91 1.13 0.98 0.81 0.88 1.02 1.12 1.03 0.86 0.77 0.79 0.81 0.88 0.98 1.01 1.15 1.17 0.99 0.85 0.83 0.82 0.81 0.82 0.86 0.92 0.95 0.90 0.87 0.90 0.90 0.90 0.89 0.85 0.85 0.82
2.21 2.23 1.99 1.93 2.16 2.30 1.38 0.88 0.72 0.69 0.69 0.46 0.37 0.57 0.75 0.87 0.87 0.83 0.90 1.05 1.05 1.02 0.98 0.91 0.91 0.86 0.85 0.87 1.04 1.31 1.41 1.23 0.97 0.86 0.81 0.81 0.76 0.75 0.82 0.80 0.83 0.89 0.96 0.98 1.00 0.98 0.91 0.97 0.97
1.95 2.21 2.19 2.16 2.11 1.83 1.11 0.81 0.60 0.42 0.42 0.38 0.28 0.42 0.56 0.57 0.67 0.81 0.95 1.03 0.98 0.92 0.92 0.87 0.89 0.92 1.03 1.03 1.10 1.36 1.51 1.48 1.11 0.91 0.89 0.79 0.62 0.74 0.79 0.67 0.85 0.97 1.07 1.08 1.10 1.05 0.99 1.04 1.03
2.00 2.14 2.02 1.67 1.47 1.19 0.91 0.75 0.58 0.57 0.60 0.49 0.37 0.44 0.55 0.59 0.62 0.71 0.79 0.77 0.78 0.78 0.76 0.75 0.76 0.75 0.81 0.87 1.19 1.41 1.32 1.39 1.11 1.06 0.98 0.88 0.90 0.93 0.80 0.71 0.86 1.03 1.14 1.11 1.12 1.13 1.08 0.96 0.81
1.72 1.79 1.47 1.28 1.10 0.89 0.79 0.72 0.55 0.64 0.71 0.50 0.39 0.44 0.54 0.59 0.65 0.64 0.65 0.62 0.61 0.62 0.53 0.48 0.53 0.53 0.58 0.68 0.85 1.14 1.40 1.44 1.41 1.34 1.25 1.17 1.07 0.89 0.79 0.77 0.78 0.88 0.98 0.95 1.03 1.03 0.90 0.84 0.78
1.51 1.41 1.23 1.11 0.83 0.86 0.83 0.66 0.56 0.54 0.52 0.34 0.34 0.39 0.44 0.56 0.66 0.62 0.59 0.56 0.55 0.59 0.58 0.48 0.42 0.46 0.46 0.50 0.64 0.89 1.11 1.26 1.28 1.19 1.10 1.28 1.21 0.97 0.87 0.94 0.94 0.93 0.97 1.11 1.16 1.09 0.99 0.89 0.81
1.38 1.43 1.15 0.94 0.83 0.87 0.79 0.66 0.56 0.56 0.45 0.32 0.31 0.42 0.52 0.63 0.69 0.65 0.55 0.53 0.55 0.58 0.63 0.56 0.43 0.37 0.42 0.45 0.51 0.60 0.84 1.00 1.00 1.13 1.09 1.13 1.11 0.98 0.90 0.91 1.06 1.01 1.02 1.15 1.26 1.12 1.02 1.03 0.98
1.21 1.17 1.11 0.95 0.87 0.89 0.87 0.67 0.57 0.67 0.56 0.43 0.46 0.54 0.59 0.66 0.65 0.62 0.55 0.52 0.50 0.51 0.53 0.54 0.49 0.47 0.46 0.44 0.44 0.49 0.54 0.71 0.74 0.75 0.74 0.94 1.04 1.03 1.05 0.95 1.03 1.17 1.20 1.18 1.18 1.15 1.05 1.01 1.04
1.00 1.07 1.18 1.07 1.02 0.99 0.86 0.87 0.67 0.67 0.64 0.50 0.49 0.51 0.56 0.62 0.61 0.58 0.51 0.45 0.43 0.44 0.44 0.48 0.54 0.59 0.57 0.57 0.57 0.54 0.55 0.58 0.65 0.72 0.73 0.86 0.96 1.04 1.05 0.93 0.97 1.12 1.31 1.28 1.20 1.14 1.11 0.96 0.92
1.14 1.38 1.59 1.30 1.12 1.08 0.97 1.02 0.74 0.71 0.63 0.51 0.46 0.43 0.43 0.43 0.46 0.49 0.44 0.38 0.36 0.35 0.33 0.39 0.45 0.52 0.58 0.62 0.66 0.62 0.66 0.67 0.65 0.70 0.68 0.73 0.89 1.05 1.13 1.05 1.00 1.15 1.34 1.49 1.52 1.35 1.25 1.13 1.05
1.42 1.49 1.40 1.31 1.07 1.05 0.94 0.92 0.80 0.66 0.55 0.45 0.41 0.41 0.38 0.35 0.34 0.37 0.34 0.30 0.29 0.28 0.26 0.29 0.34 0.41 0.48 0.57 0.65 0.67 0.69 0.83 0.91 0.79 0.66 0.73 0.86 0.97 1.18 1.26 1.21 1.24 1.40 1.46 1.47 1.46 1.32 1.30 1.25
1.14 1.13 1.10 1.15 0.97 0.85 0.78 0.73 0.77 0.60 0.41 0.36 0.33 0.32 0.34 0.31 0.28 0.29 0.28 0.24 0.25 0.24 0.23 0.25 0.31 0.33 0.36 0.47 0.64 0.73 0.70 0.80 1.01 1.05 1.02 1.06 1.13 1.19 1.34 1.43 1.43 1.43 1.49 1.47 1.58 1.74 1.54 1.37 1.37
0.87 0.86 0.87 0.78 0.67 0.71 0.66 0.63 0.67 0.58 0.43 0.34 0.29 0.27 0.27 0.27 0.28 0.25 0.22 0.20 0.19 0.18 0.19 0.24 0.29 0.32 0.34 0.42 0.53 0.62 0.72 0.90 1.11 1.17 1.22 1.36 1.39 1.41 1.55 1.66 1.69 1.62 1.53 1.58 1.75 2.10 1.98 1.62 1.46
0.79 0.75 0.78 0.69 0.58 0.58 0.62 0.63 0.61 0.52 0.44 0.33 0.29 0.23 0.19 0.22 0.22 0.18 0.16 0.15 0.14 0.11 0.12 0.18 0.27 0.36 0.42 0.48 0.62 0.77 1.00 1.11 1.26 1.41 1.39 1.42 1.47 1.51 1.59 1.80 1.91 1.84 1.81 1.92 1.94 2.16 2.29 2.03 1.81
0.76 0.68 0.61 0.62 0.60 0.57 0.59 0.71 0.65 0.55 0.44 0.34 0.29 0.23 0.18 0.20 0.18 0.13 0.11 0.13 0.12 0.10 0.11 0.18 0.32 0.51 0.72 0.82 1.05 1.33 1.58 1.66 1.59 1.58 1.62 1.61 1.64 1.70 1.68 1.80 2.01 1.97 1.92 1.96 2.14 2.41 2.68 2.58 2.33
0.74 0.52 0.44 0.52 0.60 0.67 0.52 0.69 0.59 0.52 0.50 0.38 0.33 0.29 0.22 0.23 0.23 0.17 0.16 0.16 0.14 0.15 0.23 0.38 0.62 0.92 1.17 1.32 1.52 1.72 1.84 1.88 1.81 1.82 1.80 1.78 1.70 1.64 1.63 1.75 1.96 2.10 2.17 2.22 2.28 2.29 2.60 2.80 2.63
0.59 0.47 0.43 0.49 0.56 0.57 0.45 0.50 0.45 0.43 0.50 0.45 0.42 0.38 0.35 0.33 0.27 0.27 0.29 0.29 0.34 0.43 0.62 0.89 1.15 1.39 1.53 1.59 1.68 1.88 2.04 2.19 2.21 2.09 1.94 1.83 1.79 1.72 1.63 1.68 1.76 1.80 1.88 1.99 2.12 2.21 2.41 2.55 2.69
0.49 0.53 0.55 0.54 0.57 0.62 0.42 0.37 0.43 0.39 0.42 0.46 0.48 0.43 0.39 0.36 0.35 0.43 0.54 0.65 0.77 0.87 1.04 1.24 1.39 1.53 1.52 1.52 1.58 1.71 1.90 2.06 2.09 2.10 2.07 1.94 1.80 1.70 1.61 1.55 1.65 1.68 1.68 1.81 1.92 2.02 2.24 2.40 2.52
0.52 0.62 0.75 0.75 0.70 0.60 0.35 0.41 0.41 0.32 0.32 0.39 0.43 0.43 0.41 0.39 0.46 0.65 0.80 0.93 1.04 1.15 1.23 1.26 1.25 1.29 1.31 1.32 1.36 1.44 1.50 1.54 1.60 1.71 1.63 1.50 1.37 1.32 1.32 1.24 1.31 1.44 1.50 1.67 1.74 1.69 1.74 1.90 2.10
0.48 0.48 0.65 0.72 0.63 0.53 0.40 0.54 0.48 0.35 0.31 0.30 0.34 0.40 0.49 0.62 0.72 0.84 0.93 1.03 1.07 1.20 1.24 1.19 1.16 1.14 1.06 1.01 1.06 1.07 1.12 1.17 1.20 1.22 1.18 1.10 1.05 1.01 0.97 0.97 0.99 1.05 1.13 1.35 1.56 1.54 1.55 1.62 1.71
0.39 0.38 0.40 0.53 0.50 0.49 0.46 0.56 0.51 0.34 0.28 0.27 0.30 0.38 0.53 0.75 0.99 1.15 1.14 1.03 0.95 0.99 1.06 1.04 0.99 0.93 0.85 0.79 0.82 0.85 0.92 0.95 0.93 0.91 0.86 0.84 0.78 0.79 0.76 0.78 0.87 0.92 0.92 1.02 1.15 1.34 1.41 1.48 1.55
0.30 0.33 0.41 0.59 0.65 0.64 0.55 0.61 0.53 0.38 0.34 0.31 0.35 0.45 0.63 0.85 1.05 1.32 1.45 1.32 1.03 0.84 0.87 0.83 0.80 0.81 0.80 0.76 0.77 0.77 0.70 0.65 0.66 0.69 0.63 0.62 0.67 0.71 0.70 0.67 0.68 0.74 0.77 0.87 0.98 1.04 1.14 1.22 1.37
0.30 0.33 0.41 0.54 0.55 0.70 0.89 0.91 0.69 0.57 0.51 0.50 0.53 0.57 0.64 0.91 1.21 1.37 1.41 1.27 1.08 0.80 0.73 0.72 0.69 0.72 0.78 0.71 0.72 0.72 0.62 0.49 0.47 0.47 0.45 0.45 0.49 0.55 0.56 0.59 0.65 0.65 0.67 0.69 0.70 0.75 0.81 0.88 0.99
0.29 0.35 0.47 0.68 0.69 0.65 0.80 0.86 0.58 0.60 0.69 0.63 0.67 0.74 0.75 0.82 0.87 0.90 1.00 1.01 0.94 0.80 0.73 0.79 0.83 0.82 0.73 0.67 0.63 0.59 0.51 0.44 0.43 0.41 0.38 0.40 0.45 0.47 0.49 0.54 0.58 0.58 0.64 0.66 0.66 0.66 0.68 0.77 0.85

GEFSSGP_prec_meanprecacc_180.txt.gz
Total_Precipitation_Accumulation
2.09 2.27 3.01 3.73 4.04 2.98 2.10 1.64 1.34 1.19 0.99 0.74 0.57 0.57 0.82 1.24 1.59 1.63 1.53 1.39 0.88 0.72 0.74 1.02 1.26 1.21 1.11 1.02 0.98 0.98 0.96 0.92 0.91 0.82 0.69 0.63 0.55 0.49 0.45 0.40 0.36 0.37 0.42 0.48 0.50 0.53 0.50 0.50 0.54
1.86 2.47 3.50 4.13 3.29 2.24 1.92 1.48 1.29 1.05 0.79 0.60 0.50 0.41 0.53 0.44 0.49 0.88 1.69 1.65 0.88 0.67 0.72 0.98 1.29 1.25 1.17 1.11 1.10 1.09 0.98 0.91 0.91 0.82 0.74 0.68 0.63 0.56 0.56 0.56 0.45 0.44 0.47 0.47 0.45 0.44 0.47 0.54 0.62
2.15 2.93 3.94 3.86 2.58 1.96 1.90 1.39 1.03 0.72 0.52 0.54 0.54 0.44 0.50 0.63 0.77 1.21 1.59 1.17 0.81 0.70 0.72 1.08 1.38 1.27 1.17 1.19 1.28 1.23 1.12 1.00 0.91 0.85 0.82 0.76 0.70 0.68 0.74 0.65 0.58 0.57 0.57 0.57 0.57 0.54 0.56 0.65 0.72
2.35 3.32 3.57 2.90 2.21 1.71 1.42 1.17 0.86 0.68 0.47 0.31 0.38 0.49 0.45 0.66 0.87 1.11 1.06 0.76 0.59 0.58 0.63 0.99 1.40 1.28 1.16 1.17 1.30 1.22 1.09 1.07 0.99 0.95 0.92 0.88 0.83 0.85 0.84 0.77 0.73 0.68 0.66 0.65 0.67 0.66 0.67 0.70 0.72
2.52 3.23 3.16 2.73 2.05 1.78 1.31 1.03 0.86 0.77 0.58 0.39 0.35 0.55 0.59 0.90 0.94 0.94 0.88 0.73 0.59 0.58 0.59 0.83 1.23 1.21 1.09 1.10 1.17 1.13 1.08 1.11 1.01 0.94 0.94 0.94 0.93 0.94 1.00 0.95 0.85 0.83 0.80 0.77 0.76 0.72 0.67 0.68 0.74
2.89 2.94 2.94 2.79 2.24 1.97 1.53 1.14 0.81 0.73 0.60 0.45 0.40 0.60 0.80 1.13 1.05 1.01 0.91 0.87 0.79 0.70 0.58 0.68 1.02 1.07 1.02 1.06 1.09 1.10 1.05 0.99 0.88 0.89 0.93 0.94 0.94 1.00 1.05 1.04 0.95 0.93 0.89 0.90 0.90 0.87 0.78 0.77 0.79
2.67 2.61 2.33 1.98 2.12 2.26 1.63 1.02 0.93 0.87 0.78 0.70 0.46 0.68 0.94 1.17 1.01 0.85 0.90 1.03 1.13 1.04 0.87 0.78 0.80 0.83 0.92 1.00 1.03 1.17 1.20 1.01 0.86 0.83 0.83 0.82 0.83 0.87 0.94 0.97 0.93 0.90 0.92 0.93 0.92 0.92 0.89 0.89 0.86
2.22 2.23 2.00 1.94 2.16 2.31 1.41 0.90 0.74 0.72 0.70 0.47 0.38 0.59 0.76 0.91 0.92 0.87 0.91 1.06 1.06 1.03 0.99 0.93 0.92 0.88 0.88 0.89 1.07 1.33 1.43 1.26 0.99 0.87 0.82 0.83 0.78 0.76 0.84 0.83 0.88 0.93 0.98 1.01 1.03 1.02 0.96 1.01 1.01
1.96 2.21 2.20 2.17 2.11 1.84 1.13 0.83 0.63 0.44 0.45 0.40 0.30 0.44 0.57 0.60 0.70 0.85 0.97 1.05 1.00 0.94 0.93 0.89 0.91 0.94 1.04 1.04 1.12 1.37 1.52 1.49 1.12 0.92 0.90 0.79 0.62 0.75 0.80 0.72 0.94 1.03 1.11 1.13 1.15 1.12 1.05 1.07 1.07
2.02 2.14 2.02 1.68 1.48 1.20 0.92 0.77 0.61 0.61 0.64 0.52 0.38 0.46 0.56 0.60 0.64 0.75 0.84 0.82 0.81 0.80 0.78 0.77 0.79 0.77 0.81 0.87 1.20 1.42 1.32 1.40 1.12 1.06 0.98 0.89 0.90 0.93 0.80 0.73 0.92 1.08 1.19 1.17 1.17 1.18 1.11 0.97 0.82
1.72 1.80 1.48 1.29 1.11 0.89 0.80 0.73 0.56 0.66 0.76 0.52 0.40 0.45 0.55 0.61 0.68 0.69 0.75 0.70 0.65 0.66 0.57 0.52 0.55 0.54 0.58 0.68 0.86 1.14 1.40 1.44 1.41 1.34 1.25 1.17 1.07 0.90 0.79 0.78 0.79 0.90 1.01 0.97 1.04 1.04 0.91 0.85 0.79
1.51 1.42 1.23 1.11 0.83 0.87 0.83 0.66 0.57 0.55 0.56 0.37 0.36 0.40 0.47 0.60 0.72 0.70 0.70 0.69 0.65 0.65 0.63 0.51 0.44 0.46 0.47 0.51 0.64 0.89 1.11 1.26 1.28 1.19 1.10 1.28 1.21 0.97 0.87 0.94 0.95 0.93 0.98 1.12 1.17 1.09 0.99 0.90 0.81
1.38 1.43 1.15 0.94 0.83 0.87 0.79 0.68 0.57 0.57 0.50 0.35 0.33 0.44 0.55 0.67 0.78 0.77 0.67 0.64 0.64 0.62 0.67 0.59 0.44 0.38 0.42 0.46 0.52 0.60 0.84 1.00 1.00 1.13 1.09 1.13 1.12 0.98 0.90 0.91 1.06 1.02 1.03 1.17 1.27 1.12 1.04 1.04 0.99
1.21 1.17 1.11 0.95 0.88 0.90 0.88 0.69 0.59 0.69 0.62 0.47 0.48 0.56 0.62 0.71 0.73 0.72 0.61 0.56 0.54 0.53 0.56 0.55 0.49 0.47 0.46 0.44 0.44 0.49 0.54 0.71 0.74 0.75 0.74 0.94 1.05 1.03 1.05 0.95 1.03 1.18 1.21 1.19 1.19 1.16 1.06 1.02 1.05
1.01 1.08 1.20 1.09 1.03 1.02 0.89 0.89 0.69 0.71 0.70 0.54 0.51 0.54 0.60 0.65 0.64 0.63 0.55 0.48 0.45 0.45 0.44 0.48 0.54 0.59 0.57 0.57 0.57 0.54 0.55 0.58 0.65 0.72 0.73 0.86 0.96 1.04 1.06 0.94 0.98 1.13 1.32 1.29 1.22 1.15 1.12 0.97 0.93
1.15 1.39 1.60 1.31 1.13 1.11 1.00 1.04 0.77 0.77 0.71 0.54 0.49 0.47 0.46 0.45 0.48 0.52 0.47 0.39 0.38 0.36 0.33 0.39 0.45 0.52 0.58 0.62 0.66 0.62 0.66 0.67 0.65 0.70 0.68 0.73 0.89 1.05 1.13 1.05 1.01 1.16 1.35 1.50 1.54 1.36 1.26 1.14 1.06
1.43 1.50 1.41 1.32 1.08 1.07 0.97 0.96 0.83 0.73 0.63 0.47 0.43 0.45 0.41 0.37 0.36 0.38 0.36 0.32 0.30 0.28 0.26 0.29 0.35 0.41 0.48 0.57 0.65 0.67 0.69 0.83 0.91 0.79 0.66 0.73 0.87 0.97 1.18 1.26 1.22 1.25 1.41 1.46 1.47 1.46 1.33 1.31 1.26
1.14 1.14 1.11 1.16 0.98 0.87 0.80 0.77 0.81 0.68 0.48 0.39 0.34 0.34 0.35 0.33 0.29 0.30 0.29 0.27 0.27 0.25 0.24 0.26 0.31 0.33 0.36 0.47 0.64 0.73 0.70 0.80 1.01 1.05 1.02 1.06 1.14 1.19 1.34 1.43 1.43 1.44 1.49 1.47 1.58 1.75 1.55 1.37 1.38
0.87 0.87 0.87 0.78 0.68 0.74 0.70 0.67 0.73 0.69 0.52 0.37 0.30 0.28 0.28 0.28 0.30 0.28 0.24 0.22 0.21 0.20 0.20 0.24 0.29 0.32 0.34 0.42 0.53 0.62 0.72 0.90 1.11 1.17 1.22 1.36 1.39 1.42 1.55 1.66 1.69 1.62 1.53 1.58 1.75 2.10 1.98 1.62 1.46
0.80 0.76 0.78 0.70 0.60 0.60 0.66 0.68 0.67 0.62 0.51 0.37 0.30 0.24 0.20 0.22 0.23 0.20 0.18 0.17 0.15 0.12 0.13 0.18 0.27 0.36 0.42 0.48 0.62 0.77 1.00 1.11 1.26 1.41 1.39 1.42 1.47 1.51 1.59 1.80 1.91 1.84 1.81 1.92 1.94 2.16 2.29 2.03 1.81
0.77 0.68 0.62 0.64 0.61 0.59 0.63 0.76 0.72 0.64 0.49 0.38 0.31 0.24 0.19 0.20 0.19 0.14 0.13 0.14 0.13 0.10 0.11 0.18 0.32 0.51 0.72 0.82 1.05 1.33 1.58 1.66 1.59 1.58 1.62 1.61 1.64 1.70 1.68 1.80 2.01 1.97 1.92 1.96 2.14 2.42 2.68 2.58 2.33
0.74 0.52 0.45 0.53 0.62 0.69 0.57 0.74 0.64 0.59 0.54 0.41 0.34 0.30 0.23 0.24 0.25 0.18 0.17 0.16 0.15 0.15 0.23 0.38 0.62 0.92 1.17 1.32 1.52 1.72 1.84 1.88 1.81 1.82 1.80 1.78 1.70 1.64 1.63 1.75 1.96 2.10 2.17 2.22 2.28 2.29 2.62 2.81 2.64
0.60 0.48 0.44 0.51 0.58 0.59 0.48 0.54 0.50 0.46 0.53 0.47 0.44 0.40 0.35 0.33 0.28 0.28 0.30 0.29 0.34 0.44 0.62 0.90 1.15 1.39 1.53 1.59 1.68 1.88 2.04 2.19 2.21 2.09 1.94 1.83 1.80 1.73 1.64 1.68 1.76 1.81 1.88 2.00 2.13 2.21 2.42 2.56 2.69
0.49 0.54 0.56 0.56 0.59 0.64 0.45 0.40 0.46 0.42 0.43 0.47 0.51 0.45 0.40 0.37 0.36 0.44 0.55 0.66 0.78 0.87 1.04 1.25 1.39 1.53 1.53 1.53 1.58 1.71 1.90 2.07 2.09 2.10 2.07 1.94 1.81 1.71 1.62 1.56 1.65 1.68 1.69 1.81 1.93 2.03 2.25 2.42 2.53
0.53 0.64 0.77 0.77 0.73 0.63 0.39 0.45 0.44 0.33 0.33 0.39 0.44 0.45 0.42 0.40 0.47 0.66 0.80 0.93 1.05 1.15 1.24 1.27 1.26 1.30 1.31 1.33 1.37 1.44 1.50 1.54 1.60 1.71 1.63 1.50 1.38 1.33 1.33 1.25 1.31 1.45 1.50 1.68 1.75 1.69 1.74 1.91 2.11
0.49 0.49 0.66 0.74 0.65 0.56 0.44 0.58 0.50 0.36 0.31 0.30 0.34 0.41 0.50 0.63 0.73 0.84 0.94 1.03 1.07 1.20 1.25 1.19 1.16 1.14 1.07 1.01 1.06 1.08 1.12 1.17 1.20 1.22 1.18 1.10 1.05 1.02 0.98 0.98 1.00 1.07 1.15 1.37 1.57 1.54 1.56 1.63 1.71
0.40 0.39 0.41 0.55 0.51 0.51 0.48 0.58 0.53 0.35 0.29 0.28 0.30 0.38 0.53 0.75 0.99 1.15 1.14 1.04 0.96 1.00 1.07 1.05 1.00 0.94 0.86 0.80 0.83 0.86 0.92 0.95 0.93 0.91 0.86 0.84 0.78 0.79 0.76 0.79 0.88 0.93 0.93 1.03 1.16 1.34 1.42 1.48 1.56
0.31 0.34 0.42 0.61 0.67 0.65 0.57 0.63 0.55 0.39 0.35 0.32 0.36 0.45 0.63 0.85 1.06 1.33 1.45 1.33 1.05 0.86 0.88 0.85 0.81 0.82 0.80 0.76 0.78 0.78 0.70 0.65 0.66 0.69 0.63 0.62 0.67 0.71 0.70 0.68 0.69 0.75 0.77 0.87 0.98 1.04 1.15 1.22 1.38
0.31 0.35 0.43 0.57 0.58 0.73 0.92 0.93 0.70 0.58 0.52 0.50 0.53 0.57 0.64 0.92 1.21 1.37 1.42 1.29 1.10 0.82 0.75 0.74 0.70 0.73 0.78 0.71 0.73 0.72 0.62 0.49 0.47 0.47 0.45 0.45 0.49 0.55 0.56 0.59 0.65 0.65 0.67 0.69 0.70 0.75 0.81 0.89 0.99
0.30 0.36 0.48 0.70 0.72 0.67 0.82 0.87 0.59 0.61 0.70 0.63 0.67 0.74 0.76 0.82 0.87 0.90 1.01 1.02 0.94 0.81 0.74 0.80 0.84 0.83 0.75 0.68 0.63 0.59 0.52 0.44 0.43 0.41 0.38 0.40 0.45 0.47 0.49 0.54 0.58 0.58 0.64 0.66 0.66 0.66 0.68 0.77 0.85

GEFSSGP_prec_meanprecacc_186.txt.gz
Total_Precipitation_Accumulation
2.13 2.32 3.06 3.79 4.15 3.07 2.16 1.67 1.37 1.22 1.01 0.76 0.59 0.60 0.87 1.28 1.63 1.66 1.56 1.42 0.90 0.75 0.77 1.09 1.34 1.28 1.16 1.06 1.03 1.03 1.00 0.95 0.95 0.86 0.71 0.64 0.57 0.50 0.47 0.42 0.38 0.40 0.45 0.51 0.53 0.55 0.54 0.54 0.59
1.88 2.50 3.55 4.21 3.40 2.32 1.98 1.52 1.32 1.07 0.81 0.62 0.52 0.43 0.55 0.46 0.50 0.89 1.71 1.67 0.90 0.70 0.76 1.03 1.36 1.31 1.21 1.14 1.14 1.13 1.02 0.94 0.94 0.85 0.76 0.69 0.64 0.57 0.57 0.57 0.46 0.45 0.48 0.50 0.49 0.48 0.52 0.58 0.65
2.15 2.94 3.97 3.89 2.61 1.99 1.94 1.44 1.07 0.75 0.55 0.56 0.57 0.46 0.53 0.65 0.78 1.23 1.60 1.18 0.83 0.72 0.75 1.13 1.45 1.32 1.21 1.22 1.30 1.26 1.16 1.03 0.94 0.87 0.84 0.77 0.71 0.70 0.76 0.66 0.59 0.58 0.58 0.59 0.61 0.59 0.60 0.69 0.75
2.36 3.33 3.58 2.92 2.22 1.72 1.45 1.21 0.91 0.74 0.52 0.33 0.41 0.53 0.48 0.70 0.90 1.13 1.07 0.77 0.60 0.60 0.65 1.02 1.46 1.33 1.19 1.19 1.32 1.24 1.12 1.11 1.02 0.97 0.93 0.89 0.84 0.87 0.86 0.78 0.74 0.70 0.68 0.67 0.68 0.69 0.71 0.76 0.77
2.53 3.25 3.17 2.74 2.06 1.79 1.33 1.06 0.90 0.82 0.63 0.41 0.38 0.58 0.62 0.95 0.98 0.95 0.89 0.74 0.60 0.59 0.59 0.84 1.27 1.25 1.12 1.12 1.19 1.14 1.09 1.13 1.04 0.97 0.95 0.95 0.94 0.97 1.03 0.97 0.87 0.85 0.83 0.79 0.78 0.74 0.70 0.74 0.83
2.91 2.95 2.95 2.80 2.25 1.99 1.55 1.15 0.83 0.76 0.62 0.47 0.41 0.61 0.83 1.18 1.08 1.01 0.92 0.89 0.80 0.70 0.59 0.70 1.06 1.11 1.05 1.09 1.13 1.12 1.07 1.01 0.90 0.91 0.94 0.96 0.96 1.02 1.07 1.06 0.97 0.95 0.92 0.92 0.92 0.89 0.83 0.82 0.84
2.68 2.62 2.34 1.99 2.13 2.28 1.64 1.04 0.95 0.90 0.81 0.71 0.47 0.69 0.96 1.22 1.05 0.87 0.91 1.05 1.15 1.05 0.88 0.79 0.82 0.85 0.94 1.04 1.08 1.21 1.23 1.03 0.88 0.85 0.85 0.85 0.87 0.90 0.96 1.00 0.95 0.92 0.94 0.95 0.96 0.95 0.93 0.93 0.89
2.23 2.24 2.00 1.95 2.18 2.32 1.42 0.93 0.75 0.73 0.74 0.49 0.39 0.60 0.79 0.94 0.95 0.90 0.93 1.07 1.08 1.05 1.01 0.95 0.94 0.89 0.89 0.92 1.11 1.37 1.47 1.28 1.00 0.88 0.83 0.84 0.80 0.79 0.86 0.86 0.92 0.97 1.02 1.05 1.07 1.07 1.00 1.04 1.05
1.97 2.22 2.21 2.18 2.12 1.85 1.14 0.85 0.65 0.45 0.46 0.42 0.32 0.45 0.58 0.62 0.72 0.87 0.98 1.06 1.01 0.96 0.95 0.91 0.92 0.95 1.06 1.07 1.15 1.40 1.55 1.50 1.13 0.92 0.90 0.81 0.64 0.77 0.83 0.77 0.99 1.09 1.17 1.18 1.21 1.18 1.09 1.10 1.10
2.02 2.15 2.03 1.68 1.48 1.21 0.92 0.78 0.62 0.62 0.67 0.57 0.40 0.47 0.57 0.62 0.65 0.76 0.86 0.83 0.82 0.81 0.79 0.78 0.81 0.79 0.83 0.89 1.22 1.44 1.33 1.40 1.12 1.07 0.98 0.89 0.92 0.95 0.82 0.77 0.99 1.14 1.24 1.21 1.21 1.21 1.13 0.99 0.83
1.72 1.80 1.49 1.30 1.11 0.90 0.81 0.73 0.56 0.67 0.79 0.57 0.42 0.46 0.56 0.62 0.69 0.71 0.78 0.75 0.68 0.68 0.59 0.54 0.59 0.57 0.60 0.70 0.87 1.16 1.41 1.45 1.41 1.35 1.25 1.17 1.08 0.91 0.80 0.79 0.81 0.93 1.03 0.98 1.06 1.06 0.93 0.87 0.81
1.51 1.42 1.24 1.11 0.84 0.87 0.84 0.67 0.57 0.55 0.57 0.41 0.38 0.41 0.48 0.61 0.74 0.73 0.76 0.77 0.71 0.70 0.68 0.55 0.48 0.49 0.49 0.52 0.65 0.90 1.12 1.26 1.28 1.19 1.10 1.28 1.22 0.99 0.88 0.95 0.95 0.94 0.99 1.14 1.19 1.11 1.01 0.92 0.83
1.38 1.43 1.16 0.95 0.83 0.88 0.80 0.69 0.58 0.58 0.51 0.39 0.37 0.45 0.56 0.68 0.79 0.83 0.79 0.80 0.76 0.71 0.74 0.64 0.48 0.41 0.44 0.47 0.53 0.60 0.84 1.00 1.00 1.13 1.09 1.14 1.12 0.99 0.91 0.92 1.06 1.02 1.04 1.18 1.28 1.14 1.05 1.06 1.01
1.22 1.18 1.12 0.96 0.88 0.90 0.89 0.70 0.60 0.71 0.63 0.52 0.52 0.58 0.63 0.72 0.76 0.77 0.74 0.71 0.66 0.63 0.62 0.60 0.52 0.50 0.47 0.44 0.44 0.49 0.54 0.71 0.74 0.75 0.74 0.94 1.05 1.03 1.06 0.97 1.04 1.18 1.22 1.20 1.20 1.17 1.08 1.04 1.07
1.01 1.09 1.21 1.10 1.04 1.02 0.89 0.91 0.70 0.72 0.73 0.59 0.55 0.56 0.62 0.68 0.68 0.69 0.64 0.58 0.54 0.53 0.50 0.53 0.56 0.60 0.58 0.57 0.57 0.54 0.55 0.58 0.65 0.72 0.74 0.86 0.97 1.04 1.06 0.95 0.99 1.13 1.32 1.30 1.23 1.16 1.14 0.99 0.95
1.15 1.40 1.62 1.33 1.14 1.11 1.01 1.06 0.79 0.80 0.75 0.60 0.53 0.49 0.48 0.49 0.50 0.56 0.53 0.46 0.43 0.40 0.36 0.42 0.48 0.53 0.59 0.62 0.66 0.62 0.66 0.67 0.65 0.70 0.69 0.73 0.89 1.05 1.14 1.06 1.01 1.17 1.36 1.51 1.55 1.37 1.28 1.16 1.08
1.44 1.51 1.42 1.34 1.08 1.08 0.98 0.98 0.85 0.74 0.67 0.53 0.46 0.47 0.42 0.39 0.38 0.40 0.40 0.36 0.33 0.30 0.27 0.30 0.36 0.41 0.48 0.57 0.65 0.67 0.70 0.83 0.91 0.80 0.67 0.74 0.87 0.97 1.18 1.26 1.22 1.26 1.42 1.47 1.48 1.47 1.35 1.33 1.28
1.15 1.15 1.12 1.18 0.99 0.88 0.82 0.79 0.83 0.69 0.52 0.43 0.36 0.35 0.38 0.35 0.31 0.32 0.30 0.28 0.28 0.26 0.24 0.26 0.32 0.33 0.36 0.47 0.64 0.74 0.71 0.80 1.02 1.05 1.03 1.07 1.14 1.19 1.34 1.44 1.43 1.44 1.50 1.48 1.59 1.76 1.57 1.40 1.40
0.88 0.88 0.88 0.80 0.69 0.75 0.72 0.70 0.76 0.71 0.56 0.40 0.31 0.28 0.29 0.29 0.32 0.29 0.25 0.24 0.23 0.20 0.20 0.24 0.29 0.32 0.34 0.42 0.53 0.62 0.72 0.90 1.11 1.17 1.23 1.37 1.40 1.42 1.55 1.66 1.69 1.62 1.53 1.59 1.76 2.11 2.00 1.64 1.48
0.80 0.77 0.80 0.71 0.61 0.61 0.68 0.71 0.71 0.64 0.55 0.41 0.32 0.24 0.20 0.23 0.24 0.20 0.19 0.18 0.16 0.13 0.13 0.18 0.27 0.36 0.42 0.48 0.62 0.77 1.00 1.11 1.26 1.41 1.40 1.42 1.48 1.52 1.59 1.80 1.91 1.85 1.82 1.92 1.94 2.17 2.30 2.04 1.83
0.78 0.70 0.63 0.66 0.63 0.60 0.64 0.80 0.75 0.67 0.52 0.41 0.34 0.26 0.19 0.22 0.20 0.14 0.13 0.15 0.14 0.10 0.12 0.18 0.32 0.51 0.72 0.83 1.06 1.33 1.58 1.66 1.59 1.58 1.62 1.61 1.65 1.71 1.68 1.81 2.01 1.97 1.92 1.96 2.15 2.43 2.70 2.60 2.35
0.76 0.53 0.46 0.55 0.65 0.71 0.59 0.78 0.67 0.63 0.58 0.42 0.36 0.31 0.24 0.25 0.25 0.19 0.17 0.17 0.16 0.16 0.23 0.39 0.62 0.92 1.17 1.32 1.52 1.73 1.84 1.88 1.81 1.82 1.81 1.79 1.71 1.64 1.63 1.76 1.97 2.11 2.18 2.23 2.29 2.30 2.63 2.84 2.67
0.61 0.49 0.46 0.53 0.61 0.61 0.50 0.57 0.52 0.49 0.57 0.48 0.45 0.40 0.36 0.34 0.29 0.29 0.30 0.30 0.35 0.45 0.63 0.90 1.15 1.39 1.54 1.59 1.69 1.88 2.04 2.19 2.21 2.09 1.94 1.83 1.80 1.73 1.64 1.69 1.77 1.81 1.89 2.01 2.14 2.22 2.43 2.58 2.72
0.50 0.56 0.59 0.58 0.61 0.67 0.46 0.42 0.48 0.43 0.45 0.48 0.51 0.45 0.40 0.37 0.36 0.44 0.56 0.66 0.78 0.88 1.05 1.25 1.39 1.54 1.53 1.53 1.58 1.72 1.90 2.07 2.09 2.10 2.07 1.94 1.81 1.71 1.62 1.56 1.66 1.68 1.69 1.82 1.93 2.03 2.25 2.43 2.54
0.55 0.67 0.79 0.79 0.76 0.65 0.40 0.45 0.45 0.34 0.33 0.40 0.44 0.45 0.42 0.40 0.47 0.66 0.80 0.94 1.05 1.15 1.24 1.27 1.26 1.30 1.32 1.33 1.37 1.44 1.50 1.54 1.60 1.71 1.63 1.50 1.39 1.33 1.33 1.25 1.31 1.45 1.50 1.69 1.76 1.70 1.74 1.92 2.13
0.50 0.50 0.68 0.76 0.67 0.58 0.46 0.59 0.52 0.36 0.31 0.31 0.34 0.41 0.50 0.63 0.73 0.84 0.94 1.03 1.08 1.20 1.25 1.19 1.17 1.15 1.08 1.02 1.07 1.08 1.12 1.17 1.21 1.22 1.18 1.10 1.05 1.02 0.98 0.98 1.00 1.07 1.16 1.38 1.58 1.55 1.56 1.63 1.73
0.42 0.41 0.42 0.57 0.53 0.53 0.50 0.60 0.55 0.36 0.29 0.28 0.30 0.39 0.53 0.75 0.99 1.15 1.14 1.04 0.96 1.01 1.07 1.05 1.01 0.95 0.87 0.81 0.84 0.86 0.92 0.95 0.93 0.91 0.87 0.84 0.78 0.79 0.76 0.79 0.88 0.94 0.93 1.04 1.17 1.34 1.42 1.48 1.56
0.32 0.35 0.43 0.62 0.69 0.67 0.58 0.65 0.57 0.41 0.35 0.32 0.36 0.45 0.63 0.85 1.06 1.33 1.45 1.33 1.05 0.87 0.89 0.85 0.81 0.83 0.82 0.77 0.78 0.78 0.70 0.65 0.66 0.69 0.64 0.62 0.67 0.71 0.70 0.68 0.69 0.75 0.77 0.87 0.98 1.04 1.15 1.22 1.38
0.32 0.36 0.44 0.59 0.60 0.75 0.95 0.95 0.72 0.60 0.53 0.50 0.53 0.57 0.64 0.92 1.22 1.37 1.42 1.29 1.10 0.83 0.75 0.74 0.70 0.74 0.79 0.72 0.73 0.73 0.62 0.50 0.47 0.47 0.45 0.45 0.49 0.55 0.56 0.59 0.65 0.65 0.67 0.69 0.71 0.76 0.82 0.89 0.99
0.31 0.37 0.49 0.72 0.74 0.69 0.84 0.89 0.60 0.63 0.71 0.64 0.68 0.75 0.76 0.82 0.88 0.90 1.01 1.02 0.95 0.81 0.75 0.81 0.84 0.84 0.76 0.69 0.64 0.60 0.53 0.45 0.44 0.42 0.38 0.40 0.45 0.47 0.49 0.54 0.58 0.58 0.64 0.66 0.66 0.66 0.68 0.77 0.85

GEFSSGP_prec_meanprecacc_192.txt.gz
Total_Precipitation_Accumulation
2.16 2.37 3.11 3.88 4.30 3.23 2.29 1.79 1.46 1.27 1.05 0.80 0.63 0.64 0.93 1.36 1.72 1.73 1.61 1.44 0.90 0.77 0.79 1.11 1.37 1.30 1.18 1.08 1.05 1.05 1.02 0.98 0.97 0.91 0.79 0.71 0.63 0.55 0.50 0.46 0.43 0.45 0.49 0.54 0.56 0.59 0.59 0.57 0.61
1.90 2.55 3.63 4.35 3.58 2.48 2.11 1.64 1.39 1.10 0.83 0.63 0.54 0.47 0.58 0.48 0.51 0.92 1.75 1.69 0.91 0.71 0.78 1.04 1.37 1.32 1.23 1.16 1.16 1.14 1.03 0.95 0.96 0.88 0.80 0.73 0.68 0.61 0.60 0.60 0.48 0.48 0.50 0.54 0.53 0.53 0.57 0.61 0.67
2.17 2.97 4.06 4.07 2.79 2.13 2.08 1.54 1.13 0.76 0.56 0.57 0.59 0.48 0.55 0.68 0.81 1.27 1.64 1.20 0.83 0.74 0.77 1.15 1.47 1.33 1.23 1.23 1.32 1.28 1.17 1.05 0.96 0.89 0.86 0.79 0.73 0.73 0.78 0.68 0.60 0.59 0.60 0.62 0.64 0.64 0.66 0.71 0.78
2.38 3.37 3.65 3.03 2.31 1.78 1.52 1.26 0.93 0.77 0.53 0.34 0.43 0.56 0.51 0.74 0.94 1.15 1.09 0.79 0.62 0.62 0.66 1.03 1.48 1.35 1.21 1.20 1.33 1.26 1.14 1.13 1.05 0.99 0.95 0.91 0.86 0.90 0.88 0.80 0.76 0.71 0.69 0.68 0.72 0.74 0.78 0.82 0.81
2.58 3.33 3.26 2.83 2.11 1.84 1.37 1.08 0.91 0.86 0.67 0.44 0.40 0.61 0.65 1.00 1.01 0.98 0.92 0.79 0.63 0.61 0.61 0.85 1.28 1.27 1.14 1.13 1.22 1.18 1.13 1.16 1.06 0.98 0.97 0.98 0.97 1.00 1.05 1.00 0.90 0.86 0.83 0.81 0.80 0.78 0.76 0.80 0.89
2.99 3.03 3.06 2.87 2.31 2.05 1.60 1.17 0.84 0.78 0.64 0.51 0.46 0.64 0.88 1.25 1.13 1.06 0.97 0.93 0.82 0.71 0.60 0.71 1.07 1.13 1.07 1.12 1.16 1.16 1.11 1.04 0.91 0.92 0.97 0.98 0.98 1.05 1.11 1.09 0.99 0.97 0.93 0.94 0.94 0.92 0.85 0.85 0.88
2.74 2.70 2.43 2.06 2.20 2.34 1.68 1.05 0.96 0.92 0.84 0.74 0.50 0.72 1.01 1.30 1.11 0.91 0.94 1.06 1.16 1.06 0.89 0.81 0.84 0.87 0.96 1.06 1.09 1.23 1.27 1.06 0.89 0.86 0.87 0.86 0.87 0.91 0.98 1.01 0.97 0.94 0.96 0.97 0.98 0.97 0.95 0.95 0.92
2.25 2.29 2.06 1.99 2.24 2.39 1.44 0.94 0.77 0.75 0.76 0.50 0.41 0.63 0.81 0.98 0.99 0.94 0.95 1.08 1.09 1.07 1.03 0.96 0.95 0.90 0.90 0.93 1.11 1.38 1.50 1.31 1.02 0.90 0.85 0.86 0.82 0.80 0.87 0.88 0.94 0.98 1.04 1.07 1.09 1.08 1.02 1.07 1.07
1.97 2.26 2.27 2.21 2.17 1.89 1.14 0.86 0.66 0.46 0.48 0.44 0.34 0.48 0.60 0.64 0.75 0.90 1.00 1.07 1.03 0.98 0.98 0.94 0.94 0.96 1.06 1.07 1.15 1.41 1.57 1.52 1.14 0.93 0.92 0.83 0.69 0.81 0.86 0.79 1.01 1.12 1.20 1.20 1.23 1.19 1.10 1.12 1.11
2.02 2.19 2.07 1.70 1.49 1.21 0.93 0.78 0.62 0.64 0.71 0.60 0.43 0.50 0.60 0.64 0.67 0.78 0.87 0.84 0.83 0.83 0.82 0.81 0.83 0.80 0.84 0.90 1.23 1.45 1.34 1.42 1.13 1.07 1.00 0.91 0.94 0.99 0.84 0.79 1.01 1.17 1.26 1.24 1.23 1.22 1.15 1.01 0.85
1.73 1.82 1.50 1.30 1.12 0.90 0.81 0.74 0.57 0.69 0.82 0.60 0.44 0.49 0.59 0.64 0.71 0.72 0.79 0.76 0.70 0.70 0.62 0.56 0.60 0.59 0.61 0.71 0.88 1.17 1.42 1.46 1.41 1.35 1.26 1.18 1.09 0.93 0.82 0.82 0.85 0.96 1.06 1.01 1.09 1.09 0.99 0.92 0.84
1.51 1.43 1.24 1.12 0.84 0.87 0.85 0.68 0.58 0.57 0.60 0.44 0.40 0.44 0.51 0.65 0.76 0.73 0.77 0.79 0.74 0.74 0.73 0.57 0.49 0.51 0.51 0.54 0.67 0.91 1.13 1.27 1.28 1.20 1.10 1.28 1.22 1.00 0.89 0.96 0.98 0.97 1.04 1.19 1.23 1.18 1.08 0.97 0.85
1.39 1.44 1.16 0.96 0.84 0.88 0.81 0.71 0.59 0.59 0.51 0.40 0.40 0.47 0.58 0.70 0.81 0.83 0.80 0.82 0.80 0.78 0.81 0.70 0.52 0.45 0.47 0.50 0.55 0.62 0.86 1.00 1.00 1.14 1.10 1.14 1.13 1.01 0.92 0.93 1.07 1.05 1.07 1.23 1.33 1.19 1.12 1.12 1.05
1.22 1.18 1.12 0.96 0.88 0.91 0.90 0.72 0.61 0.73 0.64 0.53 0.55 0.60 0.65 0.74 0.79 0.80 0.75 0.72 0.69 0.69 0.70 0.67 0.57 0.54 0.50 0.47 0.47 0.51 0.55 0.71 0.74 0.76 0.75 0.95 1.06 1.04 1.07 0.97 1.04 1.19 1.24 1.23 1.23 1.20 1.12 1.08 1.11
1.02 1.09 1.21 1.10 1.05 1.03 0.90 0.92 0.71 0.74 0.74 0.61 0.59 0.58 0.63 0.70 0.70 0.71 0.67 0.61 0.57 0.57 0.57 0.58 0.60 0.63 0.61 0.60 0.59 0.55 0.56 0.58 0.65 0.73 0.75 0.87 0.98 1.05 1.06 0.96 0.99 1.14 1.33 1.31 1.25 1.17 1.17 1.02 0.99
1.16 1.42 1.66 1.35 1.15 1.12 1.03 1.10 0.80 0.81 0.77 0.64 0.58 0.52 0.50 0.51 0.52 0.57 0.54 0.48 0.47 0.44 0.42 0.48 0.51 0.55 0.60 0.64 0.67 0.63 0.66 0.67 0.65 0.71 0.71 0.74 0.90 1.05 1.14 1.07 1.02 1.17 1.36 1.52 1.56 1.39 1.32 1.21 1.13
1.47 1.56 1.48 1.38 1.09 1.09 1.01 1.02 0.86 0.75 0.70 0.58 0.51 0.50 0.44 0.40 0.39 0.41 0.41 0.37 0.35 0.33 0.30 0.33 0.40 0.44 0.50 0.58 0.66 0.68 0.70 0.83 0.91 0.81 0.69 0.75 0.87 0.99 1.19 1.27 1.23 1.26 1.42 1.48 1.48 1.49 1.39 1.37 1.31
1.18 1.18 1.16 1.22 1.01 0.90 0.87 0.83 0.85 0.70 0.54 0.48 0.40 0.37 0.39 0.36 0.32 0.33 0.31 0.29 0.30 0.28 0.26 0.27 0.34 0.35 0.37 0.48 0.64 0.74 0.71 0.80 1.02 1.06 1.05 1.08 1.14 1.20 1.35 1.45 1.44 1.44 1.51 1.49 1.60 1.79 1.60 1.44 1.43
0.88 0.89 0.92 0.83 0.70 0.78 0.78 0.74 0.78 0.72 0.57 0.43 0.33 0.30 0.30 0.30 0.33 0.30 0.26 0.25 0.24 0.21 0.21 0.25 0.30 0.33 0.35 0.43 0.53 0.63 0.73 0.91 1.11 1.17 1.24 1.39 1.40 1.43 1.56 1.66 1.69 1.63 1.55 1.61 1.77 2.13 2.02 1.66 1.50
0.81 0.79 0.83 0.73 0.62 0.64 0.73 0.76 0.73 0.66 0.57 0.43 0.34 0.26 0.21 0.23 0.24 0.21 0.20 0.19 0.17 0.13 0.14 0.19 0.27 0.36 0.43 0.48 0.62 0.77 1.00 1.12 1.26 1.41 1.41 1.43 1.49 1.52 1.59 1.80 1.92 1.85 1.83 1.93 1.96 2.19 2.34 2.07 1.87
0.79 0.72 0.65 0.67 0.64 0.62 0.67 0.84 0.80 0.70 0.55 0.43 0.36 0.27 0.19 0.22 0.21 0.15 0.14 0.16 0.14 0.11 0.12 0.18 0.32 0.52 0.72 0.83 1.06 1.33 1.59 1.67 1.60 1.59 1.64 1.62 1.65 1.72 1.69 1.81 2.01 1.98 1.94 1.99 2.17 2.46 2.74 2.65 2.39
0.78 0.55 0.47 0.57 0.68 0.74 0.62 0.85 0.73 0.66 0.60 0.45 0.37 0.32 0.24 0.25 0.25 0.20 0.18 0.18 0.16 0.16 0.24 0.40 0.62 0.92 1.18 1.33 1.53 1.74 1.85 1.89 1.82 1.83 1.81 1.79 1.71 1.64 1.65 1.78 1.98 2.13 2.20 2.26 2.31 2.33 2.67 2.89 2.71
0.61 0.50 0.47 0.56 0.65 0.65 0.54 0.63 0.58 0.52 0.59 0.50 0.46 0.41 0.36 0.34 0.29 0.29 0.31 0.32 0.36 0.45 0.63 0.91 1.16 1.40 1.54 1.60 1.69 1.89 2.05 2.20 2.21 2.10 1.95 1.83 1.80 1.74 1.65 1.70 1.78 1.83 1.92 2.04 2.16 2.24 2.46 2.63 2.76
0.51 0.56 0.60 0.60 0.66 0.73 0.50 0.46 0.54 0.47 0.47 0.51 0.52 0.45 0.41 0.37 0.36 0.44 0.57 0.68 0.79 0.88 1.06 1.26 1.40 1.54 1.54 1.54 1.58 1.72 1.91 2.07 2.09 2.10 2.07 1.94 1.81 1.72 1.62 1.56 1.66 1.69 1.70 1.83 1.94 2.04 2.28 2.46 2.57
0.55 0.69 0.84 0.84 0.81 0.70 0.42 0.47 0.49 0.35 0.34 0.41 0.46 0.45 0.42 0.40 0.47 0.66 0.81 0.95 1.05 1.16 1.25 1.28 1.27 1.31 1.32 1.34 1.38 1.44 1.51 1.54 1.60 1.71 1.64 1.51 1.39 1.34 1.34 1.26 1.32 1.45 1.50 1.69 1.76 1.70 1.75 1.94 2.15
0.51 0.52 0.73 0.81 0.72 0.61 0.47 0.61 0.54 0.37 0.32 0.31 0.35 0.42 0.50 0.63 0.73 0.84 0.94 1.03 1.08 1.21 1.25 1.20 1.17 1.16 1.09 1.03 1.07 1.08 1.12 1.18 1.21 1.22 1.18 1.10 1.05 1.02 0.98 0.98 1.00 1.07 1.16 1.38 1.59 1.55 1.57 1.64 1.74
0.43 0.42 0.44 0.59 0.55 0.56 0.52 0.61 0.56 0.36 0.29 0.28 0.31 0.39 0.54 0.75 0.99 1.15 1.14 1.04 0.96 1.01 1.08 1.06 1.01 0.96 0.88 0.82 0.85 0.87 0.93 0.96 0.94 0.92 0.87 0.84 0.78 0.79 0.76 0.79 0.88 0.94 0.93 1.04 1.17 1.34 1.42 1.49 1.57
0.33 0.36 0.44 0.65 0.73 0.73 0.62 0.68 0.61 0.42 0.36 0.32 0.36 0.45 0.64 0.85 1.06 1.33 1.46 1.33 1.05 0.87 0.89 0.85 0.82 0.84 0.82 0.78 0.79 0.79 0.71 0.65 0.67 0.69 0.64 0.62 0.67 0.71 0.70 0.68 0.69 0.75 0.77 0.87 0.98 1.04 1.15 1.22 1.38
0.33 0.37 0.47 0.62 0.62 0.81 1.02 1.00 0.74 0.62 0.54 0.51 0.54 0.58 0.64 0.92 1.22 1.37 1.42 1.29 1.10 0.83 0.75 0.75 0.71 0.74 0.80 0.73 0.74 0.73 0.63 0.50 0.47 0.47 0.45 0.45 0.49 0.55 0.56 0.59 0.65 0.65 0.67 0.69 0.71 0.76 0.82 0.89 0.99
0.31 0.38 0.51 0.77 0.78 0.73 0.89 0.94 0.61 0.64 0.72 0.64 0.68 0.75 0.76 0.83 0.88 0.91 1.02 1.02 0.95 0.81 0.75 0.81 0.85 0.85 0.77 0.69 0.65 0.61 0.53 0.45 0.44 0.42 0.38 0.40 0.45 0.47 0.49 0.54 0.58 0.58 0.64 0.66 0.66 0.66 0.68 0.77 0.85

GEFSSGP_prec_meanprecacc_198.txt.gz
Total_Precipitation_Accumulation
2.18 2.41 3.19 4.00 4.45 3.34 2.38 1.89 1.56 1.35 1.09 0.83 0.66 0.66 0.96 1.40 1.76 1.77 1.64 1.49 0.92 0.79 0.81 1.13 1.38 1.32 1.20 1.09 1.06 1.06 1.03 0.99 0.98 0.93 0.84 0.76 0.66 0.56 0.52 0.48 0.47 0.49 0.53 0.58 0.59 0.62 0.62 0.60 0.64
1.91 2.60 3.74 4.52 3.74 2.59 2.20 1.73 1.48 1.16 0.86 0.65 0.56 0.49 0.61 0.50 0.53 0.95 1.79 1.73 0.93 0.72 0.79 1.07 1.40 1.34 1.24 1.18 1.18 1.16 1.05 0.97 0.97 0.90 0.83 0.78 0.72 0.63 0.62 0.62 0.52 0.54 0.55 0.57 0.56 0.56 0.59 0.63 0.70
2.21 3.06 4.18 4.19 2.90 2.23 2.15 1.60 1.18 0.80 0.58 0.59 0.59 0.49 0.57 0.71 0.84 1.30 1.68 1.23 0.84 0.74 0.79 1.18 1.50 1.35 1.25 1.25 1.34 1.30 1.19 1.07 0.97 0.90 0.87 0.82 0.77 0.75 0.80 0.70 0.64 0.65 0.64 0.64 0.66 0.67 0.69 0.74 0.80
2.45 3.48 3.78 3.14 2.39 1.83 1.57 1.30 0.97 0.80 0.56 0.36 0.44 0.58 0.53 0.77 0.96 1.18 1.14 0.83 0.63 0.63 0.68 1.06 1.50 1.36 1.22 1.21 1.35 1.28 1.15 1.14 1.06 1.00 0.96 0.92 0.89 0.92 0.89 0.81 0.78 0.74 0.73 0.71 0.74 0.76 0.82 0.86 0.84
2.69 3.45 3.37 2.94 2.21 1.90 1.42 1.11 0.93 0.90 0.70 0.46 0.41 0.63 0.69 1.03 1.04 1.05 0.99 0.83 0.65 0.63 0.63 0.87 1.31 1.28 1.15 1.14 1.23 1.20 1.15 1.17 1.06 0.99 0.98 0.99 0.98 1.02 1.07 1.02 0.92 0.88 0.86 0.83 0.82 0.80 0.79 0.83 0.91
3.07 3.15 3.17 2.95 2.38 2.11 1.66 1.22 0.88 0.80 0.67 0.53 0.47 0.67 0.92 1.30 1.19 1.14 1.02 0.98 0.84 0.72 0.61 0.73 1.09 1.15 1.09 1.12 1.17 1.17 1.12 1.05 0.92 0.93 0.97 0.99 1.00 1.07 1.13 1.10 1.01 0.99 0.96 0.97 0.96 0.94 0.88 0.88 0.91
2.84 2.80 2.51 2.12 2.25 2.38 1.70 1.08 1.01 0.94 0.86 0.75 0.52 0.74 1.04 1.36 1.19 0.99 0.99 1.10 1.18 1.07 0.89 0.81 0.84 0.89 0.98 1.06 1.10 1.24 1.28 1.07 0.91 0.87 0.88 0.88 0.88 0.92 0.99 1.02 0.98 0.96 0.98 1.00 1.00 0.99 0.97 0.98 0.96
2.32 2.36 2.13 2.05 2.28 2.43 1.46 0.96 0.80 0.77 0.78 0.52 0.42 0.66 0.84 1.01 1.06 1.03 1.00 1.11 1.11 1.08 1.04 0.97 0.95 0.91 0.90 0.93 1.12 1.39 1.50 1.31 1.04 0.92 0.86 0.87 0.83 0.81 0.89 0.89 0.95 0.99 1.05 1.09 1.11 1.09 1.04 1.11 1.13
2.00 2.31 2.34 2.27 2.20 1.92 1.16 0.88 0.68 0.48 0.50 0.45 0.34 0.49 0.62 0.65 0.79 0.97 1.03 1.09 1.05 1.00 1.00 0.94 0.95 0.96 1.06 1.07 1.16 1.42 1.58 1.52 1.15 0.95 0.92 0.83 0.69 0.81 0.87 0.81 1.03 1.13 1.21 1.22 1.25 1.20 1.12 1.14 1.15
2.05 2.24 2.11 1.72 1.52 1.24 0.95 0.81 0.65 0.66 0.74 0.61 0.44 0.52 0.62 0.66 0.71 0.81 0.88 0.85 0.84 0.85 0.84 0.82 0.83 0.80 0.84 0.90 1.23 1.45 1.35 1.42 1.14 1.08 1.00 0.92 0.95 0.99 0.85 0.80 1.04 1.18 1.28 1.26 1.24 1.24 1.17 1.03 0.88
1.74 1.84 1.52 1.32 1.13 0.91 0.83 0.77 0.59 0.70 0.85 0.63 0.45 0.51 0.61 0.68 0.75 0.74 0.80 0.77 0.71 0.72 0.64 0.57 0.61 0.59 0.61 0.72 0.89 1.17 1.42 1.46 1.42 1.36 1.26 1.19 1.10 0.94 0.83 0.82 0.86 0.97 1.07 1.02 1.10 1.11 1.00 0.94 0.87
1.52 1.44 1.25 1.13 0.84 0.88 0.86 0.71 0.62 0.59 0.61 0.46 0.42 0.46 0.54 0.68 0.79 0.74 0.77 0.80 0.75 0.76 0.74 0.59 0.50 0.52 0.52 0.55 0.68 0.92 1.13 1.27 1.28 1.20 1.11 1.29 1.23 1.01 0.90 0.97 0.98 0.98 1.05 1.20 1.24 1.19 1.10 0.99 0.88
1.40 1.45 1.17 0.96 0.84 0.89 0.82 0.74 0.63 0.63 0.53 0.41 0.42 0.52 0.64 0.75 0.83 0.84 0.81 0.82 0.81 0.80 0.83 0.72 0.53 0.46 0.48 0.51 0.56 0.63 0.86 1.01 1.01 1.14 1.11 1.15 1.14 1.02 0.93 0.94 1.08 1.06 1.09 1.25 1.36 1.21 1.15 1.16 1.08
1.22 1.18 1.13 0.97 0.90 0.92 0.91 0.73 0.63 0.75 0.65 0.54 0.58 0.65 0.72 0.78 0.80 0.80 0.76 0.73 0.71 0.70 0.72 0.68 0.58 0.55 0.51 0.48 0.48 0.52 0.56 0.72 0.74 0.77 0.76 0.95 1.07 1.05 1.07 0.98 1.05 1.20 1.25 1.25 1.26 1.23 1.16 1.12 1.14
1.02 1.09 1.22 1.12 1.07 1.04 0.91 0.94 0.73 0.75 0.75 0.63 0.61 0.62 0.71 0.72 0.72 0.72 0.68 0.61 0.58 0.58 0.58 0.60 0.62 0.64 0.62 0.61 0.59 0.56 0.56 0.59 0.66 0.73 0.75 0.88 0.99 1.06 1.07 0.96 1.00 1.15 1.34 1.32 1.26 1.20 1.21 1.07 1.04
1.16 1.43 1.68 1.37 1.16 1.14 1.04 1.11 0.83 0.83 0.78 0.66 0.60 0.56 0.55 0.52 0.53 0.57 0.55 0.49 0.48 0.45 0.43 0.49 0.52 0.56 0.61 0.65 0.68 0.63 0.66 0.68 0.66 0.71 0.71 0.75 0.90 1.06 1.15 1.08 1.03 1.19 1.38 1.53 1.57 1.41 1.35 1.25 1.18
1.48 1.57 1.50 1.40 1.11 1.11 1.03 1.04 0.90 0.78 0.72 0.60 0.54 0.55 0.47 0.41 0.40 0.42 0.41 0.38 0.35 0.34 0.31 0.34 0.40 0.45 0.51 0.58 0.67 0.68 0.70 0.84 0.92 0.81 0.70 0.75 0.89 1.00 1.20 1.28 1.23 1.27 1.43 1.49 1.49 1.51 1.42 1.40 1.34
1.19 1.19 1.18 1.24 1.03 0.94 0.91 0.85 0.87 0.73 0.57 0.49 0.43 0.43 0.41 0.37 0.33 0.33 0.32 0.30 0.30 0.29 0.27 0.29 0.35 0.36 0.38 0.48 0.64 0.74 0.71 0.81 1.03 1.06 1.05 1.09 1.15 1.22 1.37 1.46 1.44 1.44 1.51 1.49 1.61 1.79 1.62 1.45 1.45
0.88 0.89 0.93 0.85 0.72 0.81 0.81 0.76 0.80 0.74 0.59 0.45 0.36 0.34 0.32 0.31 0.33 0.30 0.27 0.25 0.24 0.22 0.22 0.26 0.30 0.33 0.35 0.43 0.54 0.63 0.73 0.91 1.12 1.18 1.25 1.39 1.41 1.43 1.56 1.66 1.69 1.63 1.55 1.61 1.78 2.14 2.03 1.67 1.51
0.81 0.79 0.83 0.74 0.63 0.66 0.74 0.78 0.75 0.67 0.59 0.46 0.36 0.29 0.22 0.24 0.25 0.22 0.21 0.20 0.18 0.14 0.14 0.19 0.28 0.37 0.43 0.49 0.62 0.77 1.01 1.12 1.26 1.42 1.41 1.44 1.49 1.53 1.60 1.81 1.92 1.86 1.84 1.94 1.97 2.20 2.35 2.08 1.88
0.79 0.72 0.66 0.69 0.66 0.63 0.68 0.87 0.81 0.72 0.58 0.46 0.37 0.28 0.20 0.22 0.21 0.16 0.15 0.16 0.15 0.11 0.13 0.19 0.33 0.52 0.73 0.84 1.06 1.33 1.59 1.67 1.60 1.59 1.64 1.63 1.66 1.72 1.70 1.81 2.01 1.98 1.94 1.99 2.17 2.46 2.75 2.66 2.40
0.78 0.55 0.47 0.58 0.69 0.77 0.64 0.87 0.76 0.68 0.62 0.47 0.39 0.33 0.25 0.25 0.26 0.20 0.19 0.18 0.17 0.17 0.25 0.41 0.64 0.94 1.19 1.34 1.53 1.74 1.85 1.89 1.82 1.83 1.81 1.80 1.71 1.65 1.65 1.78 1.98 2.13 2.21 2.26 2.32 2.33 2.68 2.90 2.72
0.62 0.50 0.48 0.57 0.67 0.67 0.56 0.65 0.61 0.55 0.62 0.54 0.49 0.42 0.37 0.34 0.29 0.29 0.32 0.32 0.37 0.46 0.64 0.92 1.17 1.41 1.56 1.61 1.70 1.90 2.05 2.20 2.22 2.10 1.95 1.83 1.80 1.74 1.66 1.71 1.78 1.83 1.92 2.04 2.16 2.24 2.47 2.63 2.76
0.51 0.57 0.60 0.61 0.68 0.75 0.52 0.49 0.57 0.49 0.50 0.54 0.55 0.47 0.41 0.38 0.37 0.45 0.57 0.69 0.80 0.89 1.07 1.27 1.41 1.55 1.55 1.55 1.60 1.73 1.92 2.08 2.10 2.11 2.08 1.94 1.81 1.72 1.63 1.57 1.66 1.69 1.70 1.84 1.95 2.04 2.28 2.46 2.57
0.56 0.69 0.84 0.85 0.83 0.72 0.44 0.49 0.52 0.37 0.36 0.44 0.48 0.47 0.43 0.40 0.47 0.66 0.82 0.95 1.06 1.16 1.26 1.28 1.28 1.33 1.34 1.35 1.39 1.46 1.53 1.55 1.61 1.71 1.64 1.51 1.39 1.35 1.34 1.26 1.32 1.45 1.51 1.70 1.77 1.71 1.76 1.95 2.16
0.51 0.52 0.73 0.83 0.75 0.65 0.49 0.63 0.57 0.39 0.34 0.33 0.37 0.44 0.51 0.63 0.73 0.85 0.94 1.04 1.09 1.22 1.26 1.21 1.18 1.17 1.11 1.05 1.09 1.11 1.15 1.20 1.22 1.23 1.18 1.10 1.06 1.02 0.99 0.98 1.00 1.07 1.16 1.38 1.59 1.57 1.58 1.65 1.75
0.43 0.42 0.44 0.60 0.58 0.60 0.54 0.64 0.58 0.38 0.32 0.31 0.33 0.41 0.55 0.76 1.01 1.16 1.15 1.05 0.97 1.03 1.09 1.07 1.02 0.97 0.89 0.83 0.86 0.89 0.95 0.98 0.95 0.92 0.87 0.85 0.79 0.79 0.76 0.79 0.88 0.94 0.94 1.04 1.17 1.35 1.42 1.49 1.57
0.33 0.36 0.45 0.66 0.76 0.76 0.65 0.70 0.65 0.47 0.38 0.35 0.39 0.49 0.67 0.88 1.08 1.34 1.47 1.34 1.06 0.89 0.91 0.87 0.83 0.85 0.83 0.79 0.81 0.81 0.73 0.67 0.67 0.70 0.64 0.63 0.67 0.71 0.70 0.68 0.69 0.75 0.78 0.87 0.98 1.04 1.15 1.23 1.38
0.34 0.38 0.48 0.63 0.63 0.83 1.06 1.04 0.77 0.65 0.56 0.53 0.58 0.63 0.69 0.98 1.26 1.39 1.43 1.31 1.12 0.85 0.77 0.76 0.72 0.75 0.81 0.73 0.75 0.75 0.65 0.52 0.49 0.48 0.45 0.45 0.49 0.55 0.56 0.59 0.65 0.65 0.67 0.69 0.71 0.77 0.83 0.89 0.99
0.31 0.38 0.51 0.78 0.79 0.75 0.92 0.98 0.63 0.65 0.74 0.67 0.72 0.79 0.80 0.88 0.93 0.94 1.04 1.05 0.98 0.84 0.77 0.82 0.86 0.85 0.77 0.70 0.65 0.62 0.54 0.47 0.46 0.43 0.38 0.40 0.45 0.47 0.49 0.54 0.58 0.58 0.64 0.66 0.66 0.66 0.69 0.78 0.85

GEFSSGP_prec_meanprecacc_204.txt.gz
Total_Precipitation_Accumulation
2.22 2.47 3.25 4.05 4.51 3.39 2.43 1.93 1.60 1.39 1.13 0.86 0.69 0.69 0.98 1.42 1.77 1.78 1.66 1.50 0.94 0.81 0.85 1.18 1.42 1.36 1.23 1.13 1.10 1.08 1.04 1.02 1.03 0.99 0.92 0.81 0.70 0.61 0.60 0.55 0.53 0.54 0.56 0.60 0.62 0.66 0.65 0.64 0.70
1.93 2.64 3.80 4.57 3.78 2.62 2.23 1.76 1.51 1.19 0.91 0.69 0.59 0.50 0.62 0.51 0.54 0.98 1.81 1.76 0.96 0.74 0.82 1.10 1.45 1.39 1.29 1.23 1.23 1.19 1.07 0.99 1.00 0.93 0.88 0.81 0.76 0.67 0.67 0.69 0.59 0.58 0.59 0.60 0.58 0.59 0.64 0.67 0.75
2.22 3.09 4.23 4.24 2.93 2.24 2.18 1.63 1.22 0.85 0.62 0.62 0.62 0.50 0.58 0.73 0.87 1.35 1.72 1.26 0.87 0.75 0.81 1.21 1.55 1.40 1.30 1.29 1.38 1.33 1.20 1.08 0.98 0.91 0.89 0.85 0.84 0.80 0.84 0.75 0.69 0.69 0.68 0.67 0.70 0.71 0.75 0.79 0.85
2.47 3.50 3.81 3.17 2.40 1.84 1.58 1.32 1.00 0.86 0.59 0.38 0.45 0.59 0.54 0.80 0.99 1.21 1.18 0.86 0.65 0.65 0.70 1.09 1.55 1.40 1.26 1.24 1.38 1.31 1.17 1.15 1.06 1.00 0.97 0.95 0.99 1.07 0.95 0.85 0.83 0.78 0.77 0.75 0.79 0.82 0.89 0.93 0.91
2.72 3.47 3.41 2.98 2.23 1.92 1.45 1.13 0.96 0.93 0.73 0.47 0.42 0.65 0.72 1.06 1.11 1.10 1.02 0.86 0.66 0.64 0.66 0.90 1.34 1.31 1.17 1.16 1.25 1.23 1.16 1.18 1.07 1.00 1.00 1.01 1.04 1.17 1.19 1.07 0.96 0.92 0.89 0.87 0.86 0.85 0.84 0.89 0.98
3.12 3.19 3.19 2.97 2.40 2.12 1.68 1.24 0.89 0.81 0.67 0.54 0.49 0.69 0.94 1.34 1.26 1.19 1.04 1.00 0.86 0.74 0.63 0.74 1.12 1.18 1.10 1.14 1.19 1.19 1.13 1.06 0.93 0.94 0.99 1.02 1.03 1.12 1.20 1.16 1.05 1.03 1.00 1.00 0.99 0.97 0.92 0.93 0.96
2.89 2.84 2.54 2.13 2.26 2.40 1.71 1.10 1.02 0.95 0.87 0.76 0.53 0.75 1.05 1.41 1.25 1.01 1.01 1.12 1.21 1.10 0.92 0.83 0.87 0.91 1.00 1.09 1.13 1.26 1.29 1.09 0.93 0.89 0.90 0.90 0.92 0.95 1.03 1.06 1.02 1.00 1.02 1.03 1.03 1.01 1.01 1.04 1.02
2.37 2.40 2.16 2.06 2.29 2.44 1.47 0.96 0.80 0.77 0.78 0.52 0.43 0.66 0.85 1.07 1.15 1.05 1.01 1.13 1.13 1.11 1.06 0.98 0.97 0.93 0.92 0.95 1.15 1.41 1.52 1.33 1.06 0.93 0.87 0.89 0.86 0.85 0.93 0.92 0.98 1.03 1.10 1.13 1.15 1.14 1.08 1.16 1.16
2.03 2.32 2.35 2.28 2.21 1.93 1.17 0.88 0.69 0.48 0.50 0.45 0.35 0.50 0.64 0.70 0.87 1.02 1.07 1.11 1.06 1.02 1.02 0.97 0.96 0.98 1.08 1.09 1.17 1.43 1.58 1.53 1.16 0.96 0.93 0.84 0.70 0.82 0.89 0.83 1.06 1.17 1.26 1.27 1.29 1.25 1.15 1.16 1.18
2.07 2.25 2.12 1.73 1.53 1.25 0.96 0.82 0.65 0.66 0.74 0.61 0.44 0.53 0.65 0.70 0.78 0.87 0.92 0.88 0.86 0.86 0.86 0.85 0.85 0.82 0.85 0.91 1.24 1.45 1.35 1.42 1.14 1.08 1.00 0.92 0.95 1.00 0.85 0.82 1.06 1.21 1.31 1.29 1.27 1.27 1.18 1.05 0.90
1.75 1.85 1.53 1.32 1.13 0.91 0.85 0.79 0.60 0.71 0.86 0.64 0.46 0.52 0.64 0.74 0.82 0.79 0.82 0.79 0.72 0.73 0.65 0.59 0.62 0.60 0.62 0.73 0.89 1.17 1.42 1.46 1.42 1.36 1.26 1.19 1.10 0.94 0.83 0.83 0.87 0.98 1.08 1.03 1.11 1.11 1.01 0.95 0.89
1.53 1.45 1.26 1.14 0.85 0.89 0.88 0.74 0.65 0.61 0.63 0.47 0.43 0.47 0.59 0.74 0.85 0.78 0.79 0.81 0.76 0.77 0.76 0.61 0.52 0.53 0.52 0.55 0.68 0.92 1.14 1.28 1.29 1.20 1.11 1.29 1.23 1.01 0.90 0.97 0.98 0.98 1.05 1.21 1.26 1.20 1.11 1.01 0.91
1.41 1.46 1.18 0.97 0.85 0.90 0.83 0.75 0.64 0.65 0.53 0.42 0.42 0.54 0.69 0.79 0.86 0.86 0.82 0.84 0.82 0.80 0.84 0.74 0.55 0.46 0.49 0.52 0.57 0.64 0.87 1.02 1.01 1.15 1.11 1.15 1.14 1.02 0.93 0.94 1.09 1.06 1.09 1.25 1.37 1.22 1.17 1.18 1.12
1.23 1.19 1.14 0.98 0.90 0.92 0.91 0.74 0.63 0.75 0.65 0.54 0.59 0.67 0.77 0.81 0.82 0.81 0.77 0.75 0.72 0.71 0.74 0.70 0.60 0.56 0.52 0.49 0.49 0.53 0.57 0.73 0.75 0.77 0.76 0.96 1.07 1.06 1.08 0.98 1.05 1.20 1.25 1.25 1.27 1.25 1.18 1.15 1.18
1.02 1.10 1.23 1.13 1.09 1.05 0.91 0.94 0.73 0.76 0.76 0.64 0.61 0.66 0.80 0.75 0.73 0.73 0.69 0.63 0.58 0.59 0.59 0.62 0.63 0.65 0.63 0.61 0.60 0.56 0.57 0.60 0.67 0.75 0.76 0.88 0.99 1.06 1.08 0.97 1.00 1.16 1.36 1.33 1.27 1.22 1.22 1.09 1.07
1.16 1.44 1.68 1.38 1.18 1.16 1.04 1.11 0.83 0.83 0.79 0.67 0.61 0.60 0.66 0.54 0.54 0.58 0.56 0.51 0.49 0.46 0.44 0.51 0.53 0.58 0.63 0.66 0.69 0.64 0.67 0.69 0.67 0.73 0.72 0.75 0.91 1.07 1.16 1.08 1.04 1.20 1.39 1.54 1.59 1.44 1.37 1.26 1.20
1.48 1.58 1.50 1.40 1.12 1.13 1.04 1.04 0.90 0.79 0.72 0.61 0.57 0.58 0.54 0.45 0.41 0.42 0.42 0.39 0.36 0.35 0.32 0.35 0.41 0.46 0.52 0.60 0.67 0.69 0.71 0.85 0.93 0.83 0.71 0.76 0.89 1.01 1.21 1.29 1.24 1.27 1.43 1.49 1.50 1.52 1.43 1.41 1.36
1.19 1.20 1.19 1.25 1.05 0.96 0.92 0.85 0.88 0.74 0.58 0.50 0.46 0.45 0.46 0.41 0.35 0.34 0.32 0.30 0.31 0.30 0.28 0.30 0.36 0.38 0.39 0.49 0.65 0.75 0.72 0.82 1.04 1.07 1.06 1.10 1.16 1.22 1.37 1.46 1.44 1.45 1.51 1.50 1.61 1.80 1.62 1.46 1.47
0.88 0.89 0.93 0.85 0.73 0.82 0.82 0.77 0.81 0.75 0.60 0.46 0.37 0.36 0.34 0.34 0.35 0.31 0.27 0.26 0.26 0.24 0.23 0.27 0.31 0.35 0.36 0.44 0.54 0.63 0.74 0.92 1.12 1.18 1.25 1.40 1.42 1.44 1.56 1.66 1.69 1.63 1.55 1.61 1.78 2.15 2.04 1.68 1.53
0.81 0.79 0.84 0.74 0.64 0.66 0.75 0.79 0.76 0.69 0.61 0.48 0.38 0.30 0.24 0.25 0.26 0.23 0.22 0.20 0.19 0.16 0.16 0.21 0.29 0.38 0.43 0.49 0.63 0.78 1.01 1.13 1.27 1.42 1.42 1.45 1.51 1.54 1.60 1.81 1.92 1.86 1.84 1.94 1.97 2.22 2.36 2.09 1.89
0.79 0.72 0.66 0.69 0.66 0.64 0.69 0.87 0.82 0.74 0.60 0.48 0.39 0.29 0.22 0.23 0.22 0.17 0.16 0.18 0.17 0.14 0.15 0.21 0.34 0.54 0.74 0.84 1.07 1.33 1.59 1.67 1.61 1.60 1.65 1.64 1.66 1.73 1.70 1.82 2.01 1.98 1.94 1.99 2.17 2.47 2.76 2.67 2.41
0.78 0.55 0.48 0.58 0.69 0.77 0.64 0.88 0.77 0.70 0.64 0.50 0.41 0.34 0.25 0.26 0.26 0.21 0.21 0.20 0.18 0.19 0.27 0.42 0.65 0.96 1.21 1.35 1.53 1.74 1.85 1.89 1.83 1.84 1.82 1.80 1.72 1.65 1.66 1.79 1.99 2.13 2.21 2.26 2.32 2.34 2.69 2.92 2.74
0.62 0.50 0.48 0.57 0.67 0.67 0.57 0.68 0.64 0.58 0.64 0.56 0.51 0.45 0.38 0.35 0.30 0.30 0.33 0.34 0.37 0.47 0.65 0.93 1.18 1.42 1.58 1.63 1.71 1.90 2.05 2.21 2.23 2.12 1.96 1.84 1.81 1.75 1.66 1.71 1.79 1.83 1.92 2.04 2.16 2.24 2.47 2.64 2.77
0.51 0.57 0.60 0.61 0.68 0.76 0.53 0.51 0.61 0.53 0.52 0.56 0.57 0.51 0.44 0.40 0.38 0.46 0.59 0.69 0.80 0.90 1.07 1.28 1.42 1.56 1.56 1.56 1.61 1.73 1.92 2.08 2.10 2.12 2.08 1.95 1.82 1.72 1.63 1.57 1.66 1.69 1.70 1.84 1.95 2.04 2.28 2.46 2.58
0.56 0.69 0.85 0.86 0.83 0.72 0.45 0.51 0.55 0.39 0.37 0.45 0.51 0.50 0.46 0.42 0.49 0.68 0.83 0.96 1.07 1.17 1.26 1.29 1.28 1.33 1.34 1.36 1.40 1.47 1.53 1.56 1.62 1.72 1.64 1.51 1.40 1.35 1.35 1.27 1.33 1.45 1.51 1.70 1.77 1.71 1.76 1.95 2.17
0.51 0.53 0.74 0.83 0.75 0.65 0.50 0.65 0.59 0.40 0.34 0.35 0.39 0.47 0.54 0.65 0.75 0.86 0.97 1.06 1.10 1.22 1.27 1.21 1.19 1.18 1.11 1.05 1.10 1.11 1.15 1.20 1.23 1.24 1.19 1.11 1.06 1.03 1.00 0.99 1.01 1.08 1.16 1.38 1.60 1.58 1.59 1.66 1.77
0.43 0.42 0.44 0.60 0.58 0.61 0.55 0.65 0.59 0.38 0.32 0.32 0.34 0.43 0.58 0.77 1.01 1.18 1.18 1.08 0.99 1.04 1.10 1.08 1.03 0.98 0.90 0.84 0.87 0.90 0.96 0.98 0.95 0.92 0.87 0.85 0.79 0.80 0.77 0.80 0.89 0.95 0.94 1.04 1.17 1.35 1.43 1.50 1.58
0.33 0.36 0.45 0.67 0.76 0.78 0.66 0.72 0.66 0.47 0.39 0.35 0.39 0.50 0.69 0.89 1.10 1.36 1.49 1.36 1.08 0.90 0.93 0.89 0.85 0.87 0.85 0.80 0.83 0.83 0.75 0.68 0.68 0.70 0.64 0.63 0.67 0.71 0.71 0.68 0.70 0.76 0.78 0.87 0.98 1.05 1.15 1.23 1.39
0.34 0.39 0.48 0.63 0.64 0.84 1.07 1.06 0.79 0.66 0.56 0.53 0.58 0.64 0.72 1.00 1.29 1.43 1.47 1.33 1.14 0.87 0.79 0.77 0.74 0.77 0.82 0.74 0.76 0.76 0.66 0.53 0.49 0.48 0.46 0.46 0.49 0.55 0.56 0.59 0.65 0.66 0.67 0.69 0.71 0.77 0.83 0.89 1.00
0.31 0.38 0.52 0.78 0.80 0.75 0.94 1.00 0.64 0.66 0.74 0.68 0.73 0.79 0.82 0.91 0.96 0.97 1.07 1.08 1.00 0.86 0.79 0.84 0.88 0.87 0.79 0.70 0.66 0.63 0.56 0.48 0.47 0.44 0.39 0.41 0.46 0.48 0.49 0.55 0.58 0.58 0.64 0.66 0.66 0.66 0.69 0.78 0.86

GEFSSGP_prec_meanprecacc_210.txt.gz
Total_Precipitation_Accumulation
2.23 2.47 3.25 4.05 4.52 3.40 2.45 1.96 1.63 1.43 1.18 0.89 0.71 0.71 1.00 1.44 1.78 1.80 1.69 1.52 0.96 0.83 0.88 1.22 1.46 1.40 1.26 1.17 1.14 1.13 1.09 1.07 1.08 1.06 1.05 0.91 0.78 0.68 0.67 0.65 0.64 0.65 0.65 0.67 0.67 0.71 0.70 0.69 0.74
1.93 2.64 3.80 4.58 3.79 2.63 2.26 1.80 1.56 1.23 0.95 0.71 0.61 0.53 0.64 0.52 0.55 1.00 1.85 1.78 0.98 0.76 0.85 1.15 1.51 1.43 1.34 1.29 1.28 1.24 1.12 1.03 1.03 0.96 0.93 0.89 0.84 0.74 0.74 0.76 0.68 0.67 0.66 0.66 0.63 0.63 0.68 0.72 0.79
2.22 3.09 4.23 4.25 2.94 2.26 2.21 1.67 1.26 0.88 0.65 0.66 0.64 0.52 0.60 0.75 0.90 1.37 1.74 1.29 0.90 0.77 0.84 1.27 1.64 1.47 1.36 1.35 1.44 1.37 1.23 1.10 0.99 0.92 0.90 0.88 0.90 0.86 0.90 0.82 0.76 0.76 0.74 0.72 0.75 0.75 0.80 0.84 0.90
2.47 3.50 3.82 3.18 2.42 1.85 1.61 1.35 1.03 0.89 0.62 0.40 0.48 0.62 0.57 0.83 1.03 1.23 1.19 0.88 0.68 0.67 0.72 1.12 1.60 1.46 1.32 1.29 1.41 1.34 1.19 1.17 1.08 1.02 0.99 0.98 1.03 1.12 1.00 0.91 0.90 0.84 0.83 0.79 0.83 0.85 0.93 0.98 0.97
2.72 3.47 3.41 2.99 2.24 1.93 1.47 1.16 0.98 0.95 0.74 0.48 0.44 0.68 0.75 1.08 1.13 1.12 1.03 0.88 0.69 0.67 0.68 0.94 1.39 1.36 1.22 1.19 1.28 1.26 1.20 1.21 1.09 1.03 1.04 1.05 1.09 1.23 1.29 1.15 1.04 0.99 0.96 0.92 0.90 0.88 0.88 0.93 1.03
3.12 3.19 3.20 2.98 2.42 2.14 1.69 1.25 0.90 0.81 0.68 0.54 0.50 0.71 0.96 1.36 1.29 1.22 1.05 1.02 0.89 0.77 0.67 0.78 1.18 1.24 1.16 1.18 1.22 1.22 1.16 1.08 0.96 0.97 1.02 1.04 1.05 1.17 1.30 1.25 1.15 1.12 1.07 1.06 1.03 1.00 0.96 0.97 1.00
2.90 2.85 2.54 2.15 2.28 2.42 1.74 1.12 1.03 0.95 0.87 0.76 0.54 0.76 1.06 1.43 1.27 1.03 1.02 1.14 1.24 1.12 0.95 0.87 0.91 0.95 1.06 1.15 1.17 1.29 1.32 1.11 0.96 0.91 0.92 0.92 0.94 0.99 1.08 1.13 1.10 1.07 1.09 1.10 1.08 1.06 1.04 1.08 1.06
2.37 2.41 2.16 2.08 2.31 2.47 1.49 0.98 0.82 0.78 0.79 0.53 0.43 0.67 0.86 1.08 1.16 1.06 1.02 1.14 1.15 1.13 1.09 1.01 1.01 0.96 0.96 1.01 1.19 1.43 1.54 1.35 1.08 0.95 0.88 0.90 0.88 0.88 0.99 1.00 1.07 1.10 1.15 1.20 1.22 1.18 1.12 1.19 1.19
2.03 2.32 2.36 2.29 2.22 1.95 1.18 0.89 0.70 0.49 0.51 0.46 0.35 0.51 0.65 0.71 0.88 1.03 1.08 1.12 1.07 1.03 1.04 0.99 1.00 1.02 1.11 1.12 1.19 1.44 1.59 1.54 1.17 0.96 0.94 0.85 0.71 0.84 0.92 0.88 1.13 1.24 1.33 1.34 1.35 1.28 1.18 1.18 1.20
2.07 2.25 2.12 1.74 1.54 1.26 0.96 0.82 0.66 0.67 0.75 0.62 0.45 0.54 0.66 0.71 0.79 0.88 0.94 0.89 0.87 0.87 0.88 0.88 0.88 0.85 0.87 0.92 1.24 1.46 1.35 1.42 1.14 1.08 1.00 0.92 0.96 1.01 0.86 0.84 1.10 1.27 1.38 1.35 1.30 1.29 1.20 1.07 0.92
1.75 1.85 1.53 1.33 1.14 0.92 0.85 0.80 0.61 0.71 0.86 0.65 0.46 0.52 0.65 0.77 0.85 0.81 0.84 0.81 0.75 0.75 0.67 0.62 0.66 0.64 0.65 0.74 0.90 1.18 1.42 1.47 1.42 1.36 1.26 1.20 1.11 0.95 0.84 0.84 0.90 1.02 1.12 1.06 1.12 1.13 1.03 0.97 0.92
1.53 1.46 1.27 1.15 0.85 0.89 0.89 0.74 0.66 0.62 0.64 0.47 0.43 0.48 0.61 0.79 0.90 0.83 0.82 0.83 0.78 0.80 0.78 0.63 0.54 0.55 0.54 0.57 0.69 0.92 1.14 1.28 1.29 1.21 1.11 1.30 1.24 1.01 0.90 0.98 0.99 1.00 1.08 1.24 1.28 1.22 1.12 1.03 0.93
1.41 1.47 1.19 0.98 0.85 0.90 0.83 0.75 0.64 0.65 0.53 0.43 0.43 0.54 0.72 0.83 0.90 0.90 0.86 0.87 0.84 0.83 0.88 0.76 0.58 0.48 0.50 0.52 0.58 0.64 0.88 1.02 1.02 1.16 1.12 1.16 1.15 1.02 0.93 0.95 1.09 1.06 1.10 1.29 1.40 1.25 1.18 1.20 1.14
1.24 1.21 1.15 0.99 0.91 0.92 0.92 0.74 0.63 0.75 0.65 0.55 0.59 0.69 0.82 0.86 0.85 0.84 0.80 0.77 0.74 0.74 0.77 0.72 0.63 0.58 0.53 0.50 0.50 0.53 0.58 0.74 0.76 0.79 0.77 0.96 1.09 1.07 1.08 0.99 1.06 1.21 1.26 1.26 1.29 1.27 1.20 1.17 1.20
1.03 1.11 1.25 1.14 1.09 1.05 0.92 0.95 0.73 0.76 0.77 0.66 0.63 0.68 0.87 0.81 0.77 0.74 0.70 0.64 0.59 0.61 0.62 0.65 0.66 0.68 0.64 0.62 0.61 0.57 0.58 0.61 0.69 0.77 0.77 0.89 1.00 1.07 1.09 0.98 1.01 1.18 1.36 1.33 1.28 1.23 1.25 1.11 1.10
1.17 1.45 1.69 1.39 1.19 1.16 1.05 1.12 0.83 0.84 0.79 0.68 0.64 0.61 0.70 0.61 0.59 0.59 0.57 0.53 0.50 0.47 0.45 0.53 0.55 0.60 0.64 0.67 0.69 0.65 0.69 0.70 0.68 0.74 0.73 0.76 0.92 1.07 1.16 1.09 1.05 1.20 1.39 1.54 1.59 1.44 1.39 1.29 1.24
1.48 1.58 1.50 1.41 1.13 1.14 1.05 1.05 0.90 0.79 0.73 0.62 0.59 0.58 0.56 0.50 0.45 0.44 0.44 0.42 0.38 0.36 0.33 0.37 0.43 0.48 0.55 0.62 0.69 0.69 0.72 0.86 0.94 0.84 0.71 0.76 0.89 1.01 1.21 1.30 1.25 1.28 1.44 1.50 1.51 1.54 1.44 1.43 1.38
1.19 1.20 1.19 1.25 1.05 0.98 0.94 0.86 0.88 0.74 0.59 0.52 0.49 0.48 0.47 0.45 0.37 0.36 0.35 0.34 0.33 0.31 0.29 0.31 0.38 0.39 0.41 0.52 0.67 0.76 0.73 0.83 1.05 1.09 1.08 1.11 1.17 1.22 1.37 1.47 1.46 1.46 1.52 1.50 1.62 1.82 1.64 1.47 1.48
0.88 0.89 0.93 0.86 0.73 0.83 0.83 0.77 0.81 0.76 0.61 0.47 0.40 0.39 0.36 0.37 0.37 0.33 0.29 0.30 0.28 0.26 0.24 0.28 0.34 0.36 0.38 0.45 0.55 0.65 0.75 0.93 1.14 1.20 1.27 1.41 1.43 1.44 1.57 1.68 1.71 1.64 1.56 1.62 1.79 2.16 2.04 1.69 1.53
0.81 0.80 0.84 0.75 0.64 0.67 0.76 0.79 0.77 0.70 0.62 0.49 0.40 0.31 0.26 0.28 0.27 0.24 0.23 0.22 0.21 0.18 0.17 0.22 0.31 0.39 0.44 0.50 0.64 0.78 1.02 1.14 1.28 1.43 1.42 1.45 1.51 1.54 1.60 1.82 1.93 1.86 1.85 1.95 1.99 2.23 2.38 2.10 1.90
0.79 0.72 0.66 0.69 0.66 0.64 0.70 0.88 0.84 0.76 0.61 0.50 0.40 0.31 0.24 0.26 0.23 0.18 0.17 0.18 0.17 0.15 0.18 0.23 0.36 0.56 0.75 0.85 1.08 1.34 1.59 1.68 1.61 1.61 1.66 1.64 1.66 1.73 1.71 1.82 2.02 1.99 1.95 2.01 2.20 2.49 2.78 2.69 2.42
0.79 0.55 0.48 0.58 0.70 0.78 0.65 0.89 0.78 0.72 0.66 0.51 0.43 0.35 0.27 0.28 0.28 0.22 0.21 0.20 0.18 0.20 0.29 0.45 0.67 0.97 1.22 1.36 1.54 1.75 1.86 1.89 1.83 1.85 1.83 1.81 1.72 1.66 1.66 1.79 1.99 2.14 2.22 2.28 2.34 2.35 2.69 2.92 2.75
0.62 0.50 0.48 0.57 0.67 0.68 0.58 0.69 0.65 0.58 0.65 0.57 0.52 0.46 0.39 0.37 0.31 0.31 0.33 0.34 0.38 0.47 0.65 0.94 1.19 1.43 1.59 1.64 1.72 1.91 2.06 2.21 2.23 2.12 1.97 1.85 1.82 1.75 1.67 1.72 1.79 1.83 1.93 2.06 2.17 2.25 2.48 2.65 2.78
0.51 0.57 0.60 0.61 0.68 0.76 0.54 0.53 0.63 0.55 0.54 0.58 0.59 0.51 0.44 0.41 0.39 0.46 0.59 0.70 0.81 0.90 1.08 1.28 1.42 1.56 1.56 1.57 1.62 1.74 1.92 2.08 2.11 2.13 2.09 1.96 1.83 1.73 1.63 1.58 1.67 1.69 1.70 1.84 1.95 2.05 2.30 2.47 2.59
0.56 0.70 0.85 0.86 0.84 0.73 0.46 0.53 0.57 0.41 0.39 0.46 0.52 0.51 0.46 0.43 0.50 0.68 0.83 0.97 1.08 1.18 1.27 1.29 1.29 1.33 1.35 1.37 1.40 1.47 1.53 1.56 1.63 1.73 1.65 1.52 1.41 1.36 1.36 1.28 1.33 1.45 1.51 1.70 1.77 1.71 1.77 1.96 2.18
0.52 0.53 0.74 0.84 0.76 0.66 0.51 0.66 0.60 0.42 0.37 0.36 0.40 0.48 0.55 0.65 0.75 0.87 0.98 1.07 1.11 1.23 1.28 1.22 1.19 1.18 1.11 1.06 1.10 1.12 1.15 1.20 1.23 1.24 1.19 1.11 1.07 1.04 1.01 1.00 1.01 1.08 1.16 1.38 1.60 1.58 1.59 1.67 1.77
0.43 0.43 0.45 0.60 0.58 0.61 0.55 0.66 0.60 0.40 0.35 0.35 0.36 0.45 0.60 0.78 1.02 1.19 1.19 1.09 1.00 1.05 1.12 1.09 1.04 0.98 0.90 0.84 0.87 0.90 0.96 0.98 0.96 0.93 0.88 0.86 0.80 0.80 0.78 0.80 0.90 0.95 0.94 1.04 1.18 1.36 1.44 1.51 1.59
0.34 0.37 0.46 0.67 0.77 0.78 0.66 0.73 0.67 0.48 0.41 0.39 0.42 0.53 0.72 0.90 1.10 1.37 1.50 1.37 1.10 0.92 0.94 0.90 0.86 0.88 0.85 0.81 0.83 0.83 0.75 0.68 0.68 0.70 0.65 0.63 0.67 0.71 0.71 0.68 0.70 0.77 0.79 0.88 0.99 1.05 1.16 1.23 1.39
0.34 0.39 0.49 0.63 0.64 0.84 1.08 1.08 0.80 0.67 0.58 0.56 0.61 0.67 0.76 1.01 1.29 1.43 1.47 1.34 1.15 0.88 0.80 0.78 0.75 0.78 0.82 0.75 0.77 0.77 0.67 0.54 0.50 0.49 0.46 0.46 0.50 0.56 0.57 0.59 0.66 0.66 0.67 0.69 0.71 0.77 0.83 0.90 1.00
0.32 0.39 0.52 0.79 0.80 0.76 0.95 1.01 0.64 0.67 0.76 0.69 0.75 0.84 0.86 0.92 0.96 0.97 1.08 1.08 1.01 0.87 0.80 0.85 0.88 0.88 0.80 0.72 0.67 0.64 0.57 0.49 0.48 0.44 0.40 0.42 0.46 0.49 0.50 0.55 0.59 0.58 0.64 0.66 0.67 0.67 0.69 0.79 0.87

GEFSSGP_prec_meanprecacc_216.txt.gz
Total_Precipitation_Accumulation
2.23 2.48 3.26 4.09 4.61 3.51 2.54 2.03 1.69 1.49 1.23 0.91 0.72 0.73 1.04 1.49 1.83 1.85 1.72 1.54 0.97 0.85 0.91 1.25 1.49 1.42 1.29 1.20 1.17 1.16 1.13 1.11 1.12 1.10 1.12 1.00 0.87 0.75 0.77 0.75 0.72 0.74 0.74 0.74 0.72 0.76 0.77 0.76 0.81
1.93 2.65 3.82 4.64 3.89 2.73 2.34 1.86 1.63 1.29 0.98 0.74 0.62 0.54 0.66 0.55 0.56 1.01 1.87 1.80 0.99 0.76 0.86 1.17 1.55 1.48 1.39 1.34 1.33 1.29 1.17 1.07 1.06 1.00 0.97 0.93 0.89 0.81 0.81 0.86 0.75 0.75 0.73 0.72 0.68 0.69 0.75 0.77 0.86
2.22 3.09 4.27 4.31 3.00 2.32 2.28 1.73 1.30 0.91 0.67 0.69 0.67 0.54 0.63 0.79 0.92 1.38 1.75 1.30 0.91 0.78 0.85 1.29 1.68 1.52 1.43 1.40 1.49 1.41 1.26 1.12 1.02 0.94 0.93 0.90 0.93 0.92 0.96 0.90 0.83 0.81 0.79 0.76 0.81 0.81 0.86 0.89 0.96
2.48 3.53 3.86 3.25 2.47 1.90 1.65 1.38 1.06 0.91 0.63 0.41 0.51 0.66 0.59 0.85 1.04 1.24 1.20 0.89 0.69 0.68 0.74 1.14 1.64 1.51 1.37 1.32 1.44 1.36 1.21 1.19 1.10 1.03 1.01 1.01 1.08 1.18 1.07 1.00 0.97 0.89 0.88 0.83 0.88 0.92 0.98 1.01 1.02
2.74 3.51 3.47 3.07 2.30 1.97 1.48 1.17 0.99 0.96 0.75 0.48 0.46 0.72 0.77 1.09 1.14 1.12 1.04 0.88 0.70 0.68 0.70 0.96 1.43 1.42 1.27 1.22 1.30 1.28 1.22 1.23 1.11 1.05 1.06 1.08 1.12 1.27 1.34 1.22 1.11 1.05 1.02 0.97 0.95 0.94 0.93 0.97 1.07
3.15 3.23 3.26 3.06 2.48 2.18 1.70 1.26 0.91 0.82 0.69 0.55 0.51 0.73 0.99 1.39 1.30 1.22 1.05 1.02 0.90 0.78 0.68 0.81 1.23 1.29 1.20 1.22 1.25 1.24 1.19 1.11 0.98 0.99 1.04 1.06 1.07 1.19 1.34 1.30 1.22 1.19 1.12 1.11 1.09 1.07 1.02 1.01 1.03
2.92 2.88 2.59 2.20 2.33 2.46 1.76 1.12 1.04 0.96 0.88 0.77 0.54 0.78 1.08 1.45 1.29 1.04 1.03 1.15 1.26 1.13 0.95 0.89 0.96 1.00 1.10 1.20 1.22 1.33 1.35 1.14 0.97 0.92 0.93 0.93 0.95 1.01 1.11 1.16 1.15 1.13 1.14 1.14 1.13 1.11 1.09 1.12 1.08
2.39 2.44 2.19 2.11 2.35 2.50 1.51 0.99 0.83 0.78 0.79 0.53 0.45 0.70 0.88 1.09 1.16 1.07 1.04 1.15 1.18 1.15 1.11 1.04 1.04 0.99 0.99 1.06 1.25 1.47 1.57 1.37 1.09 0.96 0.89 0.92 0.89 0.90 1.02 1.04 1.13 1.17 1.21 1.25 1.26 1.22 1.15 1.22 1.22
2.04 2.35 2.39 2.32 2.25 1.98 1.19 0.90 0.71 0.50 0.52 0.46 0.36 0.52 0.66 0.71 0.89 1.06 1.10 1.14 1.10 1.06 1.07 1.02 1.03 1.06 1.15 1.18 1.24 1.48 1.62 1.55 1.18 0.97 0.95 0.87 0.74 0.87 0.94 0.90 1.17 1.29 1.38 1.40 1.41 1.33 1.22 1.20 1.22
2.09 2.27 2.14 1.75 1.54 1.27 0.97 0.84 0.67 0.68 0.76 0.62 0.45 0.54 0.66 0.72 0.80 0.93 0.98 0.92 0.90 0.89 0.90 0.90 0.90 0.89 0.92 0.97 1.28 1.50 1.37 1.44 1.15 1.09 1.02 0.94 0.98 1.03 0.88 0.86 1.13 1.30 1.40 1.38 1.34 1.33 1.24 1.11 0.95
1.76 1.86 1.54 1.34 1.14 0.92 0.86 0.80 0.61 0.72 0.87 0.66 0.47 0.53 0.66 0.78 0.87 0.84 0.86 0.82 0.76 0.76 0.68 0.64 0.67 0.67 0.69 0.79 0.94 1.21 1.45 1.49 1.43 1.37 1.28 1.22 1.13 0.97 0.86 0.88 0.94 1.06 1.15 1.09 1.16 1.18 1.09 1.01 0.95
1.54 1.47 1.27 1.15 0.86 0.89 0.89 0.75 0.66 0.63 0.65 0.48 0.43 0.48 0.61 0.80 0.92 0.85 0.84 0.84 0.80 0.82 0.79 0.64 0.55 0.56 0.56 0.60 0.73 0.95 1.16 1.30 1.30 1.22 1.12 1.31 1.26 1.04 0.94 1.01 1.05 1.07 1.14 1.29 1.33 1.28 1.17 1.06 0.97
1.42 1.48 1.19 0.98 0.85 0.90 0.84 0.76 0.65 0.66 0.54 0.43 0.43 0.55 0.73 0.84 0.92 0.92 0.88 0.89 0.86 0.87 0.89 0.78 0.58 0.49 0.51 0.54 0.60 0.66 0.89 1.03 1.03 1.17 1.13 1.17 1.17 1.05 0.96 0.97 1.12 1.11 1.15 1.35 1.44 1.29 1.21 1.24 1.18
1.25 1.21 1.15 0.99 0.91 0.92 0.92 0.75 0.64 0.76 0.66 0.55 0.60 0.69 0.83 0.88 0.88 0.86 0.81 0.79 0.77 0.77 0.79 0.74 0.64 0.59 0.54 0.52 0.51 0.54 0.59 0.75 0.77 0.79 0.78 0.97 1.10 1.08 1.10 1.01 1.09 1.24 1.29 1.31 1.34 1.30 1.23 1.22 1.25
1.03 1.11 1.25 1.15 1.10 1.06 0.93 0.97 0.75 0.76 0.77 0.66 0.64 0.68 0.88 0.84 0.80 0.76 0.72 0.66 0.61 0.63 0.64 0.67 0.68 0.69 0.65 0.64 0.63 0.58 0.60 0.63 0.70 0.78 0.78 0.89 1.01 1.08 1.10 1.00 1.03 1.20 1.39 1.35 1.31 1.26 1.29 1.17 1.14
1.18 1.45 1.71 1.40 1.20 1.17 1.06 1.17 0.85 0.85 0.80 0.69 0.65 0.62 0.71 0.62 0.61 0.61 0.58 0.54 0.51 0.48 0.47 0.55 0.58 0.62 0.66 0.68 0.71 0.66 0.70 0.72 0.69 0.76 0.74 0.76 0.92 1.08 1.17 1.10 1.06 1.22 1.41 1.56 1.61 1.46 1.41 1.32 1.26
1.49 1.59 1.52 1.42 1.14 1.16 1.08 1.09 0.92 0.80 0.74 0.63 0.61 0.61 0.57 0.51 0.48 0.47 0.45 0.43 0.39 0.37 0.34 0.38 0.45 0.51 0.57 0.64 0.71 0.71 0.74 0.88 0.95 0.86 0.73 0.77 0.89 1.01 1.22 1.32 1.26 1.29 1.45 1.50 1.51 1.54 1.46 1.45 1.41
1.20 1.20 1.20 1.26 1.06 0.99 0.96 0.88 0.89 0.75 0.60 0.53 0.52 0.51 0.49 0.46 0.38 0.37 0.36 0.36 0.34 0.32 0.30 0.32 0.40 0.41 0.43 0.53 0.68 0.78 0.75 0.84 1.06 1.10 1.09 1.12 1.17 1.22 1.38 1.49 1.48 1.48 1.54 1.51 1.63 1.83 1.65 1.48 1.50
0.89 0.90 0.93 0.86 0.74 0.85 0.85 0.79 0.83 0.76 0.62 0.49 0.43 0.44 0.41 0.39 0.38 0.33 0.30 0.32 0.30 0.27 0.25 0.29 0.35 0.38 0.39 0.46 0.57 0.67 0.77 0.95 1.15 1.21 1.28 1.42 1.44 1.44 1.57 1.69 1.73 1.66 1.58 1.64 1.81 2.17 2.06 1.70 1.54
0.82 0.80 0.84 0.75 0.65 0.68 0.77 0.81 0.79 0.72 0.64 0.52 0.43 0.34 0.30 0.33 0.29 0.24 0.25 0.26 0.23 0.21 0.20 0.24 0.33 0.42 0.47 0.52 0.66 0.80 1.03 1.14 1.29 1.44 1.43 1.45 1.51 1.54 1.61 1.83 1.96 1.88 1.87 1.97 2.01 2.25 2.40 2.12 1.92
0.80 0.73 0.67 0.70 0.67 0.65 0.70 0.90 0.85 0.77 0.64 0.52 0.43 0.33 0.25 0.30 0.27 0.19 0.19 0.22 0.20 0.18 0.20 0.25 0.38 0.59 0.78 0.86 1.08 1.35 1.61 1.68 1.62 1.62 1.67 1.65 1.67 1.74 1.71 1.83 2.03 2.01 1.97 2.03 2.22 2.52 2.81 2.72 2.44
0.80 0.55 0.48 0.59 0.71 0.80 0.66 0.93 0.81 0.75 0.68 0.53 0.44 0.37 0.29 0.32 0.33 0.24 0.23 0.22 0.20 0.22 0.30 0.47 0.69 0.99 1.23 1.37 1.55 1.76 1.87 1.91 1.84 1.85 1.84 1.82 1.73 1.66 1.66 1.79 2.00 2.14 2.23 2.30 2.37 2.37 2.72 2.96 2.79
0.63 0.50 0.48 0.58 0.68 0.70 0.59 0.72 0.68 0.60 0.66 0.57 0.52 0.47 0.41 0.40 0.36 0.33 0.34 0.35 0.39 0.48 0.67 0.96 1.21 1.44 1.60 1.65 1.73 1.91 2.06 2.22 2.24 2.13 1.98 1.86 1.83 1.76 1.67 1.73 1.80 1.84 1.94 2.07 2.19 2.27 2.50 2.68 2.82
0.52 0.57 0.61 0.62 0.70 0.79 0.56 0.56 0.67 0.56 0.55 0.59 0.60 0.52 0.46 0.43 0.42 0.48 0.60 0.71 0.82 0.91 1.08 1.29 1.43 1.57 1.57 1.57 1.62 1.75 1.93 2.09 2.12 2.14 2.12 1.98 1.85 1.74 1.64 1.59 1.67 1.69 1.70 1.85 1.96 2.07 2.31 2.49 2.60
0.57 0.72 0.89 0.90 0.88 0.76 0.47 0.55 0.59 0.42 0.39 0.47 0.53 0.52 0.47 0.44 0.51 0.69 0.84 0.97 1.09 1.18 1.27 1.30 1.30 1.34 1.36 1.37 1.41 1.47 1.54 1.58 1.64 1.75 1.68 1.55 1.44 1.38 1.37 1.28 1.33 1.46 1.52 1.70 1.78 1.72 1.78 1.97 2.19
0.52 0.54 0.77 0.88 0.79 0.68 0.52 0.68 0.61 0.43 0.39 0.37 0.41 0.48 0.56 0.67 0.76 0.88 0.98 1.07 1.11 1.23 1.28 1.23 1.20 1.19 1.12 1.06 1.11 1.12 1.16 1.21 1.23 1.25 1.21 1.13 1.09 1.06 1.03 1.02 1.02 1.09 1.17 1.39 1.61 1.59 1.60 1.67 1.78
0.44 0.43 0.45 0.61 0.59 0.63 0.58 0.68 0.61 0.42 0.38 0.37 0.37 0.46 0.61 0.79 1.02 1.19 1.19 1.09 1.00 1.05 1.12 1.09 1.05 1.00 0.91 0.85 0.88 0.91 0.96 0.98 0.96 0.94 0.88 0.87 0.81 0.81 0.79 0.82 0.90 0.96 0.95 1.04 1.18 1.37 1.44 1.51 1.59
0.34 0.37 0.47 0.69 0.80 0.81 0.69 0.75 0.70 0.52 0.45 0.41 0.45 0.58 0.74 0.91 1.10 1.37 1.50 1.37 1.10 0.92 0.95 0.90 0.87 0.89 0.87 0.82 0.84 0.84 0.76 0.69 0.68 0.71 0.65 0.64 0.69 0.72 0.72 0.69 0.71 0.78 0.80 0.88 0.99 1.05 1.16 1.24 1.40
0.35 0.40 0.50 0.65 0.66 0.87 1.11 1.11 0.82 0.70 0.61 0.58 0.64 0.71 0.79 1.02 1.30 1.43 1.47 1.34 1.16 0.88 0.81 0.79 0.76 0.78 0.84 0.77 0.79 0.80 0.68 0.55 0.50 0.49 0.47 0.46 0.50 0.57 0.57 0.59 0.66 0.67 0.69 0.70 0.72 0.77 0.83 0.90 1.00
0.32 0.39 0.53 0.81 0.82 0.77 0.98 1.03 0.65 0.68 0.77 0.71 0.77 0.86 0.89 0.94 0.97 0.98 1.08 1.09 1.01 0.88 0.80 0.85 0.89 0.89 0.81 0.73 0.71 0.69 0.60 0.51 0.49 0.45 0.41 0.42 0.47 0.50 0.50 0.55 0.59 0.58 0.64 0.67 0.67 0.67 0.69 0.79 0.88

GEFSSGP_prec_meanprecacc_222.txt.gz
Total_Precipitation_Accumulation
2.23 2.50 3.30 4.14 4.69 3.57 2.58 2.09 1.75 1.54 1.27 0.96 0.75 0.76 1.07 1.52 1.86 1.87 1.74 1.56 0.99 0.87 0.94 1.30 1.54 1.46 1.33 1.24 1.20 1.20 1.16 1.15 1.15 1.14 1.14 1.03 0.90 0.79 0.85 0.84 0.79 0.80 0.79 0.78 0.76 0.79 0.80 0.78 0.83
1.94 2.68 3.86 4.72 3.97 2.78 2.37 1.92 1.68 1.34 1.02 0.77 0.66 0.58 0.69 0.57 0.56 1.01 1.89 1.82 1.00 0.77 0.87 1.21 1.60 1.52 1.43 1.37 1.37 1.33 1.20 1.11 1.09 1.03 0.99 0.96 0.92 0.84 0.86 0.92 0.82 0.82 0.78 0.76 0.72 0.72 0.78 0.80 0.88
2.23 3.11 4.30 4.36 3.05 2.36 2.31 1.77 1.32 0.93 0.68 0.71 0.71 0.57 0.66 0.81 0.92 1.40 1.78 1.30 0.91 0.78 0.86 1.33 1.73 1.58 1.47 1.45 1.52 1.43 1.27 1.14 1.03 0.96 0.94 0.93 0.97 0.96 1.00 0.93 0.86 0.85 0.83 0.79 0.85 0.85 0.90 0.92 1.00
2.49 3.56 3.92 3.31 2.52 1.94 1.68 1.41 1.07 0.92 0.64 0.42 0.53 0.68 0.61 0.87 1.05 1.27 1.22 0.89 0.69 0.68 0.74 1.17 1.68 1.55 1.40 1.36 1.47 1.39 1.23 1.21 1.11 1.05 1.02 1.03 1.12 1.23 1.12 1.03 0.99 0.91 0.90 0.85 0.90 0.94 1.00 1.05 1.07
2.75 3.54 3.52 3.13 2.35 2.00 1.50 1.18 1.00 0.96 0.76 0.50 0.48 0.75 0.79 1.12 1.15 1.15 1.06 0.89 0.70 0.68 0.71 0.98 1.46 1.45 1.30 1.25 1.33 1.30 1.24 1.25 1.13 1.07 1.09 1.10 1.15 1.31 1.38 1.26 1.14 1.08 1.05 1.00 0.97 0.96 0.96 1.01 1.11
3.16 3.25 3.30 3.09 2.53 2.21 1.72 1.27 0.91 0.82 0.69 0.55 0.52 0.77 1.03 1.42 1.33 1.26 1.09 1.03 0.91 0.78 0.69 0.82 1.25 1.31 1.21 1.23 1.26 1.25 1.20 1.12 0.99 1.00 1.06 1.08 1.10 1.23 1.38 1.35 1.26 1.21 1.16 1.15 1.13 1.11 1.05 1.04 1.06
2.95 2.90 2.62 2.22 2.35 2.49 1.79 1.14 1.05 0.97 0.88 0.77 0.56 0.81 1.12 1.49 1.33 1.08 1.06 1.17 1.27 1.13 0.96 0.90 0.97 1.02 1.11 1.20 1.23 1.33 1.36 1.15 0.98 0.93 0.94 0.95 0.98 1.05 1.16 1.22 1.21 1.18 1.19 1.19 1.17 1.16 1.13 1.14 1.12
2.40 2.45 2.20 2.12 2.36 2.52 1.54 1.00 0.84 0.79 0.80 0.54 0.47 0.72 0.92 1.13 1.20 1.12 1.09 1.20 1.21 1.17 1.11 1.04 1.05 1.00 0.99 1.07 1.25 1.48 1.58 1.38 1.10 0.97 0.91 0.93 0.93 0.94 1.07 1.10 1.19 1.23 1.25 1.30 1.31 1.27 1.18 1.25 1.25
2.06 2.37 2.40 2.33 2.26 1.99 1.21 0.92 0.73 0.51 0.53 0.47 0.38 0.55 0.69 0.73 0.92 1.10 1.15 1.19 1.15 1.10 1.10 1.03 1.04 1.06 1.16 1.18 1.25 1.50 1.63 1.56 1.19 0.98 0.96 0.88 0.75 0.88 0.96 0.94 1.22 1.34 1.43 1.44 1.46 1.38 1.26 1.24 1.24
2.10 2.29 2.15 1.75 1.55 1.27 0.98 0.85 0.68 0.70 0.78 0.66 0.49 0.58 0.71 0.76 0.84 0.98 1.04 0.97 0.95 0.93 0.94 0.93 0.92 0.90 0.93 0.98 1.30 1.51 1.39 1.45 1.16 1.10 1.03 0.95 0.98 1.03 0.89 0.88 1.16 1.34 1.45 1.43 1.40 1.39 1.29 1.13 0.96
1.77 1.87 1.54 1.34 1.14 0.92 0.86 0.81 0.62 0.73 0.90 0.68 0.50 0.57 0.71 0.82 0.92 0.91 0.91 0.86 0.81 0.82 0.72 0.67 0.70 0.69 0.71 0.81 0.97 1.24 1.47 1.50 1.44 1.38 1.28 1.23 1.14 0.97 0.87 0.89 0.96 1.08 1.17 1.11 1.19 1.21 1.11 1.02 0.96
1.54 1.47 1.28 1.15 0.86 0.89 0.89 0.75 0.67 0.65 0.68 0.49 0.44 0.50 0.64 0.82 0.94 0.87 0.87 0.88 0.84 0.88 0.86 0.68 0.59 0.60 0.58 0.62 0.76 0.98 1.18 1.30 1.30 1.23 1.13 1.32 1.26 1.04 0.95 1.03 1.07 1.08 1.15 1.31 1.36 1.30 1.20 1.09 0.98
1.43 1.48 1.20 0.98 0.85 0.90 0.84 0.76 0.66 0.66 0.55 0.44 0.44 0.56 0.74 0.87 0.93 0.94 0.89 0.91 0.90 0.90 0.94 0.81 0.62 0.53 0.55 0.56 0.61 0.68 0.91 1.04 1.04 1.18 1.13 1.17 1.17 1.05 0.98 0.99 1.14 1.13 1.17 1.37 1.49 1.32 1.25 1.27 1.21
1.25 1.21 1.15 0.99 0.91 0.93 0.93 0.76 0.65 0.77 0.67 0.56 0.60 0.71 0.87 0.92 0.90 0.87 0.83 0.80 0.79 0.78 0.81 0.77 0.67 0.62 0.58 0.54 0.52 0.55 0.60 0.76 0.78 0.80 0.79 0.98 1.11 1.09 1.12 1.02 1.10 1.25 1.30 1.35 1.40 1.34 1.26 1.26 1.28
1.03 1.12 1.25 1.15 1.10 1.07 0.94 0.99 0.78 0.79 0.79 0.67 0.65 0.70 0.90 0.86 0.83 0.79 0.73 0.67 0.62 0.64 0.66 0.70 0.71 0.72 0.67 0.65 0.64 0.60 0.61 0.64 0.71 0.79 0.80 0.90 1.02 1.09 1.11 1.01 1.05 1.22 1.40 1.38 1.35 1.30 1.32 1.20 1.15
1.18 1.46 1.71 1.40 1.20 1.18 1.08 1.20 0.87 0.87 0.82 0.72 0.67 0.64 0.73 0.64 0.63 0.64 0.61 0.56 0.52 0.50 0.49 0.57 0.60 0.65 0.68 0.70 0.73 0.68 0.71 0.72 0.69 0.76 0.75 0.77 0.92 1.08 1.17 1.11 1.07 1.23 1.43 1.58 1.63 1.51 1.45 1.34 1.28
1.50 1.60 1.53 1.43 1.15 1.16 1.09 1.11 0.94 0.82 0.77 0.67 0.64 0.63 0.59 0.53 0.51 0.53 0.51 0.46 0.40 0.38 0.36 0.40 0.46 0.52 0.59 0.66 0.73 0.73 0.76 0.89 0.96 0.86 0.73 0.78 0.90 1.02 1.22 1.32 1.27 1.30 1.47 1.52 1.53 1.57 1.47 1.46 1.42
1.21 1.22 1.22 1.29 1.08 1.00 0.97 0.90 0.92 0.77 0.62 0.56 0.55 0.55 0.51 0.48 0.41 0.41 0.42 0.40 0.36 0.34 0.30 0.33 0.41 0.43 0.45 0.55 0.70 0.80 0.77 0.86 1.08 1.11 1.10 1.14 1.19 1.23 1.38 1.50 1.49 1.49 1.55 1.53 1.64 1.84 1.66 1.49 1.50
0.89 0.90 0.96 0.88 0.75 0.86 0.86 0.80 0.85 0.78 0.64 0.50 0.47 0.50 0.46 0.43 0.42 0.36 0.32 0.35 0.33 0.29 0.26 0.29 0.36 0.40 0.41 0.48 0.59 0.69 0.79 0.97 1.18 1.23 1.30 1.45 1.45 1.46 1.58 1.70 1.74 1.67 1.59 1.65 1.82 2.18 2.07 1.71 1.55
0.82 0.82 0.86 0.76 0.65 0.69 0.78 0.82 0.81 0.73 0.65 0.54 0.46 0.38 0.37 0.37 0.34 0.28 0.27 0.28 0.26 0.24 0.22 0.25 0.34 0.44 0.49 0.53 0.66 0.81 1.03 1.15 1.31 1.47 1.46 1.49 1.53 1.57 1.63 1.84 1.96 1.90 1.88 1.97 2.01 2.26 2.41 2.13 1.94
0.80 0.74 0.69 0.72 0.68 0.66 0.71 0.92 0.87 0.79 0.65 0.53 0.44 0.34 0.28 0.32 0.30 0.22 0.22 0.26 0.23 0.22 0.24 0.27 0.40 0.60 0.79 0.87 1.09 1.36 1.62 1.69 1.63 1.64 1.70 1.68 1.70 1.76 1.72 1.84 2.03 2.02 1.99 2.03 2.22 2.53 2.83 2.73 2.47
0.81 0.56 0.50 0.60 0.72 0.81 0.67 0.95 0.83 0.77 0.69 0.53 0.44 0.38 0.31 0.34 0.37 0.28 0.26 0.28 0.25 0.26 0.34 0.50 0.72 1.01 1.25 1.38 1.56 1.77 1.88 1.92 1.85 1.87 1.86 1.84 1.75 1.67 1.67 1.80 2.00 2.15 2.24 2.31 2.38 2.38 2.73 2.97 2.81
0.64 0.51 0.50 0.59 0.69 0.71 0.61 0.73 0.69 0.61 0.67 0.58 0.53 0.48 0.42 0.41 0.40 0.40 0.39 0.43 0.44 0.53 0.71 1.00 1.25 1.47 1.61 1.66 1.74 1.92 2.07 2.23 2.25 2.15 2.00 1.88 1.84 1.77 1.68 1.73 1.80 1.85 1.94 2.09 2.21 2.28 2.51 2.69 2.83
0.52 0.58 0.62 0.63 0.71 0.80 0.57 0.57 0.69 0.58 0.56 0.59 0.60 0.52 0.47 0.44 0.44 0.52 0.65 0.76 0.86 0.95 1.12 1.33 1.46 1.60 1.60 1.59 1.63 1.75 1.93 2.10 2.14 2.16 2.13 1.99 1.86 1.75 1.65 1.59 1.68 1.70 1.71 1.86 1.98 2.08 2.32 2.50 2.61
0.57 0.73 0.92 0.93 0.90 0.78 0.48 0.57 0.60 0.43 0.41 0.48 0.53 0.52 0.48 0.45 0.52 0.71 0.87 1.00 1.12 1.22 1.31 1.33 1.31 1.36 1.41 1.40 1.42 1.48 1.55 1.59 1.65 1.76 1.69 1.56 1.45 1.39 1.37 1.29 1.34 1.47 1.52 1.71 1.79 1.73 1.79 1.98 2.19
0.52 0.55 0.79 0.90 0.80 0.69 0.53 0.70 0.63 0.45 0.42 0.39 0.43 0.49 0.57 0.68 0.78 0.90 1.00 1.10 1.13 1.26 1.30 1.24 1.21 1.20 1.14 1.10 1.13 1.13 1.17 1.22 1.25 1.26 1.22 1.14 1.10 1.07 1.04 1.03 1.04 1.11 1.18 1.40 1.62 1.60 1.61 1.68 1.78
0.44 0.43 0.46 0.62 0.61 0.64 0.59 0.69 0.63 0.43 0.41 0.40 0.40 0.49 0.63 0.81 1.04 1.21 1.20 1.10 1.03 1.08 1.14 1.11 1.06 1.00 0.93 0.87 0.91 0.92 0.98 1.00 0.97 0.95 0.90 0.89 0.83 0.82 0.80 0.83 0.93 0.99 0.97 1.06 1.21 1.39 1.46 1.52 1.60
0.34 0.38 0.47 0.69 0.81 0.83 0.70 0.77 0.72 0.54 0.48 0.45 0.48 0.60 0.77 0.92 1.11 1.38 1.51 1.38 1.11 0.94 0.97 0.93 0.89 0.91 0.89 0.84 0.87 0.86 0.78 0.71 0.70 0.73 0.67 0.66 0.71 0.74 0.74 0.71 0.73 0.80 0.82 0.91 1.02 1.07 1.18 1.25 1.40
0.35 0.40 0.50 0.65 0.67 0.88 1.12 1.11 0.83 0.71 0.63 0.62 0.67 0.74 0.80 1.02 1.30 1.44 1.48 1.34 1.16 0.89 0.83 0.81 0.78 0.81 0.85 0.79 0.82 0.83 0.72 0.58 0.54 0.52 0.49 0.50 0.53 0.58 0.59 0.61 0.68 0.69 0.72 0.73 0.74 0.79 0.84 0.91 1.01
0.32 0.40 0.53 0.81 0.82 0.78 0.98 1.03 0.66 0.69 0.79 0.73 0.80 0.89 0.91 0.95 0.97 0.98 1.08 1.09 1.02 0.88 0.81 0.86 0.90 0.90 0.82 0.75 0.74 0.74 0.65 0.55 0.56 0.51 0.43 0.46 0.50 0.52 0.53 0.58 0.61 0.61 0.67 0.70 0.69 0.68 0.70 0.80 0.88

GEFSSGP_prec_meanprecacc_228.txt.gz
Total_Precipitation_Accumulation
2.24 2.52 3.33 4.17 4.71 3.58 2.59 2.12 1.80 1.58 1.31 0.99 0.79 0.80 1.10 1.55 1.87 1.88 1.75 1.57 1.00 0.89 0.96 1.36 1.61 1.52 1.39 1.29 1.26 1.25 1.21 1.20 1.20 1.20 1.19 1.08 0.96 0.91 1.00 0.99 0.91 0.88 0.85 0.84 0.83 0.87 0.86 0.83 0.88
1.95 2.69 3.88 4.74 3.98 2.78 2.38 1.93 1.70 1.40 1.06 0.81 0.70 0.62 0.72 0.59 0.57 1.02 1.90 1.83 1.02 0.79 0.89 1.26 1.71 1.61 1.49 1.45 1.45 1.42 1.27 1.16 1.13 1.06 1.02 1.00 0.97 0.93 0.95 1.03 0.93 0.92 0.85 0.81 0.77 0.77 0.82 0.85 0.92
2.24 3.12 4.31 4.37 3.06 2.36 2.33 1.79 1.34 0.95 0.71 0.75 0.76 0.64 0.69 0.82 0.93 1.42 1.79 1.31 0.94 0.80 0.88 1.39 1.84 1.66 1.54 1.50 1.59 1.51 1.34 1.19 1.06 0.99 0.97 0.96 1.01 1.03 1.05 0.97 0.92 0.92 0.88 0.84 0.89 0.90 0.94 0.96 1.06
2.49 3.57 3.93 3.32 2.53 1.94 1.69 1.42 1.08 0.93 0.65 0.43 0.57 0.73 0.64 0.89 1.07 1.29 1.24 0.91 0.70 0.69 0.77 1.23 1.76 1.61 1.45 1.39 1.51 1.45 1.29 1.25 1.15 1.09 1.06 1.06 1.16 1.31 1.19 1.06 1.02 0.96 0.95 0.90 0.94 0.99 1.05 1.10 1.14
2.76 3.54 3.52 3.14 2.36 2.01 1.50 1.18 1.00 0.97 0.77 0.51 0.50 0.77 0.84 1.16 1.17 1.18 1.09 0.91 0.71 0.69 0.73 1.01 1.49 1.48 1.33 1.28 1.36 1.34 1.27 1.28 1.15 1.11 1.13 1.14 1.19 1.35 1.45 1.33 1.19 1.13 1.10 1.04 1.02 1.01 1.01 1.07 1.17
3.18 3.26 3.30 3.09 2.54 2.22 1.73 1.27 0.92 0.83 0.70 0.56 0.54 0.79 1.06 1.47 1.37 1.31 1.13 1.06 0.93 0.79 0.70 0.84 1.27 1.34 1.25 1.27 1.29 1.26 1.22 1.15 1.01 1.02 1.11 1.12 1.13 1.26 1.43 1.42 1.34 1.28 1.21 1.20 1.18 1.16 1.11 1.11 1.12
2.95 2.90 2.62 2.23 2.37 2.50 1.80 1.15 1.05 0.98 0.89 0.78 0.56 0.82 1.14 1.53 1.40 1.14 1.11 1.21 1.31 1.16 0.98 0.91 1.00 1.05 1.13 1.23 1.25 1.35 1.38 1.18 1.00 0.95 0.97 0.99 1.02 1.10 1.21 1.29 1.29 1.24 1.25 1.25 1.22 1.22 1.21 1.22 1.18
2.41 2.45 2.21 2.13 2.37 2.53 1.55 1.01 0.85 0.80 0.81 0.54 0.48 0.74 0.96 1.17 1.27 1.21 1.16 1.25 1.26 1.21 1.15 1.07 1.07 1.02 1.01 1.09 1.28 1.51 1.60 1.41 1.13 1.00 0.93 0.97 0.96 0.98 1.12 1.17 1.27 1.30 1.31 1.36 1.37 1.33 1.25 1.31 1.30
2.06 2.37 2.40 2.33 2.26 1.99 1.21 0.92 0.73 0.53 0.55 0.49 0.39 0.58 0.74 0.78 0.98 1.18 1.20 1.22 1.18 1.14 1.14 1.06 1.07 1.09 1.17 1.19 1.27 1.52 1.67 1.60 1.21 1.00 0.97 0.89 0.76 0.90 1.01 0.99 1.28 1.42 1.51 1.52 1.52 1.44 1.32 1.29 1.28
2.10 2.29 2.15 1.75 1.55 1.28 0.98 0.85 0.69 0.71 0.79 0.68 0.51 0.59 0.75 0.81 0.89 1.05 1.10 1.01 0.97 0.96 0.98 0.98 0.96 0.93 0.96 1.00 1.32 1.54 1.42 1.48 1.19 1.12 1.04 0.96 0.99 1.04 0.92 0.91 1.20 1.41 1.53 1.52 1.47 1.44 1.33 1.15 0.97
1.77 1.87 1.54 1.34 1.14 0.92 0.86 0.81 0.62 0.73 0.90 0.70 0.52 0.58 0.73 0.84 0.94 0.95 0.97 0.91 0.84 0.85 0.76 0.73 0.75 0.72 0.74 0.83 1.00 1.27 1.50 1.53 1.46 1.39 1.29 1.24 1.15 0.99 0.89 0.91 0.98 1.13 1.22 1.15 1.23 1.24 1.14 1.04 0.97
1.54 1.47 1.28 1.15 0.86 0.90 0.89 0.75 0.67 0.65 0.69 0.50 0.45 0.51 0.65 0.82 0.95 0.89 0.90 0.90 0.86 0.90 0.89 0.72 0.62 0.63 0.61 0.65 0.80 1.03 1.22 1.32 1.31 1.23 1.13 1.32 1.26 1.05 0.96 1.05 1.10 1.13 1.18 1.34 1.39 1.34 1.23 1.11 1.00
1.43 1.48 1.20 0.98 0.85 0.90 0.84 0.77 0.66 0.67 0.56 0.44 0.44 0.57 0.77 0.89 0.95 0.96 0.91 0.93 0.92 0.92 0.95 0.83 0.64 0.55 0.58 0.60 0.66 0.73 0.94 1.06 1.04 1.19 1.13 1.18 1.17 1.06 0.98 0.99 1.15 1.15 1.19 1.40 1.52 1.38 1.30 1.30 1.23
1.26 1.21 1.16 0.99 0.91 0.93 0.94 0.77 0.66 0.78 0.67 0.56 0.61 0.72 0.88 0.95 0.94 0.90 0.84 0.82 0.81 0.81 0.84 0.79 0.69 0.64 0.60 0.57 0.55 0.57 0.61 0.77 0.79 0.81 0.79 0.98 1.12 1.10 1.12 1.03 1.11 1.26 1.32 1.37 1.43 1.38 1.30 1.28 1.30
1.04 1.12 1.26 1.15 1.11 1.07 0.95 1.02 0.80 0.80 0.79 0.68 0.66 0.71 0.91 0.88 0.85 0.81 0.75 0.69 0.64 0.69 0.70 0.73 0.74 0.74 0.70 0.67 0.66 0.61 0.62 0.65 0.72 0.80 0.80 0.91 1.03 1.10 1.11 1.01 1.06 1.23 1.42 1.40 1.38 1.33 1.35 1.22 1.17
1.19 1.47 1.72 1.41 1.21 1.18 1.08 1.21 0.88 0.88 0.83 0.72 0.68 0.66 0.74 0.65 0.65 0.67 0.63 0.57 0.54 0.53 0.53 0.60 0.63 0.67 0.70 0.72 0.75 0.70 0.73 0.74 0.71 0.78 0.77 0.79 0.94 1.09 1.18 1.11 1.07 1.23 1.44 1.61 1.66 1.54 1.47 1.36 1.29
1.51 1.60 1.53 1.44 1.15 1.17 1.09 1.12 0.95 0.82 0.77 0.67 0.65 0.65 0.60 0.55 0.52 0.55 0.53 0.47 0.42 0.41 0.38 0.42 0.48 0.55 0.62 0.68 0.75 0.74 0.77 0.90 0.97 0.87 0.75 0.80 0.92 1.03 1.24 1.33 1.28 1.31 1.48 1.55 1.56 1.59 1.49 1.48 1.43
1.22 1.22 1.22 1.29 1.08 1.01 0.98 0.91 0.92 0.77 0.62 0.56 0.56 0.56 0.52 0.50 0.43 0.43 0.44 0.42 0.38 0.36 0.33 0.35 0.43 0.45 0.47 0.57 0.72 0.82 0.79 0.87 1.08 1.12 1.11 1.15 1.21 1.25 1.39 1.50 1.50 1.50 1.57 1.55 1.67 1.86 1.67 1.50 1.51
0.90 0.90 0.96 0.89 0.75 0.86 0.87 0.81 0.86 0.79 0.64 0.51 0.47 0.51 0.47 0.44 0.44 0.38 0.34 0.39 0.36 0.32 0.29 0.31 0.38 0.41 0.42 0.49 0.60 0.70 0.79 0.97 1.18 1.24 1.31 1.46 1.47 1.48 1.60 1.71 1.75 1.68 1.60 1.67 1.84 2.20 2.08 1.72 1.56
0.83 0.82 0.86 0.76 0.66 0.69 0.78 0.83 0.81 0.74 0.66 0.55 0.47 0.39 0.38 0.38 0.36 0.31 0.29 0.30 0.29 0.28 0.25 0.27 0.36 0.46 0.50 0.54 0.67 0.82 1.05 1.16 1.32 1.48 1.46 1.50 1.55 1.59 1.65 1.85 1.97 1.90 1.89 1.98 2.02 2.27 2.42 2.13 1.94
0.80 0.74 0.69 0.72 0.68 0.66 0.72 0.92 0.87 0.79 0.66 0.54 0.46 0.36 0.29 0.33 0.31 0.24 0.25 0.27 0.25 0.25 0.28 0.29 0.41 0.63 0.81 0.89 1.10 1.38 1.63 1.70 1.64 1.64 1.70 1.68 1.71 1.78 1.75 1.85 2.04 2.03 2.00 2.04 2.23 2.54 2.84 2.74 2.47
0.82 0.57 0.50 0.61 0.73 0.82 0.68 0.95 0.83 0.77 0.70 0.53 0.45 0.40 0.32 0.34 0.38 0.29 0.27 0.29 0.26 0.27 0.36 0.52 0.74 1.03 1.27 1.39 1.56 1.78 1.89 1.92 1.86 1.88 1.87 1.85 1.76 1.69 1.69 1.81 2.01 2.16 2.26 2.34 2.40 2.40 2.75 2.99 2.82
0.64 0.52 0.51 0.61 0.71 0.73 0.62 0.73 0.69 0.62 0.68 0.58 0.53 0.48 0.43 0.42 0.41 0.41 0.40 0.45 0.45 0.54 0.73 1.02 1.27 1.48 1.62 1.67 1.74 1.93 2.07 2.23 2.26 2.15 2.01 1.90 1.86 1.79 1.69 1.74 1.81 1.86 1.96 2.10 2.24 2.30 2.53 2.71 2.85
0.52 0.59 0.63 0.65 0.73 0.82 0.58 0.58 0.69 0.58 0.57 0.60 0.60 0.53 0.47 0.45 0.46 0.56 0.67 0.79 0.89 0.98 1.16 1.36 1.48 1.61 1.60 1.60 1.64 1.76 1.94 2.11 2.14 2.17 2.14 2.00 1.88 1.77 1.66 1.61 1.69 1.72 1.73 1.87 1.99 2.09 2.34 2.52 2.63
0.57 0.73 0.92 0.94 0.90 0.78 0.49 0.57 0.60 0.43 0.41 0.48 0.54 0.52 0.49 0.46 0.54 0.74 0.89 1.04 1.15 1.25 1.35 1.37 1.34 1.38 1.41 1.40 1.42 1.48 1.55 1.59 1.65 1.76 1.70 1.57 1.46 1.41 1.39 1.30 1.36 1.50 1.54 1.73 1.80 1.75 1.81 1.99 2.20
0.52 0.55 0.79 0.90 0.80 0.69 0.54 0.70 0.63 0.45 0.42 0.40 0.44 0.51 0.59 0.70 0.81 0.93 1.02 1.13 1.17 1.29 1.34 1.28 1.23 1.22 1.15 1.10 1.13 1.13 1.17 1.22 1.25 1.27 1.22 1.15 1.11 1.08 1.05 1.04 1.05 1.13 1.20 1.42 1.64 1.63 1.63 1.70 1.79
0.45 0.44 0.46 0.62 0.61 0.64 0.59 0.70 0.64 0.44 0.41 0.40 0.41 0.50 0.64 0.82 1.06 1.23 1.22 1.13 1.06 1.11 1.18 1.14 1.08 1.01 0.93 0.87 0.91 0.93 0.99 1.01 0.98 0.95 0.90 0.90 0.83 0.83 0.81 0.85 0.94 1.00 0.99 1.09 1.24 1.42 1.49 1.55 1.62
0.35 0.38 0.47 0.69 0.81 0.83 0.71 0.78 0.72 0.54 0.49 0.45 0.49 0.61 0.77 0.92 1.12 1.39 1.52 1.40 1.13 0.97 0.99 0.94 0.91 0.92 0.89 0.85 0.87 0.86 0.79 0.72 0.71 0.73 0.67 0.67 0.72 0.75 0.75 0.72 0.73 0.81 0.84 0.93 1.05 1.10 1.21 1.29 1.44
0.35 0.40 0.50 0.65 0.67 0.88 1.12 1.12 0.83 0.72 0.65 0.64 0.68 0.74 0.80 1.02 1.31 1.45 1.48 1.35 1.18 0.91 0.84 0.82 0.79 0.82 0.86 0.80 0.83 0.84 0.73 0.60 0.56 0.53 0.49 0.51 0.54 0.59 0.59 0.62 0.68 0.70 0.73 0.75 0.76 0.80 0.87 0.94 1.04
0.32 0.40 0.54 0.81 0.82 0.78 0.98 1.03 0.66 0.69 0.80 0.75 0.81 0.90 0.91 0.95 0.98 0.98 1.08 1.09 1.02 0.90 0.83 0.88 0.91 0.91 0.83 0.76 0.75 0.75 0.67 0.57 0.58 0.52 0.44 0.47 0.52 0.54 0.54 0.58 0.62 0.62 0.68 0.71 0.70 0.69 0.72 0.82 0.91

GEFSSGP_prec_meanprecacc_234.txt.gz
Total_Precipitation_Accumulation
2.25 2.53 3.33 4.17 4.71 3.59 2.61 2.14 1.82 1.60 1.33 1.01 0.80 0.82 1.12 1.57 1.88 1.90 1.76 1.57 1.01 0.91 0.98 1.39 1.67 1.56 1.44 1.35 1.32 1.30 1.26 1.25 1.26 1.27 1.26 1.15 1.07 1.11 1.21 1.17 1.06 1.04 0.99 0.96 0.93 0.94 0.94 0.93 0.97
1.95 2.70 3.88 4.74 3.98 2.79 2.39 1.95 1.73 1.43 1.08 0.83 0.72 0.64 0.73 0.59 0.57 1.03 1.91 1.84 1.03 0.81 0.92 1.30 1.76 1.67 1.55 1.51 1.50 1.49 1.35 1.22 1.18 1.12 1.08 1.06 1.04 1.04 1.11 1.18 1.07 1.08 1.01 0.93 0.89 0.87 0.92 0.95 1.02
2.24 3.12 4.32 4.37 3.06 2.37 2.34 1.81 1.36 0.98 0.73 0.77 0.80 0.67 0.72 0.83 0.95 1.43 1.81 1.33 0.96 0.83 0.92 1.43 1.89 1.71 1.59 1.56 1.63 1.56 1.40 1.25 1.14 1.06 1.03 1.00 1.06 1.10 1.13 1.05 1.01 1.06 1.06 0.98 1.02 1.01 1.04 1.06 1.15
2.49 3.57 3.93 3.33 2.54 1.95 1.70 1.43 1.09 0.95 0.67 0.45 0.61 0.78 0.68 0.92 1.09 1.32 1.27 0.93 0.73 0.72 0.81 1.27 1.81 1.67 1.50 1.42 1.55 1.49 1.34 1.32 1.21 1.15 1.12 1.10 1.20 1.37 1.26 1.11 1.09 1.08 1.11 1.04 1.07 1.11 1.15 1.19 1.23
2.76 3.55 3.53 3.16 2.37 2.02 1.51 1.19 1.00 0.97 0.78 0.52 0.52 0.80 0.88 1.20 1.20 1.20 1.12 0.93 0.73 0.72 0.75 1.04 1.54 1.52 1.37 1.32 1.39 1.39 1.36 1.36 1.21 1.16 1.17 1.19 1.25 1.42 1.52 1.38 1.28 1.25 1.22 1.15 1.12 1.12 1.11 1.17 1.27
3.18 3.26 3.30 3.11 2.55 2.23 1.74 1.27 0.92 0.84 0.70 0.57 0.55 0.81 1.09 1.51 1.41 1.35 1.16 1.09 0.95 0.82 0.72 0.87 1.31 1.38 1.30 1.32 1.33 1.31 1.27 1.22 1.07 1.06 1.15 1.17 1.19 1.33 1.49 1.48 1.42 1.37 1.29 1.28 1.25 1.24 1.20 1.21 1.21
2.95 2.91 2.63 2.24 2.39 2.51 1.81 1.16 1.06 0.98 0.90 0.79 0.58 0.84 1.18 1.60 1.47 1.19 1.17 1.25 1.35 1.19 1.00 0.94 1.03 1.08 1.16 1.27 1.30 1.40 1.42 1.23 1.05 0.99 1.01 1.04 1.06 1.16 1.27 1.35 1.34 1.30 1.31 1.32 1.29 1.29 1.29 1.32 1.27
2.41 2.46 2.21 2.14 2.38 2.54 1.56 1.02 0.85 0.81 0.82 0.56 0.49 0.77 1.00 1.22 1.31 1.24 1.20 1.28 1.28 1.23 1.17 1.07 1.09 1.05 1.02 1.10 1.32 1.56 1.65 1.44 1.17 1.04 0.97 1.02 1.01 1.03 1.17 1.22 1.33 1.37 1.37 1.42 1.43 1.40 1.33 1.40 1.40
2.06 2.37 2.40 2.34 2.27 2.00 1.22 0.92 0.73 0.53 0.55 0.50 0.41 0.60 0.78 0.80 0.99 1.19 1.21 1.23 1.19 1.14 1.16 1.08 1.08 1.12 1.19 1.21 1.31 1.57 1.70 1.63 1.24 1.03 1.00 0.91 0.79 0.92 1.03 1.03 1.34 1.48 1.57 1.58 1.58 1.50 1.40 1.36 1.36
2.10 2.29 2.16 1.76 1.55 1.28 0.98 0.85 0.69 0.71 0.80 0.69 0.53 0.61 0.76 0.82 0.90 1.07 1.11 1.02 0.98 0.97 0.99 1.00 0.98 0.96 0.98 1.02 1.36 1.60 1.44 1.50 1.20 1.13 1.05 0.97 1.01 1.06 0.93 0.92 1.24 1.46 1.60 1.60 1.54 1.50 1.39 1.21 1.03
1.77 1.88 1.55 1.34 1.14 0.92 0.86 0.81 0.62 0.74 0.91 0.70 0.53 0.60 0.74 0.84 0.95 0.96 0.99 0.93 0.85 0.86 0.77 0.75 0.78 0.73 0.75 0.85 1.02 1.31 1.53 1.55 1.48 1.40 1.29 1.25 1.16 1.00 0.90 0.92 1.00 1.16 1.27 1.21 1.30 1.30 1.20 1.09 1.01
1.54 1.47 1.28 1.15 0.86 0.90 0.90 0.76 0.67 0.66 0.69 0.50 0.45 0.51 0.66 0.83 0.96 0.91 0.92 0.92 0.88 0.92 0.90 0.73 0.64 0.64 0.62 0.67 0.81 1.05 1.24 1.35 1.33 1.24 1.14 1.33 1.27 1.07 0.97 1.07 1.13 1.17 1.24 1.41 1.46 1.41 1.29 1.16 1.03
1.43 1.48 1.20 0.98 0.85 0.90 0.84 0.77 0.66 0.67 0.56 0.44 0.44 0.57 0.77 0.90 0.97 0.98 0.93 0.94 0.93 0.94 0.97 0.85 0.65 0.57 0.60 0.62 0.67 0.75 0.96 1.07 1.06 1.19 1.14 1.19 1.19 1.08 0.99 1.01 1.20 1.22 1.27 1.49 1.61 1.45 1.35 1.34 1.26
1.26 1.21 1.16 0.99 0.91 0.93 0.94 0.77 0.66 0.78 0.67 0.56 0.61 0.73 0.89 0.97 0.96 0.91 0.85 0.83 0.83 0.84 0.88 0.82 0.71 0.67 0.64 0.60 0.56 0.58 0.63 0.79 0.81 0.82 0.80 0.99 1.13 1.11 1.13 1.04 1.14 1.31 1.37 1.43 1.49 1.44 1.36 1.32 1.33
1.04 1.12 1.26 1.16 1.11 1.07 0.95 1.02 0.80 0.81 0.80 0.68 0.66 0.72 0.92 0.89 0.87 0.82 0.76 0.70 0.65 0.70 0.74 0.77 0.77 0.76 0.73 0.70 0.68 0.63 0.64 0.68 0.75 0.82 0.82 0.92 1.04 1.12 1.12 1.02 1.07 1.24 1.45 1.43 1.41 1.38 1.41 1.27 1.20
1.20 1.48 1.72 1.41 1.21 1.18 1.08 1.21 0.88 0.88 0.83 0.72 0.69 0.67 0.75 0.66 0.67 0.68 0.64 0.58 0.54 0.54 0.56 0.64 0.65 0.69 0.72 0.74 0.76 0.71 0.74 0.76 0.73 0.80 0.79 0.80 0.95 1.11 1.19 1.13 1.09 1.25 1.47 1.64 1.69 1.58 1.52 1.39 1.31
1.51 1.60 1.54 1.45 1.16 1.17 1.09 1.12 0.95 0.82 0.77 0.67 0.65 0.66 0.62 0.55 0.53 0.55 0.54 0.49 0.42 0.42 0.41 0.46 0.51 0.57 0.63 0.70 0.76 0.75 0.78 0.91 0.98 0.88 0.76 0.80 0.93 1.05 1.25 1.36 1.30 1.32 1.50 1.59 1.60 1.63 1.52 1.50 1.44
1.22 1.22 1.22 1.30 1.09 1.01 0.98 0.91 0.93 0.77 0.62 0.56 0.56 0.56 0.53 0.50 0.43 0.44 0.45 0.45 0.40 0.37 0.35 0.37 0.45 0.47 0.49 0.58 0.74 0.83 0.79 0.88 1.09 1.13 1.12 1.16 1.22 1.26 1.41 1.52 1.52 1.52 1.59 1.58 1.72 1.91 1.72 1.53 1.53
0.90 0.91 0.96 0.89 0.75 0.86 0.87 0.81 0.86 0.80 0.65 0.51 0.48 0.51 0.48 0.45 0.45 0.39 0.35 0.42 0.40 0.34 0.30 0.34 0.40 0.43 0.43 0.50 0.61 0.71 0.80 0.98 1.19 1.24 1.32 1.46 1.47 1.49 1.62 1.73 1.77 1.70 1.62 1.70 1.88 2.25 2.12 1.75 1.59
0.83 0.82 0.86 0.76 0.66 0.69 0.78 0.83 0.81 0.74 0.67 0.55 0.47 0.40 0.38 0.39 0.36 0.31 0.30 0.33 0.33 0.29 0.27 0.29 0.38 0.47 0.51 0.54 0.68 0.83 1.05 1.16 1.32 1.48 1.47 1.50 1.55 1.59 1.67 1.87 1.99 1.92 1.91 2.00 2.05 2.31 2.46 2.16 1.97
0.81 0.75 0.69 0.72 0.68 0.66 0.72 0.92 0.87 0.80 0.66 0.54 0.46 0.36 0.30 0.33 0.31 0.24 0.26 0.28 0.28 0.27 0.30 0.31 0.42 0.63 0.81 0.89 1.10 1.39 1.64 1.71 1.64 1.65 1.70 1.69 1.71 1.78 1.75 1.86 2.05 2.04 2.02 2.06 2.25 2.57 2.88 2.78 2.50
0.82 0.57 0.50 0.62 0.74 0.83 0.68 0.96 0.83 0.77 0.70 0.54 0.45 0.40 0.32 0.35 0.38 0.29 0.27 0.30 0.28 0.30 0.40 0.55 0.75 1.04 1.27 1.40 1.57 1.79 1.90 1.93 1.86 1.88 1.88 1.86 1.76 1.69 1.69 1.82 2.01 2.16 2.27 2.35 2.41 2.42 2.78 3.04 2.85
0.64 0.52 0.51 0.61 0.72 0.73 0.62 0.74 0.70 0.62 0.68 0.59 0.53 0.48 0.43 0.42 0.41 0.42 0.41 0.45 0.47 0.56 0.75 1.05 1.29 1.49 1.63 1.68 1.75 1.93 2.07 2.23 2.26 2.15 2.01 1.90 1.86 1.79 1.70 1.74 1.82 1.87 1.97 2.11 2.24 2.31 2.55 2.73 2.87
0.52 0.59 0.63 0.65 0.73 0.83 0.58 0.58 0.70 0.58 0.57 0.60 0.60 0.53 0.47 0.45 0.46 0.56 0.67 0.79 0.89 0.99 1.17 1.37 1.49 1.62 1.61 1.61 1.65 1.76 1.94 2.11 2.14 2.17 2.14 2.01 1.88 1.77 1.66 1.61 1.70 1.72 1.73 1.88 2.00 2.10 2.36 2.53 2.66
0.57 0.74 0.93 0.94 0.90 0.79 0.49 0.58 0.61 0.43 0.41 0.48 0.54 0.52 0.49 0.46 0.55 0.75 0.89 1.05 1.16 1.26 1.36 1.38 1.35 1.38 1.42 1.41 1.42 1.49 1.55 1.59 1.65 1.77 1.71 1.57 1.46 1.41 1.39 1.31 1.36 1.50 1.55 1.73 1.82 1.76 1.82 2.00 2.23
0.53 0.56 0.80 0.91 0.81 0.69 0.54 0.71 0.63 0.46 0.43 0.40 0.44 0.51 0.59 0.70 0.81 0.93 1.03 1.14 1.18 1.30 1.35 1.30 1.25 1.22 1.15 1.11 1.14 1.14 1.17 1.22 1.25 1.27 1.22 1.15 1.11 1.08 1.05 1.04 1.06 1.13 1.20 1.43 1.66 1.64 1.65 1.71 1.81
0.45 0.44 0.46 0.63 0.61 0.64 0.59 0.70 0.64 0.44 0.42 0.40 0.41 0.51 0.65 0.83 1.07 1.24 1.23 1.14 1.07 1.12 1.19 1.16 1.09 1.03 0.94 0.88 0.91 0.93 0.99 1.01 0.98 0.96 0.90 0.90 0.84 0.84 0.82 0.85 0.95 1.01 0.99 1.10 1.25 1.43 1.49 1.56 1.63
0.35 0.38 0.47 0.70 0.81 0.83 0.71 0.78 0.72 0.55 0.49 0.46 0.50 0.62 0.77 0.93 1.14 1.41 1.53 1.41 1.14 0.97 1.00 0.96 0.92 0.93 0.90 0.86 0.88 0.87 0.79 0.72 0.72 0.74 0.68 0.67 0.72 0.75 0.75 0.72 0.74 0.82 0.85 0.95 1.07 1.12 1.22 1.30 1.46
0.35 0.40 0.50 0.66 0.67 0.89 1.12 1.12 0.83 0.72 0.66 0.65 0.69 0.75 0.80 1.03 1.33 1.47 1.49 1.36 1.18 0.91 0.85 0.83 0.80 0.83 0.87 0.80 0.84 0.85 0.74 0.60 0.56 0.53 0.50 0.51 0.54 0.59 0.60 0.62 0.69 0.72 0.75 0.77 0.77 0.82 0.89 0.96 1.06
0.32 0.40 0.54 0.81 0.82 0.78 0.99 1.03 0.67 0.70 0.81 0.76 0.82 0.90 0.91 0.96 0.99 0.99 1.09 1.10 1.03 0.90 0.83 0.88 0.92 0.92 0.83 0.76 0.76 0.77 0.70 0.59 0.59 0.53 0.45 0.47 0.52 0.54 0.54 0.59 0.62 0.63 0.69 0.72 0.71 0.70 0.73 0.83 0.92

GEFSSGP_prec_meanprecacc_240.txt.gz
Total_Precipitation_Accumulation
2.25 2.53 3.35 4.21 4.80 3.69 2.69 2.20 1.88 1.64 1.35 1.02 0.81 0.83 1.14 1.61 1.93 1.97 1.81 1.60 1.02 0.92 1.01 1.42 1.69 1.59 1.46 1.38 1.37 1.35 1.30 1.28 1.32 1.34 1.32 1.20 1.21 1.29 1.35 1.31 1.21 1.19 1.13 1.10 1.05 1.06 1.06 1.02 1.05
1.96 2.70 3.90 4.80 4.08 2.88 2.46 2.00 1.76 1.46 1.11 0.84 0.72 0.64 0.74 0.61 0.59 1.05 1.94 1.87 1.05 0.83 0.94 1.33 1.78 1.70 1.59 1.55 1.54 1.54 1.41 1.25 1.22 1.17 1.13 1.09 1.10 1.17 1.28 1.34 1.23 1.23 1.15 1.08 1.02 0.99 1.05 1.05 1.09
2.25 3.13 4.34 4.42 3.12 2.42 2.39 1.83 1.38 1.01 0.74 0.78 0.80 0.68 0.73 0.85 0.96 1.45 1.85 1.34 0.97 0.85 0.94 1.44 1.90 1.73 1.62 1.59 1.67 1.61 1.44 1.29 1.17 1.09 1.06 1.02 1.08 1.14 1.18 1.13 1.12 1.19 1.19 1.15 1.18 1.14 1.17 1.16 1.22
2.51 3.58 3.95 3.36 2.56 1.97 1.71 1.44 1.11 0.97 0.67 0.45 0.62 0.80 0.70 0.94 1.11 1.34 1.30 0.94 0.74 0.75 0.85 1.28 1.82 1.68 1.52 1.46 1.59 1.52 1.38 1.36 1.26 1.17 1.15 1.12 1.22 1.40 1.30 1.15 1.17 1.19 1.26 1.18 1.21 1.23 1.26 1.29 1.31
2.78 3.56 3.55 3.19 2.38 2.03 1.52 1.20 1.01 0.98 0.79 0.53 0.53 0.82 0.90 1.22 1.22 1.22 1.13 0.94 0.74 0.75 0.79 1.07 1.56 1.54 1.40 1.36 1.43 1.42 1.40 1.40 1.27 1.20 1.21 1.21 1.27 1.46 1.56 1.42 1.37 1.37 1.36 1.26 1.21 1.20 1.18 1.25 1.35
3.19 3.27 3.34 3.14 2.57 2.25 1.75 1.29 0.94 0.85 0.71 0.58 0.57 0.84 1.12 1.54 1.44 1.38 1.19 1.10 0.97 0.84 0.75 0.89 1.33 1.41 1.32 1.34 1.36 1.34 1.31 1.26 1.12 1.12 1.19 1.21 1.23 1.36 1.51 1.52 1.51 1.49 1.40 1.37 1.33 1.30 1.25 1.27 1.27
2.96 2.92 2.66 2.27 2.41 2.54 1.83 1.16 1.06 0.99 0.91 0.80 0.59 0.88 1.21 1.63 1.50 1.21 1.19 1.27 1.36 1.21 1.01 0.95 1.05 1.10 1.18 1.29 1.32 1.43 1.47 1.28 1.10 1.03 1.05 1.09 1.10 1.19 1.30 1.39 1.42 1.39 1.40 1.41 1.36 1.34 1.34 1.38 1.33
2.41 2.47 2.24 2.16 2.40 2.56 1.57 1.02 0.85 0.82 0.84 0.56 0.50 0.80 1.04 1.25 1.34 1.27 1.22 1.30 1.29 1.25 1.18 1.09 1.10 1.07 1.05 1.12 1.33 1.59 1.69 1.51 1.24 1.09 1.02 1.07 1.06 1.08 1.20 1.25 1.39 1.44 1.44 1.49 1.49 1.45 1.38 1.47 1.46
2.06 2.38 2.42 2.36 2.29 2.02 1.22 0.93 0.74 0.54 0.55 0.50 0.41 0.61 0.79 0.81 1.01 1.21 1.22 1.24 1.20 1.16 1.18 1.11 1.11 1.14 1.20 1.23 1.33 1.60 1.75 1.70 1.31 1.08 1.02 0.96 0.86 0.96 1.06 1.06 1.38 1.54 1.64 1.63 1.63 1.56 1.46 1.42 1.41
2.11 2.31 2.17 1.77 1.55 1.28 0.99 0.85 0.69 0.72 0.81 0.70 0.53 0.61 0.76 0.82 0.91 1.08 1.12 1.03 0.99 0.98 1.01 1.03 1.02 0.98 0.99 1.03 1.38 1.64 1.50 1.56 1.24 1.15 1.06 1.00 1.05 1.08 0.94 0.95 1.28 1.50 1.66 1.65 1.59 1.57 1.45 1.25 1.08
1.77 1.89 1.56 1.34 1.14 0.92 0.86 0.81 0.62 0.74 0.92 0.73 0.55 0.61 0.74 0.85 0.95 0.97 1.01 0.94 0.88 0.87 0.78 0.76 0.80 0.75 0.76 0.87 1.05 1.34 1.56 1.57 1.49 1.41 1.31 1.26 1.17 1.01 0.91 0.96 1.04 1.21 1.31 1.26 1.35 1.35 1.25 1.14 1.05
1.54 1.48 1.28 1.15 0.86 0.90 0.90 0.76 0.67 0.66 0.70 0.51 0.45 0.52 0.66 0.84 0.98 0.93 0.95 0.95 0.89 0.92 0.91 0.73 0.65 0.65 0.64 0.69 0.84 1.08 1.27 1.37 1.35 1.26 1.14 1.33 1.28 1.07 0.98 1.10 1.17 1.22 1.29 1.45 1.50 1.44 1.32 1.19 1.06
1.43 1.48 1.20 0.98 0.85 0.90 0.84 0.77 0.66 0.67 0.56 0.44 0.44 0.57 0.78 0.92 0.99 1.00 0.94 0.95 0.93 0.94 0.97 0.85 0.66 0.58 0.62 0.66 0.72 0.78 0.99 1.10 1.08 1.21 1.14 1.19 1.20 1.09 1.00 1.03 1.23 1.27 1.33 1.55 1.66 1.49 1.40 1.38 1.30
1.26 1.21 1.16 0.99 0.91 0.93 0.94 0.77 0.66 0.78 0.67 0.56 0.61 0.73 0.89 0.98 0.97 0.93 0.86 0.84 0.83 0.85 0.88 0.83 0.71 0.67 0.66 0.64 0.60 0.60 0.64 0.81 0.83 0.83 0.81 1.00 1.14 1.12 1.14 1.05 1.17 1.36 1.44 1.51 1.55 1.51 1.41 1.36 1.37
1.04 1.12 1.26 1.16 1.11 1.07 0.96 1.03 0.80 0.81 0.80 0.68 0.66 0.72 0.92 0.89 0.88 0.84 0.77 0.70 0.65 0.71 0.75 0.78 0.77 0.76 0.74 0.74 0.71 0.64 0.65 0.68 0.76 0.83 0.83 0.93 1.06 1.14 1.14 1.04 1.10 1.27 1.49 1.49 1.48 1.47 1.48 1.32 1.25
1.20 1.49 1.74 1.42 1.21 1.18 1.08 1.23 0.89 0.88 0.83 0.73 0.69 0.67 0.75 0.67 0.67 0.69 0.65 0.59 0.55 0.54 0.56 0.64 0.66 0.69 0.73 0.77 0.79 0.72 0.75 0.76 0.74 0.81 0.79 0.81 0.96 1.12 1.20 1.15 1.11 1.27 1.50 1.68 1.74 1.65 1.59 1.46 1.37
1.53 1.62 1.56 1.46 1.16 1.17 1.09 1.13 0.96 0.82 0.78 0.68 0.66 0.66 0.62 0.56 0.53 0.56 0.55 0.51 0.44 0.42 0.41 0.46 0.52 0.57 0.65 0.72 0.79 0.76 0.78 0.91 0.98 0.88 0.76 0.81 0.94 1.06 1.27 1.38 1.32 1.34 1.54 1.63 1.63 1.67 1.57 1.55 1.49
1.23 1.23 1.23 1.31 1.09 1.01 0.98 0.92 0.93 0.77 0.62 0.57 0.56 0.57 0.54 0.51 0.44 0.44 0.46 0.47 0.41 0.38 0.35 0.38 0.47 0.49 0.50 0.61 0.76 0.85 0.81 0.88 1.09 1.13 1.14 1.17 1.22 1.26 1.43 1.54 1.55 1.55 1.63 1.63 1.76 1.94 1.75 1.57 1.56
0.90 0.91 0.97 0.89 0.75 0.87 0.87 0.82 0.86 0.80 0.65 0.51 0.49 0.52 0.48 0.45 0.46 0.39 0.36 0.43 0.42 0.35 0.31 0.35 0.42 0.45 0.46 0.52 0.64 0.74 0.82 1.00 1.20 1.26 1.33 1.47 1.49 1.50 1.63 1.74 1.80 1.74 1.66 1.74 1.91 2.28 2.14 1.78 1.61
0.83 0.82 0.86 0.76 0.66 0.70 0.78 0.83 0.81 0.74 0.67 0.55 0.48 0.40 0.39 0.39 0.37 0.32 0.30 0.33 0.34 0.31 0.29 0.30 0.39 0.49 0.54 0.57 0.70 0.85 1.06 1.18 1.33 1.49 1.48 1.51 1.56 1.60 1.68 1.90 2.02 1.96 1.95 2.03 2.08 2.34 2.49 2.20 2.00
0.81 0.75 0.69 0.72 0.69 0.66 0.72 0.93 0.88 0.80 0.66 0.55 0.46 0.37 0.30 0.33 0.32 0.25 0.26 0.29 0.29 0.28 0.32 0.33 0.43 0.65 0.84 0.92 1.13 1.40 1.65 1.72 1.65 1.66 1.71 1.70 1.72 1.79 1.76 1.88 2.08 2.07 2.06 2.11 2.28 2.60 2.91 2.83 2.54
0.82 0.58 0.50 0.62 0.75 0.84 0.70 0.98 0.84 0.77 0.70 0.54 0.45 0.40 0.33 0.35 0.39 0.29 0.28 0.31 0.28 0.31 0.41 0.58 0.76 1.06 1.30 1.41 1.58 1.80 1.90 1.94 1.87 1.89 1.89 1.87 1.77 1.69 1.69 1.82 2.02 2.18 2.30 2.39 2.45 2.45 2.83 3.09 2.90
0.65 0.52 0.51 0.61 0.73 0.75 0.63 0.76 0.72 0.62 0.69 0.59 0.54 0.49 0.43 0.42 0.42 0.42 0.41 0.46 0.47 0.56 0.76 1.08 1.32 1.52 1.65 1.69 1.76 1.94 2.08 2.24 2.26 2.16 2.02 1.91 1.87 1.79 1.70 1.75 1.82 1.87 1.99 2.14 2.27 2.35 2.59 2.78 2.93
0.52 0.59 0.63 0.65 0.74 0.85 0.59 0.60 0.72 0.60 0.57 0.60 0.61 0.53 0.48 0.45 0.46 0.56 0.68 0.80 0.90 0.99 1.18 1.40 1.52 1.65 1.63 1.62 1.65 1.77 1.94 2.11 2.14 2.17 2.15 2.02 1.89 1.78 1.67 1.61 1.70 1.73 1.74 1.90 2.02 2.13 2.39 2.57 2.71
0.57 0.75 0.96 0.97 0.94 0.81 0.49 0.58 0.62 0.44 0.41 0.49 0.54 0.53 0.50 0.47 0.55 0.75 0.91 1.06 1.17 1.27 1.37 1.40 1.38 1.42 1.44 1.42 1.43 1.49 1.55 1.59 1.66 1.77 1.71 1.58 1.47 1.41 1.39 1.31 1.37 1.50 1.56 1.75 1.84 1.79 1.85 2.04 2.27
0.53 0.57 0.83 0.94 0.83 0.71 0.54 0.71 0.64 0.46 0.43 0.41 0.45 0.53 0.60 0.70 0.82 0.94 1.05 1.16 1.20 1.32 1.36 1.31 1.27 1.25 1.17 1.12 1.14 1.14 1.18 1.23 1.25 1.27 1.23 1.16 1.11 1.08 1.05 1.05 1.06 1.13 1.21 1.43 1.66 1.66 1.67 1.73 1.83
0.45 0.44 0.46 0.64 0.62 0.66 0.60 0.70 0.64 0.44 0.42 0.40 0.42 0.52 0.66 0.83 1.07 1.25 1.25 1.16 1.08 1.13 1.20 1.16 1.10 1.04 0.95 0.89 0.92 0.93 0.99 1.01 0.98 0.96 0.90 0.90 0.84 0.84 0.82 0.85 0.95 1.01 1.00 1.11 1.25 1.44 1.51 1.58 1.65
0.35 0.38 0.48 0.71 0.83 0.85 0.72 0.78 0.73 0.55 0.49 0.46 0.50 0.62 0.78 0.94 1.15 1.42 1.53 1.41 1.15 0.98 1.01 0.97 0.93 0.94 0.92 0.87 0.89 0.88 0.80 0.73 0.72 0.74 0.68 0.67 0.72 0.75 0.75 0.73 0.74 0.82 0.85 0.95 1.08 1.14 1.23 1.32 1.48
0.35 0.40 0.50 0.66 0.67 0.89 1.14 1.13 0.84 0.73 0.66 0.65 0.69 0.75 0.82 1.06 1.36 1.48 1.50 1.37 1.19 0.93 0.86 0.84 0.82 0.84 0.88 0.82 0.85 0.86 0.75 0.61 0.57 0.54 0.50 0.51 0.55 0.59 0.60 0.62 0.69 0.72 0.75 0.77 0.79 0.84 0.91 0.98 1.09
0.32 0.40 0.54 0.82 0.83 0.79 1.00 1.04 0.67 0.70 0.81 0.76 0.82 0.91 0.93 1.00 1.03 1.01 1.10 1.11 1.04 0.91 0.84 0.90 0.94 0.93 0.84 0.77 0.77 0.78 0.71 0.60 0.60 0.53 0.45 0.47 0.53 0.55 0.54 0.59 0.62 0.63 0.70 0.73 0.72 0.71 0.75 0.86 0.94

GEFSSGP_prec_meanprecacc_246.txt.gz
Total_Precipitation_Accumulation
2.26 2.55 3.38 4.29 4.90 3.75 2.74 2.25 1.93 1.70 1.39 1.04 0.82 0.84 1.16 1.63 1.95 1.99 1.85 1.65 1.04 0.95 1.03 1.44 1.71 1.60 1.48 1.40 1.38 1.38 1.33 1.31 1.35 1.37 1.35 1.22 1.25 1.35 1.39 1.35 1.26 1.25 1.19 1.16 1.11 1.11 1.11 1.07 1.10
1.97 2.74 3.95 4.88 4.16 2.93 2.51 2.04 1.79 1.49 1.12 0.85 0.73 0.65 0.75 0.62 0.60 1.07 1.97 1.90 1.06 0.83 0.95 1.33 1.79 1.70 1.61 1.56 1.56 1.58 1.44 1.29 1.25 1.19 1.14 1.10 1.15 1.29 1.37 1.41 1.31 1.32 1.25 1.15 1.07 1.04 1.09 1.09 1.13
2.26 3.16 4.39 4.47 3.15 2.45 2.42 1.86 1.40 1.03 0.74 0.78 0.80 0.68 0.74 0.87 0.99 1.47 1.88 1.36 0.98 0.85 0.94 1.44 1.91 1.74 1.63 1.61 1.69 1.65 1.47 1.31 1.19 1.10 1.08 1.04 1.12 1.24 1.32 1.24 1.22 1.29 1.28 1.24 1.24 1.20 1.22 1.19 1.26
2.52 3.61 3.99 3.39 2.58 1.99 1.73 1.46 1.13 0.98 0.68 0.45 0.62 0.81 0.71 0.96 1.13 1.36 1.32 0.95 0.74 0.76 0.85 1.29 1.84 1.70 1.55 1.49 1.62 1.56 1.41 1.38 1.28 1.19 1.16 1.15 1.26 1.46 1.41 1.26 1.27 1.28 1.34 1.26 1.28 1.28 1.31 1.33 1.36
2.79 3.58 3.57 3.21 2.40 2.06 1.55 1.22 1.02 0.98 0.79 0.53 0.53 0.83 0.92 1.26 1.24 1.23 1.15 0.95 0.75 0.76 0.80 1.08 1.58 1.57 1.43 1.38 1.46 1.44 1.42 1.42 1.29 1.22 1.23 1.23 1.29 1.49 1.61 1.50 1.45 1.45 1.44 1.34 1.27 1.25 1.23 1.29 1.39
3.21 3.29 3.37 3.16 2.59 2.27 1.76 1.29 0.94 0.85 0.72 0.58 0.58 0.85 1.16 1.57 1.45 1.39 1.20 1.11 0.98 0.85 0.76 0.89 1.35 1.42 1.33 1.35 1.38 1.38 1.34 1.28 1.15 1.15 1.21 1.23 1.26 1.39 1.54 1.55 1.55 1.53 1.46 1.43 1.37 1.35 1.29 1.31 1.31
2.98 2.94 2.68 2.28 2.43 2.55 1.83 1.16 1.07 1.00 0.93 0.80 0.60 0.89 1.24 1.67 1.54 1.24 1.22 1.30 1.38 1.22 1.02 0.96 1.06 1.12 1.20 1.31 1.35 1.47 1.51 1.30 1.12 1.06 1.08 1.11 1.13 1.22 1.32 1.42 1.46 1.45 1.45 1.45 1.40 1.37 1.38 1.42 1.36
2.42 2.48 2.26 2.19 2.42 2.58 1.58 1.02 0.86 0.83 0.85 0.57 0.50 0.81 1.05 1.28 1.38 1.31 1.26 1.33 1.31 1.26 1.19 1.11 1.12 1.08 1.05 1.13 1.37 1.64 1.72 1.53 1.25 1.11 1.05 1.11 1.09 1.11 1.23 1.27 1.44 1.52 1.52 1.55 1.55 1.50 1.43 1.50 1.49
2.07 2.40 2.45 2.38 2.31 2.03 1.24 0.94 0.74 0.54 0.56 0.51 0.41 0.61 0.80 0.82 1.04 1.24 1.25 1.26 1.22 1.17 1.19 1.12 1.12 1.15 1.21 1.23 1.34 1.65 1.78 1.72 1.32 1.10 1.06 0.99 0.88 0.98 1.09 1.10 1.46 1.63 1.73 1.73 1.71 1.63 1.52 1.46 1.45
2.11 2.33 2.19 1.78 1.56 1.29 0.99 0.85 0.69 0.72 0.81 0.71 0.54 0.62 0.77 0.83 0.92 1.10 1.14 1.05 1.01 0.99 1.02 1.04 1.03 1.00 1.01 1.04 1.39 1.65 1.51 1.57 1.25 1.16 1.07 1.01 1.07 1.09 0.96 0.99 1.35 1.59 1.76 1.75 1.68 1.64 1.50 1.29 1.11
1.78 1.89 1.56 1.34 1.14 0.92 0.86 0.81 0.62 0.74 0.93 0.73 0.55 0.62 0.76 0.86 0.96 0.98 1.02 0.97 0.90 0.88 0.79 0.77 0.82 0.78 0.78 0.88 1.05 1.35 1.57 1.58 1.51 1.42 1.31 1.27 1.18 1.02 0.93 0.99 1.10 1.28 1.39 1.33 1.42 1.42 1.29 1.16 1.08
1.55 1.48 1.28 1.15 0.86 0.90 0.90 0.76 0.67 0.66 0.70 0.51 0.46 0.52 0.69 0.86 0.99 0.94 0.97 0.98 0.90 0.93 0.92 0.75 0.67 0.67 0.66 0.71 0.85 1.09 1.28 1.38 1.37 1.27 1.15 1.34 1.29 1.08 1.00 1.13 1.22 1.28 1.33 1.49 1.54 1.49 1.35 1.21 1.09
1.43 1.49 1.20 0.99 0.85 0.90 0.84 0.77 0.66 0.67 0.56 0.44 0.44 0.58 0.79 0.97 1.03 1.02 0.96 0.96 0.95 0.95 0.99 0.87 0.69 0.62 0.65 0.68 0.73 0.81 1.01 1.11 1.09 1.22 1.15 1.20 1.21 1.10 1.03 1.07 1.27 1.32 1.36 1.58 1.69 1.52 1.42 1.42 1.34
1.26 1.21 1.16 0.99 0.91 0.93 0.94 0.77 0.66 0.78 0.67 0.57 0.62 0.74 0.90 1.00 1.00 0.96 0.88 0.85 0.84 0.86 0.90 0.84 0.73 0.70 0.68 0.66 0.62 0.63 0.67 0.82 0.84 0.84 0.81 1.00 1.14 1.12 1.16 1.09 1.20 1.39 1.47 1.54 1.58 1.53 1.44 1.39 1.39
1.04 1.12 1.26 1.16 1.11 1.07 0.96 1.03 0.80 0.81 0.80 0.68 0.67 0.73 0.93 0.91 0.89 0.86 0.78 0.71 0.66 0.72 0.76 0.79 0.78 0.77 0.75 0.75 0.73 0.67 0.67 0.71 0.77 0.84 0.83 0.93 1.06 1.14 1.15 1.06 1.12 1.30 1.52 1.53 1.52 1.51 1.53 1.36 1.27
1.21 1.49 1.74 1.42 1.21 1.18 1.09 1.23 0.89 0.88 0.83 0.73 0.70 0.68 0.77 0.68 0.68 0.70 0.66 0.60 0.56 0.55 0.59 0.66 0.67 0.70 0.73 0.77 0.81 0.75 0.77 0.78 0.76 0.82 0.80 0.81 0.96 1.13 1.21 1.16 1.13 1.30 1.54 1.73 1.79 1.69 1.63 1.51 1.41
1.54 1.64 1.57 1.47 1.16 1.17 1.10 1.14 0.96 0.82 0.78 0.68 0.66 0.67 0.63 0.56 0.53 0.57 0.56 0.51 0.45 0.43 0.42 0.47 0.53 0.59 0.66 0.73 0.82 0.79 0.80 0.92 0.99 0.89 0.78 0.82 0.95 1.06 1.27 1.39 1.33 1.36 1.57 1.67 1.67 1.70 1.60 1.59 1.53
1.25 1.24 1.24 1.33 1.10 1.01 0.99 0.92 0.93 0.77 0.63 0.57 0.57 0.57 0.54 0.51 0.44 0.44 0.46 0.47 0.42 0.39 0.37 0.39 0.47 0.50 0.51 0.62 0.78 0.88 0.82 0.89 1.10 1.14 1.14 1.18 1.23 1.27 1.43 1.55 1.56 1.56 1.65 1.67 1.80 1.97 1.78 1.60 1.59
0.91 0.92 0.97 0.90 0.76 0.87 0.88 0.82 0.86 0.80 0.65 0.51 0.49 0.53 0.49 0.45 0.46 0.39 0.36 0.43 0.43 0.36 0.33 0.37 0.43 0.46 0.47 0.53 0.66 0.76 0.84 1.01 1.21 1.26 1.33 1.47 1.49 1.50 1.63 1.75 1.80 1.74 1.67 1.76 1.93 2.30 2.16 1.80 1.63
0.84 0.83 0.87 0.77 0.66 0.70 0.79 0.84 0.82 0.74 0.67 0.55 0.48 0.40 0.39 0.39 0.37 0.32 0.30 0.34 0.35 0.33 0.31 0.32 0.40 0.50 0.55 0.58 0.72 0.86 1.08 1.20 1.34 1.49 1.49 1.52 1.56 1.60 1.69 1.91 2.02 1.96 1.96 2.05 2.09 2.35 2.50 2.22 2.02
0.81 0.75 0.70 0.73 0.69 0.68 0.73 0.94 0.88 0.80 0.66 0.55 0.46 0.37 0.30 0.33 0.32 0.25 0.27 0.29 0.30 0.30 0.36 0.37 0.46 0.67 0.85 0.93 1.14 1.42 1.67 1.73 1.66 1.66 1.72 1.70 1.73 1.79 1.77 1.89 2.08 2.08 2.07 2.11 2.29 2.61 2.92 2.84 2.55
0.83 0.58 0.50 0.62 0.75 0.86 0.71 0.99 0.85 0.78 0.70 0.54 0.46 0.41 0.33 0.35 0.39 0.30 0.28 0.31 0.29 0.32 0.43 0.60 0.80 1.09 1.32 1.43 1.60 1.82 1.93 1.95 1.88 1.89 1.89 1.87 1.77 1.70 1.70 1.83 2.03 2.18 2.30 2.39 2.46 2.46 2.84 3.11 2.92
0.65 0.52 0.52 0.62 0.73 0.76 0.64 0.77 0.72 0.63 0.69 0.61 0.55 0.49 0.44 0.43 0.42 0.43 0.42 0.47 0.48 0.57 0.78 1.10 1.35 1.55 1.68 1.71 1.78 1.96 2.11 2.26 2.27 2.16 2.02 1.91 1.88 1.80 1.71 1.75 1.82 1.88 1.99 2.14 2.28 2.36 2.60 2.80 2.94
0.53 0.59 0.63 0.65 0.74 0.86 0.60 0.60 0.72 0.60 0.58 0.61 0.62 0.53 0.48 0.46 0.47 0.57 0.69 0.82 0.91 1.00 1.19 1.42 1.56 1.70 1.67 1.64 1.67 1.79 1.97 2.12 2.15 2.18 2.15 2.02 1.89 1.78 1.67 1.62 1.71 1.73 1.74 1.90 2.02 2.14 2.41 2.60 2.73
0.58 0.76 0.96 0.98 0.95 0.82 0.50 0.59 0.62 0.44 0.41 0.49 0.55 0.54 0.51 0.47 0.55 0.76 0.92 1.08 1.19 1.28 1.38 1.42 1.41 1.47 1.48 1.45 1.46 1.52 1.57 1.60 1.67 1.78 1.72 1.58 1.47 1.42 1.40 1.32 1.37 1.51 1.56 1.75 1.84 1.79 1.86 2.05 2.28
0.54 0.58 0.84 0.95 0.84 0.72 0.55 0.72 0.64 0.46 0.43 0.41 0.45 0.53 0.61 0.70 0.82 0.95 1.06 1.17 1.21 1.33 1.38 1.34 1.29 1.28 1.21 1.16 1.17 1.17 1.20 1.24 1.26 1.28 1.24 1.17 1.12 1.09 1.06 1.06 1.07 1.14 1.22 1.44 1.67 1.67 1.68 1.73 1.83
0.45 0.45 0.48 0.65 0.63 0.67 0.62 0.72 0.65 0.45 0.42 0.41 0.42 0.52 0.66 0.83 1.08 1.25 1.26 1.16 1.09 1.14 1.22 1.19 1.14 1.07 0.99 0.92 0.94 0.95 1.01 1.03 0.99 0.97 0.92 0.91 0.85 0.84 0.82 0.85 0.95 1.02 1.01 1.11 1.26 1.45 1.52 1.59 1.66
0.35 0.39 0.49 0.72 0.85 0.86 0.72 0.79 0.74 0.56 0.50 0.47 0.50 0.62 0.79 0.95 1.16 1.43 1.54 1.42 1.15 0.99 1.03 0.99 0.97 0.98 0.96 0.91 0.92 0.91 0.82 0.74 0.73 0.75 0.69 0.68 0.73 0.76 0.76 0.73 0.75 0.83 0.86 0.96 1.09 1.15 1.26 1.35 1.50
0.35 0.41 0.51 0.66 0.68 0.90 1.14 1.13 0.84 0.73 0.67 0.66 0.70 0.76 0.83 1.07 1.36 1.49 1.50 1.37 1.20 0.94 0.89 0.87 0.84 0.85 0.91 0.84 0.87 0.89 0.78 0.64 0.60 0.56 0.52 0.53 0.56 0.60 0.60 0.63 0.70 0.73 0.76 0.78 0.79 0.84 0.92 1.00 1.11
0.33 0.40 0.54 0.82 0.83 0.79 1.00 1.04 0.67 0.71 0.81 0.76 0.82 0.91 0.94 1.02 1.05 1.03 1.12 1.13 1.06 0.93 0.85 0.91 0.95 0.95 0.86 0.78 0.78 0.79 0.73 0.63 0.63 0.56 0.47 0.49 0.54 0.55 0.55 0.59 0.63 0.64 0.70 0.74 0.73 0.72 0.76 0.88 0.95

GEFSSGP_prec_meanprecacc_252.txt.gz
Total_Precipitation_Accumulation
2.27 2.55 3.41 4.33 4.91 3.75 2.74 2.26 1.97 1.75 1.42 1.06 0.85 0.86 1.17 1.64 1.95 2.00 1.86 1.67 1.06 0.96 1.04 1.47 1.74 1.64 1.52 1.45 1.44 1.43 1.37 1.35 1.38 1.40 1.38 1.26 1.31 1.41 1.45 1.42 1.34 1.31 1.24 1.21 1.16 1.19 1.24 1.18 1.18
1.98 2.74 3.96 4.89 4.17 2.93 2.51 2.05 1.81 1.54 1.16 0.87 0.74 0.66 0.75 0.62 0.61 1.08 1.98 1.91 1.07 0.84 0.95 1.35 1.81 1.73 1.64 1.61 1.61 1.63 1.48 1.32 1.28 1.22 1.18 1.15 1.25 1.36 1.43 1.47 1.40 1.42 1.33 1.22 1.13 1.11 1.19 1.18 1.22
2.28 3.18 4.41 4.47 3.15 2.45 2.42 1.88 1.42 1.04 0.76 0.81 0.82 0.69 0.74 0.87 0.99 1.48 1.88 1.37 0.98 0.86 0.95 1.46 1.94 1.76 1.66 1.65 1.74 1.69 1.52 1.35 1.23 1.15 1.13 1.11 1.28 1.40 1.43 1.33 1.33 1.41 1.38 1.32 1.31 1.26 1.30 1.29 1.35
2.53 3.63 4.00 3.39 2.59 1.99 1.73 1.47 1.13 0.98 0.69 0.47 0.63 0.81 0.72 0.96 1.14 1.37 1.33 0.95 0.75 0.76 0.85 1.31 1.86 1.72 1.59 1.53 1.67 1.60 1.45 1.43 1.32 1.23 1.21 1.22 1.41 1.63 1.58 1.40 1.40 1.39 1.42 1.33 1.35 1.35 1.39 1.42 1.45
2.80 3.59 3.58 3.21 2.40 2.06 1.55 1.22 1.02 0.98 0.80 0.54 0.53 0.83 0.94 1.26 1.25 1.24 1.16 0.95 0.75 0.76 0.80 1.10 1.61 1.60 1.47 1.43 1.51 1.48 1.47 1.47 1.32 1.26 1.27 1.29 1.37 1.59 1.74 1.61 1.54 1.52 1.49 1.40 1.35 1.34 1.31 1.36 1.46
3.21 3.29 3.37 3.16 2.60 2.28 1.76 1.29 0.94 0.85 0.72 0.58 0.58 0.85 1.17 1.58 1.47 1.42 1.22 1.12 0.98 0.86 0.77 0.91 1.38 1.46 1.36 1.40 1.42 1.42 1.40 1.33 1.19 1.19 1.26 1.27 1.32 1.46 1.63 1.65 1.64 1.60 1.52 1.50 1.45 1.43 1.37 1.38 1.39
2.98 2.94 2.68 2.29 2.44 2.56 1.84 1.16 1.07 1.00 0.94 0.81 0.60 0.89 1.25 1.69 1.57 1.28 1.26 1.32 1.39 1.23 1.03 0.97 1.07 1.15 1.22 1.34 1.39 1.51 1.56 1.37 1.19 1.10 1.13 1.15 1.18 1.28 1.39 1.49 1.53 1.52 1.51 1.50 1.45 1.43 1.44 1.49 1.43
2.42 2.48 2.26 2.19 2.43 2.59 1.59 1.02 0.86 0.84 0.87 0.57 0.50 0.81 1.05 1.30 1.41 1.34 1.30 1.36 1.33 1.27 1.19 1.11 1.12 1.09 1.06 1.15 1.41 1.68 1.76 1.58 1.31 1.16 1.09 1.14 1.14 1.16 1.27 1.30 1.48 1.57 1.56 1.60 1.61 1.55 1.48 1.55 1.53
2.07 2.40 2.46 2.39 2.32 2.04 1.25 0.94 0.74 0.54 0.57 0.51 0.41 0.61 0.80 0.83 1.07 1.28 1.27 1.28 1.24 1.18 1.19 1.12 1.13 1.15 1.21 1.24 1.37 1.68 1.83 1.77 1.37 1.13 1.10 1.02 0.89 0.99 1.11 1.12 1.50 1.67 1.77 1.79 1.78 1.68 1.58 1.51 1.48
2.12 2.34 2.21 1.79 1.57 1.29 0.99 0.85 0.69 0.72 0.81 0.71 0.54 0.62 0.77 0.83 0.94 1.15 1.18 1.08 1.02 1.00 1.02 1.04 1.03 1.01 1.02 1.05 1.40 1.67 1.53 1.59 1.27 1.17 1.08 1.02 1.07 1.10 0.97 1.01 1.40 1.64 1.81 1.82 1.75 1.70 1.54 1.32 1.13
1.78 1.90 1.57 1.35 1.14 0.93 0.87 0.81 0.62 0.74 0.93 0.73 0.55 0.62 0.76 0.86 0.97 1.00 1.07 1.00 0.91 0.88 0.80 0.78 0.83 0.79 0.79 0.89 1.06 1.36 1.57 1.59 1.51 1.42 1.32 1.27 1.19 1.02 0.94 1.01 1.12 1.32 1.44 1.41 1.48 1.46 1.33 1.19 1.10
1.55 1.48 1.28 1.16 0.86 0.90 0.90 0.76 0.67 0.66 0.70 0.51 0.46 0.52 0.69 0.87 0.99 0.95 0.98 0.99 0.91 0.94 0.93 0.76 0.69 0.68 0.67 0.72 0.86 1.10 1.29 1.38 1.37 1.27 1.16 1.34 1.29 1.08 1.02 1.17 1.27 1.32 1.40 1.58 1.60 1.53 1.40 1.25 1.12
1.44 1.49 1.20 0.99 0.85 0.90 0.84 0.77 0.66 0.67 0.56 0.44 0.44 0.58 0.79 0.97 1.04 1.02 0.96 0.97 0.96 0.96 1.00 0.88 0.70 0.64 0.68 0.70 0.75 0.82 1.03 1.12 1.10 1.23 1.16 1.20 1.21 1.10 1.05 1.10 1.33 1.39 1.43 1.65 1.75 1.56 1.46 1.46 1.37
1.26 1.21 1.16 0.99 0.91 0.93 0.94 0.77 0.66 0.78 0.67 0.57 0.62 0.74 0.90 1.00 1.00 0.96 0.88 0.85 0.85 0.86 0.90 0.86 0.75 0.72 0.71 0.68 0.63 0.65 0.68 0.84 0.85 0.85 0.81 1.00 1.15 1.14 1.17 1.11 1.25 1.49 1.56 1.63 1.66 1.58 1.48 1.42 1.42
1.05 1.13 1.26 1.16 1.11 1.07 0.96 1.03 0.80 0.81 0.80 0.68 0.67 0.73 0.94 0.91 0.89 0.86 0.78 0.71 0.66 0.72 0.77 0.80 0.81 0.79 0.77 0.77 0.75 0.69 0.70 0.73 0.79 0.85 0.84 0.94 1.07 1.16 1.17 1.08 1.15 1.38 1.61 1.63 1.61 1.57 1.57 1.38 1.29
1.21 1.49 1.74 1.42 1.21 1.18 1.09 1.23 0.89 0.88 0.83 0.73 0.70 0.69 0.77 0.68 0.68 0.70 0.66 0.60 0.56 0.56 0.59 0.67 0.69 0.72 0.75 0.79 0.82 0.77 0.80 0.81 0.78 0.83 0.81 0.83 0.98 1.14 1.23 1.18 1.15 1.33 1.58 1.78 1.85 1.75 1.68 1.55 1.44
1.54 1.64 1.57 1.47 1.16 1.17 1.10 1.14 0.96 0.82 0.78 0.68 0.66 0.67 0.63 0.56 0.54 0.57 0.56 0.52 0.45 0.44 0.43 0.48 0.55 0.61 0.68 0.75 0.83 0.81 0.83 0.96 1.02 0.90 0.79 0.83 0.95 1.07 1.29 1.41 1.35 1.39 1.61 1.72 1.71 1.74 1.65 1.63 1.56
1.25 1.24 1.24 1.33 1.10 1.01 0.99 0.92 0.93 0.77 0.63 0.57 0.57 0.57 0.54 0.51 0.44 0.44 0.47 0.48 0.43 0.40 0.38 0.40 0.48 0.50 0.52 0.63 0.79 0.89 0.84 0.91 1.12 1.15 1.15 1.19 1.23 1.27 1.43 1.56 1.58 1.59 1.70 1.71 1.83 2.00 1.82 1.64 1.62
0.92 0.92 0.97 0.90 0.76 0.87 0.89 0.82 0.86 0.80 0.65 0.51 0.49 0.53 0.49 0.45 0.46 0.39 0.37 0.44 0.43 0.37 0.33 0.37 0.43 0.46 0.47 0.55 0.67 0.76 0.85 1.02 1.22 1.27 1.34 1.48 1.49 1.50 1.64 1.75 1.81 1.76 1.70 1.80 1.97 2.32 2.18 1.82 1.66
0.84 0.83 0.87 0.77 0.66 0.70 0.80 0.84 0.82 0.74 0.67 0.56 0.48 0.40 0.39 0.39 0.37 0.32 0.31 0.34 0.35 0.35 0.33 0.33 0.41 0.51 0.56 0.60 0.73 0.87 1.09 1.21 1.36 1.50 1.50 1.52 1.57 1.61 1.70 1.91 2.02 1.97 1.97 2.07 2.13 2.38 2.53 2.24 2.04
0.81 0.75 0.70 0.73 0.69 0.68 0.74 0.94 0.88 0.80 0.66 0.55 0.46 0.37 0.30 0.33 0.32 0.25 0.27 0.29 0.30 0.31 0.38 0.39 0.47 0.68 0.87 0.95 1.15 1.42 1.67 1.74 1.67 1.68 1.74 1.71 1.73 1.80 1.77 1.89 2.08 2.08 2.07 2.12 2.32 2.64 2.95 2.87 2.58
0.83 0.58 0.51 0.62 0.75 0.86 0.71 0.99 0.85 0.78 0.70 0.54 0.46 0.41 0.33 0.36 0.39 0.30 0.29 0.32 0.29 0.33 0.45 0.62 0.81 1.10 1.33 1.45 1.62 1.83 1.93 1.96 1.89 1.90 1.90 1.88 1.79 1.71 1.71 1.83 2.03 2.19 2.30 2.40 2.47 2.48 2.86 3.14 2.95
0.65 0.53 0.52 0.62 0.73 0.76 0.64 0.77 0.72 0.63 0.69 0.61 0.55 0.49 0.44 0.44 0.43 0.43 0.42 0.47 0.49 0.59 0.80 1.12 1.37 1.57 1.70 1.74 1.79 1.98 2.12 2.27 2.29 2.18 2.03 1.92 1.88 1.81 1.71 1.76 1.83 1.88 1.99 2.14 2.29 2.37 2.61 2.81 2.97
0.53 0.60 0.63 0.65 0.74 0.86 0.60 0.60 0.72 0.60 0.58 0.61 0.62 0.54 0.48 0.46 0.47 0.57 0.70 0.83 0.92 1.01 1.21 1.43 1.58 1.72 1.69 1.66 1.69 1.81 1.99 2.15 2.17 2.20 2.16 2.03 1.90 1.80 1.68 1.63 1.71 1.74 1.74 1.90 2.03 2.14 2.41 2.62 2.76
0.59 0.76 0.96 0.98 0.95 0.82 0.50 0.59 0.63 0.44 0.42 0.50 0.56 0.55 0.51 0.47 0.56 0.76 0.92 1.08 1.19 1.29 1.40 1.43 1.42 1.49 1.51 1.48 1.48 1.54 1.61 1.64 1.69 1.80 1.73 1.60 1.49 1.44 1.41 1.33 1.38 1.51 1.56 1.75 1.84 1.80 1.87 2.06 2.29
0.54 0.58 0.84 0.95 0.84 0.72 0.55 0.73 0.65 0.46 0.43 0.41 0.46 0.54 0.61 0.71 0.83 0.95 1.06 1.17 1.22 1.34 1.40 1.35 1.31 1.30 1.25 1.20 1.20 1.20 1.24 1.29 1.30 1.30 1.25 1.18 1.14 1.11 1.09 1.08 1.08 1.14 1.22 1.44 1.67 1.67 1.68 1.74 1.84
0.45 0.45 0.48 0.65 0.63 0.67 0.62 0.72 0.65 0.45 0.42 0.41 0.43 0.52 0.67 0.83 1.08 1.26 1.26 1.16 1.09 1.15 1.22 1.21 1.16 1.10 1.02 0.96 0.98 0.99 1.05 1.08 1.03 0.99 0.93 0.92 0.86 0.86 0.84 0.88 0.97 1.03 1.01 1.12 1.26 1.45 1.53 1.60 1.67
0.36 0.39 0.49 0.73 0.85 0.86 0.72 0.79 0.74 0.56 0.50 0.47 0.51 0.63 0.79 0.95 1.16 1.43 1.54 1.42 1.16 1.00 1.03 1.01 0.98 1.01 1.00 0.96 0.98 0.95 0.86 0.78 0.75 0.77 0.71 0.69 0.74 0.77 0.78 0.76 0.78 0.84 0.87 0.97 1.10 1.16 1.27 1.36 1.52
0.36 0.41 0.51 0.66 0.68 0.91 1.14 1.13 0.84 0.73 0.67 0.66 0.70 0.76 0.83 1.08 1.37 1.49 1.51 1.38 1.21 0.95 0.90 0.89 0.86 0.89 0.95 0.89 0.91 0.91 0.80 0.66 0.62 0.57 0.53 0.54 0.57 0.61 0.62 0.65 0.73 0.74 0.76 0.78 0.80 0.85 0.93 1.02 1.12
0.33 0.40 0.54 0.83 0.84 0.79 1.00 1.04 0.67 0.71 0.82 0.76 0.82 0.91 0.94 1.02 1.06 1.04 1.13 1.14 1.08 0.95 0.89 0.95 0.99 0.99 0.90 0.81 0.80 0.81 0.74 0.64 0.64 0.57 0.49 0.51 0.56 0.57 0.57 0.62 0.66 0.66 0.72 0.75 0.74 0.73 0.78 0.89 0.97

GEFSSGP_prec_meanprecacc_258.txt.gz
Total_Precipitation_Accumulation
2.28 2.56 3.41 4.33 4.92 3.76 2.75 2.28 1.99 1.76 1.43 1.07 0.86 0.87 1.19 1.65 1.97 2.02 1.88 1.68 1.06 0.97 1.06 1.49 1.79 1.70 1.58 1.51 1.49 1.50 1.46 1.42 1.44 1.46 1.44 1.33 1.44 1.56 1.57 1.50 1.42 1.43 1.33 1.27 1.25 1.28 1.36 1.26 1.27
1.98 2.75 3.97 4.90 4.18 2.93 2.52 2.07 1.83 1.56 1.19 0.88 0.75 0.66 0.76 0.63 0.61 1.08 1.99 1.92 1.07 0.84 0.97 1.35 1.85 1.77 1.70 1.67 1.65 1.68 1.56 1.39 1.34 1.29 1.27 1.27 1.38 1.48 1.58 1.61 1.50 1.52 1.44 1.29 1.22 1.20 1.29 1.28 1.31
2.28 3.18 4.41 4.48 3.16 2.46 2.43 1.89 1.43 1.05 0.78 0.83 0.83 0.70 0.75 0.88 1.00 1.48 1.89 1.37 0.98 0.86 0.95 1.47 1.98 1.80 1.70 1.69 1.79 1.75 1.58 1.41 1.28 1.21 1.23 1.27 1.39 1.51 1.56 1.46 1.44 1.52 1.51 1.42 1.41 1.36 1.40 1.39 1.45
2.54 3.63 4.00 3.40 2.59 2.00 1.74 1.48 1.14 0.98 0.70 0.48 0.64 0.82 0.73 0.97 1.15 1.37 1.33 0.96 0.75 0.76 0.86 1.33 1.91 1.77 1.64 1.58 1.73 1.64 1.51 1.50 1.37 1.28 1.31 1.39 1.54 1.74 1.72 1.57 1.56 1.54 1.55 1.46 1.47 1.46 1.49 1.52 1.53
2.80 3.59 3.58 3.21 2.41 2.07 1.55 1.22 1.02 0.99 0.80 0.54 0.54 0.84 0.95 1.27 1.26 1.25 1.16 0.96 0.75 0.76 0.81 1.11 1.65 1.64 1.53 1.49 1.57 1.53 1.52 1.53 1.38 1.30 1.33 1.40 1.50 1.73 1.88 1.80 1.73 1.68 1.63 1.53 1.47 1.47 1.44 1.46 1.54
3.21 3.29 3.38 3.17 2.60 2.28 1.77 1.29 0.94 0.86 0.73 0.59 0.58 0.86 1.17 1.59 1.47 1.42 1.22 1.12 0.98 0.86 0.77 0.91 1.41 1.51 1.42 1.44 1.47 1.45 1.44 1.38 1.26 1.27 1.33 1.34 1.41 1.57 1.74 1.78 1.78 1.73 1.62 1.61 1.59 1.58 1.49 1.49 1.46
2.98 2.94 2.69 2.29 2.44 2.56 1.84 1.16 1.07 1.01 0.95 0.82 0.60 0.89 1.25 1.70 1.57 1.28 1.26 1.32 1.39 1.23 1.03 0.98 1.09 1.18 1.25 1.36 1.41 1.54 1.60 1.42 1.25 1.18 1.20 1.22 1.24 1.35 1.46 1.56 1.61 1.59 1.57 1.58 1.55 1.53 1.55 1.58 1.49
2.42 2.48 2.26 2.20 2.43 2.59 1.59 1.02 0.86 0.84 0.88 0.58 0.50 0.81 1.06 1.31 1.41 1.35 1.30 1.36 1.33 1.27 1.20 1.12 1.13 1.10 1.07 1.16 1.42 1.70 1.79 1.63 1.37 1.22 1.14 1.19 1.18 1.21 1.34 1.36 1.55 1.63 1.62 1.66 1.68 1.62 1.56 1.62 1.58
2.07 2.40 2.46 2.40 2.32 2.05 1.25 0.94 0.74 0.54 0.57 0.51 0.41 0.61 0.80 0.83 1.09 1.29 1.28 1.29 1.25 1.18 1.20 1.13 1.13 1.16 1.23 1.25 1.37 1.70 1.85 1.81 1.41 1.16 1.14 1.07 0.96 1.06 1.16 1.18 1.56 1.74 1.85 1.86 1.85 1.73 1.62 1.55 1.53
2.12 2.34 2.22 1.79 1.57 1.29 0.99 0.86 0.70 0.72 0.82 0.71 0.54 0.62 0.77 0.83 0.95 1.16 1.19 1.09 1.03 1.01 1.03 1.05 1.04 1.01 1.03 1.06 1.42 1.68 1.54 1.60 1.28 1.19 1.10 1.05 1.12 1.14 0.99 1.06 1.46 1.71 1.87 1.86 1.79 1.74 1.57 1.34 1.19
1.79 1.91 1.58 1.35 1.14 0.93 0.87 0.81 0.62 0.74 0.93 0.73 0.55 0.62 0.76 0.86 0.97 1.02 1.08 1.01 0.92 0.89 0.81 0.78 0.84 0.80 0.80 0.91 1.08 1.38 1.60 1.61 1.53 1.44 1.33 1.29 1.21 1.04 0.97 1.05 1.16 1.35 1.46 1.42 1.51 1.49 1.36 1.22 1.15
1.56 1.49 1.29 1.16 0.86 0.90 0.90 0.76 0.67 0.66 0.70 0.51 0.46 0.52 0.69 0.87 1.00 0.97 0.99 1.00 0.91 0.94 0.93 0.76 0.70 0.70 0.69 0.74 0.88 1.12 1.30 1.40 1.39 1.29 1.17 1.35 1.31 1.10 1.04 1.19 1.30 1.35 1.42 1.59 1.62 1.55 1.42 1.28 1.16
1.44 1.49 1.20 0.99 0.85 0.90 0.84 0.77 0.66 0.67 0.56 0.44 0.44 0.58 0.79 0.98 1.04 1.02 0.96 0.97 0.97 0.96 1.01 0.89 0.71 0.66 0.69 0.73 0.79 0.85 1.04 1.13 1.13 1.25 1.17 1.21 1.22 1.11 1.06 1.12 1.35 1.41 1.45 1.67 1.76 1.58 1.49 1.48 1.41
1.26 1.21 1.16 0.99 0.91 0.93 0.94 0.77 0.66 0.78 0.67 0.57 0.62 0.74 0.90 1.00 1.00 0.96 0.88 0.85 0.86 0.87 0.91 0.86 0.76 0.74 0.74 0.72 0.67 0.68 0.70 0.85 0.87 0.87 0.82 1.01 1.16 1.15 1.18 1.12 1.26 1.50 1.58 1.64 1.67 1.60 1.51 1.46 1.46
1.05 1.13 1.26 1.16 1.11 1.07 0.96 1.03 0.80 0.81 0.80 0.68 0.67 0.74 0.94 0.91 0.89 0.86 0.78 0.71 0.66 0.73 0.77 0.81 0.82 0.81 0.79 0.80 0.77 0.72 0.71 0.75 0.81 0.87 0.85 0.95 1.08 1.17 1.17 1.08 1.16 1.39 1.62 1.68 1.66 1.61 1.61 1.43 1.33
1.21 1.50 1.75 1.42 1.21 1.18 1.09 1.23 0.89 0.88 0.83 0.73 0.70 0.69 0.77 0.69 0.68 0.70 0.66 0.60 0.56 0.56 0.61 0.68 0.69 0.74 0.78 0.82 0.86 0.80 0.82 0.83 0.80 0.84 0.83 0.84 0.99 1.15 1.25 1.19 1.16 1.34 1.59 1.84 1.98 1.83 1.74 1.60 1.48
1.54 1.64 1.57 1.47 1.16 1.17 1.10 1.14 0.96 0.82 0.78 0.68 0.67 0.67 0.64 0.57 0.54 0.57 0.56 0.52 0.45 0.44 0.43 0.49 0.56 0.63 0.70 0.78 0.87 0.84 0.84 0.98 1.03 0.92 0.81 0.85 0.97 1.07 1.30 1.42 1.36 1.41 1.62 1.76 1.84 1.88 1.74 1.70 1.61
1.25 1.24 1.24 1.33 1.10 1.02 0.99 0.92 0.93 0.77 0.63 0.58 0.57 0.58 0.54 0.51 0.44 0.45 0.47 0.48 0.43 0.40 0.38 0.40 0.48 0.52 0.53 0.66 0.84 0.93 0.87 0.93 1.13 1.17 1.17 1.20 1.24 1.27 1.44 1.57 1.59 1.60 1.72 1.75 1.93 2.15 1.96 1.75 1.70
0.92 0.92 0.97 0.90 0.76 0.87 0.89 0.82 0.86 0.80 0.65 0.52 0.49 0.53 0.49 0.46 0.46 0.39 0.37 0.44 0.43 0.37 0.34 0.38 0.44 0.47 0.48 0.57 0.71 0.80 0.88 1.04 1.24 1.29 1.36 1.50 1.50 1.51 1.64 1.76 1.82 1.79 1.74 1.84 2.04 2.44 2.33 1.97 1.75
0.84 0.83 0.87 0.77 0.66 0.70 0.80 0.84 0.82 0.74 0.67 0.56 0.48 0.41 0.39 0.39 0.37 0.32 0.31 0.34 0.36 0.35 0.33 0.33 0.41 0.52 0.57 0.61 0.74 0.89 1.11 1.23 1.37 1.52 1.51 1.53 1.58 1.62 1.71 1.92 2.04 2.01 2.02 2.12 2.18 2.46 2.63 2.36 2.14
0.82 0.76 0.70 0.73 0.69 0.69 0.74 0.94 0.88 0.80 0.66 0.55 0.46 0.37 0.30 0.34 0.32 0.25 0.27 0.29 0.31 0.32 0.39 0.39 0.48 0.68 0.87 0.95 1.16 1.43 1.68 1.75 1.69 1.69 1.75 1.73 1.75 1.81 1.78 1.90 2.10 2.11 2.11 2.18 2.37 2.69 3.01 2.94 2.64
0.83 0.58 0.51 0.63 0.76 0.87 0.71 1.00 0.85 0.78 0.70 0.54 0.46 0.41 0.33 0.36 0.39 0.30 0.29 0.32 0.29 0.34 0.46 0.63 0.82 1.11 1.34 1.45 1.62 1.84 1.94 1.97 1.90 1.91 1.92 1.91 1.81 1.73 1.72 1.84 2.04 2.20 2.33 2.45 2.52 2.53 2.92 3.20 2.99
0.65 0.53 0.52 0.62 0.73 0.76 0.64 0.77 0.73 0.63 0.70 0.61 0.55 0.49 0.44 0.44 0.43 0.43 0.42 0.47 0.49 0.59 0.80 1.13 1.38 1.59 1.71 1.75 1.80 1.99 2.13 2.28 2.29 2.19 2.05 1.95 1.91 1.84 1.73 1.77 1.83 1.89 2.00 2.17 2.31 2.39 2.64 2.85 3.00
0.54 0.60 0.63 0.65 0.74 0.86 0.60 0.61 0.73 0.60 0.58 0.61 0.62 0.54 0.49 0.46 0.47 0.57 0.70 0.84 0.92 1.01 1.21 1.44 1.59 1.74 1.71 1.67 1.70 1.82 2.00 2.16 2.18 2.22 2.19 2.06 1.93 1.82 1.71 1.64 1.72 1.74 1.75 1.91 2.04 2.15 2.43 2.64 2.77
0.59 0.77 0.97 0.98 0.96 0.82 0.50 0.60 0.63 0.44 0.42 0.50 0.56 0.55 0.51 0.47 0.56 0.76 0.93 1.09 1.19 1.29 1.40 1.44 1.42 1.49 1.52 1.48 1.48 1.55 1.63 1.66 1.70 1.82 1.75 1.63 1.52 1.46 1.44 1.36 1.40 1.52 1.57 1.76 1.85 1.80 1.88 2.07 2.29
0.54 0.59 0.85 0.95 0.85 0.72 0.55 0.73 0.65 0.46 0.43 0.42 0.46 0.54 0.61 0.71 0.83 0.95 1.06 1.18 1.22 1.34 1.40 1.35 1.32 1.31 1.26 1.20 1.21 1.21 1.25 1.32 1.32 1.33 1.28 1.20 1.16 1.14 1.10 1.10 1.11 1.16 1.23 1.45 1.67 1.68 1.68 1.74 1.84
0.46 0.45 0.48 0.65 0.63 0.67 0.62 0.72 0.65 0.45 0.42 0.41 0.43 0.53 0.67 0.84 1.08 1.26 1.26 1.17 1.10 1.15 1.22 1.21 1.16 1.10 1.03 0.97 0.99 1.00 1.06 1.10 1.07 1.02 0.96 0.94 0.87 0.87 0.85 0.89 1.00 1.06 1.04 1.13 1.27 1.46 1.53 1.60 1.68
0.36 0.40 0.49 0.73 0.85 0.86 0.72 0.79 0.74 0.56 0.50 0.47 0.51 0.63 0.80 0.95 1.16 1.44 1.55 1.43 1.17 1.00 1.03 1.01 0.99 1.02 1.01 0.97 0.99 0.96 0.87 0.80 0.79 0.80 0.73 0.71 0.76 0.78 0.78 0.77 0.81 0.89 0.90 0.98 1.10 1.16 1.27 1.36 1.52
0.37 0.42 0.52 0.67 0.68 0.91 1.15 1.13 0.84 0.73 0.67 0.66 0.70 0.76 0.84 1.08 1.38 1.50 1.52 1.39 1.22 0.96 0.90 0.90 0.87 0.89 0.96 0.90 0.93 0.93 0.81 0.68 0.63 0.59 0.54 0.55 0.58 0.62 0.63 0.66 0.75 0.78 0.80 0.81 0.82 0.86 0.94 1.02 1.13
0.33 0.41 0.56 0.83 0.84 0.79 1.01 1.05 0.67 0.71 0.82 0.76 0.83 0.91 0.95 1.03 1.07 1.06 1.15 1.15 1.08 0.96 0.89 0.96 0.99 0.99 0.92 0.84 0.83 0.82 0.75 0.66 0.65 0.58 0.50 0.52 0.58 0.60 0.60 0.65 0.69 0.69 0.75 0.78 0.76 0.76 0.80 0.92 1.00

GEFSSGP_prec_meanprecacc_264.txt.gz
Total_Precipitation_Accumulation
2.29 2.57 3.42 4.35 4.98 3.84 2.82 2.32 2.02 1.80 1.46 1.08 0.86 0.88 1.21 1.68 2.00 2.07 1.90 1.68 1.06 0.98 1.07 1.50 1.81 1.72 1.61 1.53 1.52 1.54 1.52 1.48 1.50 1.52 1.51 1.42 1.56 1.66 1.65 1.57 1.49 1.51 1.41 1.36 1.33 1.37 1.46 1.34 1.34
1.99 2.75 3.98 4.94 4.25 3.00 2.57 2.09 1.84 1.57 1.19 0.88 0.75 0.67 0.77 0.64 0.62 1.09 1.99 1.92 1.07 0.85 0.98 1.37 1.86 1.78 1.72 1.69 1.68 1.72 1.62 1.43 1.39 1.35 1.34 1.35 1.47 1.59 1.71 1.70 1.58 1.60 1.51 1.37 1.30 1.29 1.40 1.36 1.38
2.28 3.19 4.43 4.54 3.21 2.50 2.47 1.91 1.44 1.05 0.78 0.83 0.84 0.70 0.76 0.90 1.01 1.49 1.90 1.37 0.98 0.86 0.96 1.48 1.99 1.82 1.72 1.72 1.83 1.80 1.63 1.45 1.32 1.29 1.31 1.35 1.47 1.58 1.66 1.55 1.52 1.61 1.61 1.52 1.48 1.44 1.50 1.48 1.50
2.54 3.65 4.03 3.44 2.62 2.01 1.75 1.50 1.15 0.99 0.70 0.48 0.65 0.83 0.74 0.98 1.16 1.38 1.33 0.97 0.75 0.77 0.87 1.33 1.92 1.80 1.67 1.61 1.78 1.71 1.56 1.54 1.43 1.34 1.37 1.45 1.62 1.82 1.83 1.67 1.66 1.66 1.67 1.56 1.56 1.54 1.57 1.57 1.58
2.81 3.61 3.62 3.25 2.43 2.08 1.56 1.23 1.04 1.01 0.82 0.54 0.54 0.85 0.96 1.28 1.26 1.25 1.16 0.96 0.76 0.77 0.81 1.11 1.66 1.67 1.55 1.52 1.61 1.57 1.57 1.59 1.45 1.37 1.39 1.45 1.56 1.80 1.96 1.90 1.84 1.82 1.77 1.66 1.58 1.57 1.53 1.52 1.59
3.23 3.31 3.42 3.21 2.62 2.29 1.77 1.30 0.94 0.87 0.74 0.59 0.58 0.86 1.18 1.59 1.48 1.43 1.23 1.12 0.98 0.86 0.77 0.92 1.42 1.52 1.43 1.46 1.49 1.48 1.48 1.42 1.32 1.33 1.38 1.38 1.45 1.63 1.79 1.85 1.91 1.86 1.78 1.76 1.71 1.70 1.59 1.57 1.52
3.00 2.97 2.72 2.32 2.46 2.58 1.84 1.17 1.07 1.02 0.98 0.83 0.61 0.91 1.26 1.71 1.57 1.28 1.26 1.32 1.39 1.23 1.03 0.99 1.11 1.19 1.27 1.38 1.42 1.55 1.62 1.45 1.29 1.23 1.25 1.27 1.28 1.39 1.50 1.61 1.70 1.70 1.72 1.71 1.68 1.63 1.63 1.66 1.54
2.43 2.50 2.29 2.22 2.45 2.61 1.59 1.02 0.86 0.85 0.90 0.58 0.51 0.83 1.07 1.31 1.41 1.35 1.30 1.36 1.34 1.27 1.20 1.13 1.15 1.12 1.10 1.18 1.43 1.71 1.80 1.65 1.40 1.26 1.19 1.25 1.23 1.26 1.37 1.40 1.60 1.70 1.70 1.73 1.76 1.68 1.61 1.65 1.62
2.07 2.41 2.48 2.41 2.34 2.06 1.25 0.94 0.74 0.55 0.57 0.51 0.41 0.62 0.80 0.83 1.09 1.30 1.29 1.31 1.26 1.19 1.21 1.15 1.15 1.17 1.24 1.28 1.38 1.71 1.87 1.83 1.43 1.19 1.18 1.13 1.03 1.12 1.21 1.21 1.61 1.80 1.92 1.92 1.89 1.77 1.65 1.57 1.57
2.13 2.36 2.23 1.81 1.57 1.30 0.99 0.86 0.70 0.72 0.82 0.71 0.54 0.62 0.77 0.83 0.96 1.19 1.23 1.11 1.04 1.01 1.04 1.06 1.05 1.02 1.04 1.08 1.45 1.73 1.58 1.62 1.30 1.21 1.14 1.11 1.18 1.20 1.04 1.10 1.51 1.75 1.93 1.91 1.83 1.77 1.60 1.37 1.21
1.79 1.93 1.59 1.36 1.15 0.93 0.87 0.82 0.62 0.74 0.93 0.73 0.55 0.62 0.76 0.86 0.98 1.05 1.12 1.03 0.93 0.90 0.82 0.79 0.85 0.81 0.81 0.93 1.12 1.42 1.64 1.63 1.55 1.47 1.36 1.33 1.25 1.09 1.01 1.10 1.22 1.41 1.52 1.47 1.55 1.53 1.39 1.23 1.18
1.56 1.49 1.29 1.16 0.86 0.90 0.90 0.76 0.67 0.66 0.70 0.51 0.46 0.52 0.69 0.87 1.00 0.98 1.01 1.01 0.92 0.95 0.94 0.78 0.71 0.71 0.70 0.76 0.91 1.17 1.36 1.44 1.43 1.33 1.20 1.39 1.36 1.16 1.09 1.27 1.38 1.40 1.46 1.65 1.65 1.57 1.44 1.30 1.18
1.44 1.49 1.20 0.99 0.85 0.90 0.84 0.77 0.66 0.67 0.56 0.44 0.44 0.58 0.79 0.98 1.04 1.03 0.97 0.98 0.98 0.97 1.02 0.90 0.71 0.66 0.72 0.75 0.81 0.88 1.09 1.18 1.16 1.29 1.20 1.24 1.27 1.15 1.09 1.15 1.40 1.45 1.49 1.72 1.79 1.60 1.51 1.51 1.45
1.26 1.21 1.16 0.99 0.91 0.93 0.94 0.77 0.66 0.79 0.67 0.57 0.62 0.74 0.90 1.00 1.01 0.96 0.88 0.85 0.86 0.87 0.92 0.88 0.77 0.75 0.75 0.73 0.69 0.70 0.73 0.88 0.88 0.89 0.84 1.03 1.19 1.18 1.20 1.14 1.29 1.53 1.60 1.66 1.69 1.62 1.54 1.49 1.51
1.05 1.13 1.26 1.16 1.11 1.07 0.96 1.04 0.80 0.81 0.80 0.68 0.67 0.74 0.94 0.91 0.90 0.86 0.78 0.71 0.67 0.74 0.78 0.83 0.84 0.82 0.80 0.80 0.78 0.73 0.73 0.76 0.82 0.88 0.86 0.96 1.09 1.18 1.19 1.10 1.18 1.41 1.64 1.69 1.67 1.61 1.62 1.45 1.37
1.21 1.50 1.75 1.42 1.21 1.18 1.09 1.24 0.89 0.88 0.83 0.73 0.70 0.69 0.78 0.70 0.68 0.70 0.66 0.60 0.56 0.57 0.62 0.69 0.70 0.76 0.80 0.83 0.87 0.81 0.83 0.83 0.80 0.86 0.85 0.85 1.00 1.17 1.27 1.20 1.16 1.35 1.60 1.85 1.98 1.84 1.75 1.62 1.51
1.54 1.64 1.57 1.48 1.16 1.17 1.10 1.14 0.97 0.82 0.78 0.68 0.67 0.68 0.65 0.58 0.54 0.57 0.56 0.52 0.45 0.44 0.43 0.49 0.57 0.68 0.74 0.80 0.89 0.85 0.85 0.98 1.04 0.93 0.82 0.86 0.98 1.09 1.31 1.43 1.37 1.42 1.63 1.76 1.85 1.88 1.76 1.72 1.64
1.26 1.24 1.24 1.33 1.10 1.02 0.99 0.93 0.93 0.77 0.63 0.58 0.57 0.58 0.55 0.51 0.44 0.45 0.47 0.48 0.43 0.40 0.38 0.40 0.49 0.54 0.55 0.69 0.86 0.96 0.88 0.94 1.14 1.18 1.19 1.22 1.26 1.29 1.45 1.57 1.60 1.62 1.74 1.77 1.95 2.16 1.97 1.77 1.72
0.92 0.92 0.97 0.90 0.76 0.87 0.89 0.83 0.87 0.80 0.65 0.52 0.49 0.53 0.49 0.46 0.46 0.40 0.37 0.44 0.44 0.38 0.34 0.38 0.45 0.48 0.51 0.62 0.75 0.84 0.92 1.06 1.25 1.30 1.37 1.51 1.52 1.54 1.66 1.76 1.84 1.81 1.75 1.85 2.06 2.46 2.36 2.01 1.78
0.84 0.83 0.87 0.77 0.66 0.71 0.80 0.85 0.82 0.75 0.67 0.56 0.48 0.41 0.39 0.39 0.37 0.32 0.31 0.34 0.36 0.35 0.33 0.34 0.42 0.53 0.59 0.65 0.78 0.92 1.14 1.26 1.39 1.54 1.54 1.55 1.60 1.65 1.72 1.93 2.05 2.03 2.03 2.12 2.19 2.47 2.67 2.42 2.18
0.82 0.76 0.70 0.73 0.69 0.69 0.74 0.95 0.89 0.80 0.66 0.55 0.47 0.37 0.30 0.34 0.32 0.25 0.27 0.29 0.31 0.32 0.40 0.41 0.51 0.71 0.89 0.96 1.17 1.45 1.71 1.78 1.72 1.72 1.78 1.76 1.77 1.84 1.81 1.91 2.11 2.12 2.13 2.20 2.39 2.71 3.05 3.02 2.73
0.84 0.58 0.51 0.63 0.77 0.88 0.72 1.02 0.87 0.78 0.70 0.54 0.46 0.41 0.33 0.36 0.39 0.30 0.29 0.32 0.29 0.34 0.47 0.64 0.84 1.14 1.36 1.46 1.63 1.85 1.96 2.00 1.92 1.93 1.95 1.94 1.84 1.76 1.76 1.87 2.06 2.22 2.35 2.48 2.55 2.55 2.95 3.27 3.10
0.66 0.53 0.52 0.62 0.74 0.77 0.65 0.78 0.74 0.63 0.70 0.61 0.55 0.50 0.44 0.44 0.43 0.43 0.42 0.47 0.49 0.59 0.80 1.14 1.41 1.60 1.72 1.75 1.81 2.00 2.14 2.29 2.31 2.21 2.07 1.99 1.95 1.88 1.78 1.81 1.86 1.91 2.02 2.19 2.33 2.41 2.66 2.88 3.07
0.54 0.60 0.64 0.66 0.75 0.88 0.61 0.61 0.74 0.61 0.58 0.61 0.63 0.55 0.49 0.46 0.47 0.57 0.70 0.84 0.92 1.01 1.22 1.45 1.61 1.75 1.71 1.68 1.70 1.83 2.01 2.17 2.19 2.23 2.22 2.10 1.98 1.87 1.75 1.67 1.75 1.76 1.77 1.92 2.05 2.17 2.45 2.66 2.80
0.60 0.78 1.00 1.01 0.99 0.84 0.50 0.60 0.63 0.44 0.42 0.50 0.56 0.55 0.51 0.48 0.56 0.76 0.93 1.09 1.20 1.30 1.41 1.45 1.44 1.51 1.53 1.49 1.49 1.56 1.63 1.66 1.71 1.83 1.77 1.66 1.56 1.51 1.48 1.39 1.42 1.54 1.60 1.77 1.86 1.83 1.90 2.09 2.31
0.55 0.60 0.88 0.99 0.87 0.73 0.55 0.73 0.65 0.46 0.43 0.42 0.46 0.54 0.61 0.71 0.83 0.96 1.06 1.18 1.23 1.36 1.41 1.37 1.33 1.33 1.27 1.21 1.22 1.21 1.25 1.33 1.33 1.34 1.30 1.23 1.19 1.17 1.13 1.13 1.12 1.17 1.24 1.46 1.68 1.69 1.70 1.76 1.86
0.46 0.46 0.50 0.67 0.65 0.68 0.62 0.73 0.65 0.45 0.42 0.41 0.43 0.53 0.67 0.84 1.08 1.26 1.26 1.17 1.11 1.17 1.24 1.22 1.17 1.12 1.03 0.98 1.00 1.01 1.07 1.11 1.08 1.03 0.97 0.97 0.90 0.90 0.89 0.93 1.01 1.07 1.05 1.14 1.27 1.46 1.54 1.62 1.69
0.37 0.41 0.51 0.75 0.89 0.89 0.74 0.80 0.75 0.56 0.50 0.47 0.51 0.63 0.80 0.96 1.16 1.44 1.55 1.43 1.19 1.01 1.03 1.01 1.00 1.03 1.02 0.99 1.00 0.97 0.89 0.80 0.79 0.80 0.73 0.73 0.78 0.79 0.81 0.81 0.86 0.92 0.93 1.01 1.11 1.17 1.28 1.38 1.54
0.38 0.44 0.54 0.69 0.71 0.94 1.18 1.15 0.84 0.73 0.67 0.66 0.70 0.76 0.84 1.09 1.38 1.51 1.52 1.39 1.23 0.97 0.90 0.90 0.89 0.92 0.99 0.93 0.95 0.94 0.82 0.68 0.64 0.60 0.55 0.56 0.59 0.64 0.64 0.69 0.79 0.82 0.84 0.86 0.85 0.88 0.96 1.04 1.15
0.34 0.42 0.57 0.87 0.87 0.81 1.02 1.06 0.67 0.71 0.82 0.76 0.83 0.91 0.95 1.04 1.07 1.07 1.15 1.15 1.09 0.97 0.91 0.97 1.00 1.00 0.94 0.87 0.85 0.83 0.76 0.66 0.66 0.60 0.51 0.53 0.59 0.61 0.62 0.66 0.71 0.72 0.79 0.83 0.81 0.79 0.83 0.94 1.03

GEFSSGP_prec_meanprecacc_270.txt.gz
Total_Precipitation_Accumulation
2.30 2.58 3.45 4.40 5.03 3.88 2.86 2.35 2.04 1.82 1.47 1.08 0.86 0.88 1.22 1.70 2.03 2.08 1.91 1.68 1.07 0.98 1.08 1.51 1.83 1.73 1.62 1.54 1.53 1.57 1.56 1.52 1.54 1.55 1.55 1.47 1.60 1.70 1.69 1.61 1.53 1.55 1.47 1.43 1.39 1.44 1.52 1.38 1.39
1.99 2.78 4.03 5.00 4.31 3.05 2.60 2.10 1.85 1.58 1.19 0.89 0.75 0.68 0.79 0.65 0.62 1.09 2.00 1.92 1.07 0.85 0.98 1.38 1.87 1.79 1.73 1.70 1.70 1.75 1.66 1.47 1.43 1.40 1.37 1.39 1.51 1.65 1.77 1.76 1.63 1.65 1.56 1.42 1.34 1.33 1.45 1.41 1.42
2.30 3.23 4.48 4.59 3.24 2.52 2.48 1.91 1.44 1.05 0.78 0.83 0.84 0.72 0.77 0.91 1.02 1.50 1.90 1.37 0.99 0.88 0.97 1.49 2.00 1.83 1.74 1.74 1.86 1.83 1.64 1.48 1.37 1.35 1.36 1.38 1.51 1.63 1.71 1.60 1.58 1.65 1.65 1.55 1.51 1.47 1.56 1.53 1.56
2.56 3.69 4.08 3.47 2.63 2.02 1.76 1.50 1.15 0.99 0.70 0.48 0.65 0.84 0.75 0.99 1.18 1.39 1.34 0.97 0.76 0.78 0.87 1.33 1.94 1.82 1.68 1.63 1.81 1.74 1.59 1.57 1.47 1.41 1.45 1.50 1.65 1.86 1.88 1.74 1.72 1.70 1.71 1.61 1.61 1.59 1.63 1.61 1.61
2.84 3.66 3.66 3.27 2.44 2.09 1.57 1.24 1.04 1.01 0.82 0.55 0.54 0.86 0.98 1.31 1.28 1.26 1.17 0.97 0.77 0.77 0.82 1.11 1.68 1.68 1.56 1.53 1.63 1.59 1.60 1.63 1.49 1.42 1.46 1.53 1.62 1.85 2.02 1.97 1.91 1.88 1.83 1.72 1.64 1.62 1.58 1.57 1.62
3.25 3.34 3.45 3.22 2.63 2.30 1.78 1.30 0.95 0.87 0.75 0.60 0.58 0.87 1.20 1.62 1.50 1.44 1.23 1.13 0.99 0.87 0.78 0.93 1.43 1.54 1.44 1.46 1.51 1.49 1.50 1.47 1.36 1.37 1.42 1.43 1.50 1.68 1.84 1.90 1.97 1.93 1.84 1.82 1.77 1.74 1.64 1.61 1.55
3.01 2.98 2.75 2.33 2.47 2.59 1.85 1.17 1.07 1.02 0.98 0.84 0.61 0.92 1.29 1.74 1.60 1.31 1.28 1.33 1.40 1.24 1.05 1.01 1.12 1.21 1.30 1.39 1.44 1.57 1.64 1.48 1.33 1.26 1.29 1.32 1.34 1.43 1.53 1.65 1.75 1.77 1.78 1.78 1.72 1.67 1.67 1.70 1.57
2.44 2.51 2.31 2.24 2.46 2.62 1.60 1.02 0.86 0.85 0.91 0.60 0.51 0.84 1.09 1.33 1.43 1.36 1.31 1.37 1.35 1.28 1.21 1.14 1.15 1.12 1.11 1.20 1.46 1.75 1.84 1.69 1.44 1.30 1.22 1.29 1.28 1.31 1.42 1.43 1.64 1.75 1.77 1.79 1.80 1.73 1.66 1.70 1.66
2.08 2.42 2.51 2.43 2.34 2.07 1.25 0.94 0.75 0.55 0.58 0.52 0.42 0.62 0.81 0.84 1.10 1.30 1.30 1.31 1.27 1.20 1.22 1.16 1.16 1.18 1.26 1.29 1.40 1.75 1.92 1.87 1.46 1.22 1.21 1.16 1.05 1.14 1.24 1.25 1.66 1.85 1.97 1.96 1.94 1.81 1.68 1.60 1.60
2.13 2.36 2.25 1.82 1.58 1.30 1.00 0.86 0.71 0.73 0.82 0.72 0.55 0.62 0.77 0.84 0.96 1.19 1.23 1.12 1.06 1.04 1.06 1.08 1.07 1.04 1.06 1.10 1.45 1.74 1.59 1.64 1.31 1.22 1.15 1.12 1.19 1.22 1.06 1.13 1.55 1.80 1.96 1.94 1.87 1.80 1.63 1.39 1.23
1.79 1.94 1.60 1.36 1.15 0.93 0.87 0.82 0.63 0.75 0.94 0.74 0.56 0.63 0.76 0.87 0.99 1.06 1.12 1.04 0.94 0.93 0.84 0.80 0.86 0.82 0.83 0.95 1.13 1.44 1.67 1.64 1.56 1.47 1.36 1.34 1.26 1.10 1.03 1.12 1.25 1.44 1.54 1.48 1.56 1.55 1.41 1.25 1.19
1.56 1.49 1.29 1.16 0.86 0.90 0.90 0.76 0.68 0.66 0.71 0.52 0.46 0.53 0.69 0.88 1.01 0.99 1.02 1.02 0.93 0.98 0.96 0.79 0.72 0.72 0.72 0.78 0.92 1.18 1.39 1.46 1.43 1.34 1.21 1.40 1.37 1.16 1.10 1.27 1.39 1.41 1.48 1.65 1.66 1.59 1.46 1.31 1.19
1.44 1.49 1.20 0.99 0.85 0.90 0.84 0.77 0.66 0.67 0.57 0.45 0.45 0.58 0.80 0.98 1.05 1.04 0.98 0.98 0.98 0.99 1.04 0.92 0.72 0.68 0.73 0.76 0.82 0.89 1.11 1.21 1.17 1.30 1.21 1.25 1.28 1.16 1.09 1.16 1.40 1.46 1.50 1.73 1.80 1.61 1.52 1.53 1.48
1.27 1.22 1.16 0.99 0.91 0.93 0.94 0.77 0.66 0.79 0.68 0.57 0.63 0.75 0.91 1.02 1.02 0.97 0.89 0.86 0.87 0.88 0.93 0.89 0.78 0.76 0.77 0.73 0.70 0.71 0.73 0.89 0.89 0.90 0.85 1.04 1.20 1.19 1.21 1.14 1.30 1.54 1.61 1.68 1.71 1.62 1.54 1.50 1.53
1.05 1.13 1.27 1.16 1.11 1.07 0.96 1.04 0.81 0.81 0.80 0.69 0.68 0.74 0.95 0.92 0.90 0.86 0.79 0.71 0.67 0.75 0.79 0.84 0.85 0.84 0.81 0.81 0.79 0.74 0.73 0.76 0.82 0.88 0.88 0.99 1.11 1.20 1.20 1.11 1.19 1.42 1.65 1.71 1.69 1.62 1.63 1.45 1.38
1.22 1.50 1.75 1.43 1.21 1.18 1.09 1.24 0.89 0.89 0.84 0.74 0.71 0.70 0.79 0.70 0.69 0.71 0.67 0.60 0.56 0.57 0.63 0.70 0.71 0.78 0.82 0.84 0.89 0.84 0.86 0.85 0.81 0.86 0.86 0.87 1.02 1.18 1.28 1.21 1.17 1.36 1.61 1.86 1.99 1.85 1.75 1.62 1.51
1.55 1.64 1.57 1.48 1.16 1.17 1.10 1.15 0.97 0.83 0.79 0.69 0.67 0.68 0.65 0.59 0.54 0.57 0.56 0.52 0.45 0.45 0.44 0.50 0.59 0.69 0.76 0.83 0.91 0.87 0.87 1.00 1.05 0.94 0.83 0.88 1.00 1.10 1.32 1.44 1.38 1.43 1.64 1.77 1.85 1.89 1.76 1.73 1.65
1.26 1.24 1.24 1.33 1.10 1.02 1.00 0.93 0.94 0.78 0.63 0.59 0.58 0.58 0.55 0.52 0.46 0.46 0.47 0.48 0.43 0.41 0.39 0.42 0.51 0.55 0.57 0.72 0.89 0.98 0.90 0.96 1.16 1.19 1.20 1.23 1.27 1.30 1.45 1.58 1.61 1.63 1.74 1.77 1.95 2.17 1.97 1.77 1.73
0.92 0.92 0.97 0.90 0.76 0.88 0.89 0.84 0.88 0.80 0.65 0.52 0.50 0.54 0.50 0.46 0.47 0.40 0.37 0.44 0.44 0.39 0.36 0.40 0.47 0.50 0.52 0.63 0.78 0.87 0.94 1.09 1.27 1.31 1.38 1.52 1.54 1.54 1.66 1.77 1.84 1.81 1.76 1.86 2.06 2.46 2.36 2.01 1.78
0.84 0.83 0.87 0.77 0.66 0.71 0.81 0.86 0.84 0.76 0.67 0.56 0.49 0.42 0.39 0.39 0.37 0.33 0.31 0.34 0.36 0.36 0.35 0.36 0.45 0.55 0.60 0.66 0.80 0.97 1.19 1.27 1.41 1.56 1.56 1.56 1.61 1.66 1.73 1.93 2.06 2.03 2.03 2.13 2.20 2.48 2.67 2.42 2.19
0.82 0.76 0.70 0.73 0.69 0.69 0.75 0.96 0.90 0.81 0.67 0.55 0.47 0.38 0.31 0.34 0.32 0.25 0.27 0.30 0.31 0.33 0.41 0.42 0.53 0.73 0.91 0.97 1.18 1.48 1.73 1.79 1.73 1.74 1.81 1.78 1.79 1.86 1.82 1.92 2.12 2.13 2.14 2.21 2.40 2.72 3.05 3.03 2.73
0.84 0.58 0.51 0.63 0.77 0.88 0.72 1.03 0.88 0.80 0.72 0.56 0.47 0.41 0.33 0.36 0.39 0.30 0.29 0.32 0.30 0.35 0.47 0.66 0.86 1.15 1.37 1.47 1.63 1.86 1.97 2.00 1.93 1.95 1.96 1.96 1.86 1.78 1.77 1.87 2.07 2.23 2.37 2.50 2.56 2.56 2.96 3.28 3.10
0.66 0.53 0.52 0.62 0.74 0.78 0.65 0.79 0.75 0.65 0.71 0.62 0.56 0.50 0.44 0.44 0.43 0.43 0.43 0.48 0.49 0.59 0.81 1.15 1.43 1.62 1.73 1.76 1.82 2.00 2.15 2.30 2.32 2.23 2.09 2.00 1.97 1.91 1.79 1.82 1.88 1.93 2.05 2.22 2.36 2.43 2.68 2.90 3.08
0.54 0.60 0.64 0.66 0.77 0.89 0.61 0.62 0.75 0.62 0.59 0.62 0.63 0.55 0.49 0.47 0.48 0.57 0.70 0.84 0.93 1.02 1.23 1.46 1.62 1.76 1.72 1.68 1.71 1.83 2.01 2.17 2.20 2.24 2.23 2.12 2.01 1.91 1.77 1.69 1.77 1.79 1.80 1.95 2.08 2.20 2.48 2.67 2.81
0.60 0.79 1.01 1.03 1.02 0.85 0.50 0.60 0.64 0.45 0.42 0.50 0.56 0.56 0.51 0.48 0.56 0.77 0.93 1.09 1.20 1.30 1.41 1.46 1.44 1.51 1.53 1.49 1.49 1.56 1.64 1.67 1.72 1.85 1.79 1.67 1.58 1.53 1.51 1.42 1.44 1.56 1.63 1.81 1.90 1.86 1.94 2.11 2.33
0.55 0.60 0.89 1.00 0.88 0.73 0.56 0.74 0.66 0.47 0.44 0.42 0.46 0.54 0.62 0.71 0.84 0.96 1.07 1.18 1.23 1.36 1.42 1.37 1.34 1.33 1.28 1.21 1.22 1.21 1.26 1.33 1.34 1.35 1.31 1.24 1.21 1.19 1.15 1.16 1.15 1.20 1.28 1.50 1.73 1.73 1.74 1.80 1.89
0.47 0.47 0.51 0.69 0.66 0.69 0.63 0.74 0.66 0.45 0.42 0.41 0.43 0.53 0.67 0.84 1.08 1.26 1.27 1.18 1.12 1.18 1.25 1.23 1.18 1.13 1.05 0.98 1.00 1.01 1.07 1.11 1.08 1.03 0.98 0.98 0.91 0.91 0.91 0.96 1.04 1.11 1.10 1.19 1.34 1.52 1.59 1.67 1.74
0.38 0.42 0.52 0.77 0.91 0.91 0.75 0.82 0.77 0.57 0.51 0.47 0.51 0.63 0.81 0.96 1.17 1.44 1.55 1.44 1.20 1.02 1.04 1.02 1.01 1.05 1.04 1.00 1.00 0.97 0.89 0.80 0.79 0.80 0.74 0.74 0.79 0.81 0.82 0.83 0.88 0.96 0.99 1.07 1.18 1.22 1.32 1.41 1.58
0.39 0.44 0.55 0.71 0.73 0.96 1.20 1.17 0.86 0.74 0.68 0.66 0.70 0.77 0.85 1.10 1.38 1.51 1.52 1.39 1.24 0.97 0.91 0.91 0.90 0.94 1.01 0.95 0.96 0.95 0.83 0.69 0.64 0.60 0.56 0.57 0.61 0.66 0.65 0.71 0.81 0.85 0.89 0.92 0.93 0.96 1.01 1.09 1.20
0.34 0.43 0.58 0.89 0.88 0.82 1.04 1.08 0.69 0.72 0.83 0.77 0.83 0.92 0.95 1.04 1.07 1.07 1.15 1.16 1.10 0.98 0.91 0.98 1.01 1.02 0.97 0.90 0.88 0.85 0.78 0.67 0.67 0.61 0.53 0.54 0.60 0.63 0.63 0.68 0.72 0.75 0.82 0.87 0.85 0.84 0.89 1.01 1.10

GEFSSGP_prec_meanprecacc_276.txt.gz
Total_Precipitation_Accumulation
2.31 2.60 3.48 4.42 5.04 3.89 2.87 2.35 2.04 1.82 1.47 1.09 0.87 0.88 1.22 1.71 2.03 2.09 1.91 1.69 1.07 0.99 1.09 1.55 1.88 1.78 1.64 1.57 1.56 1.62 1.64 1.57 1.59 1.61 1.61 1.53 1.66 1.75 1.74 1.65 1.57 1.59 1.53 1.50 1.46 1.49 1.56 1.42 1.44
2.00 2.80 4.06 5.02 4.31 3.05 2.60 2.10 1.85 1.58 1.19 0.89 0.76 0.68 0.81 0.66 0.63 1.10 2.00 1.93 1.08 0.86 0.99 1.40 1.92 1.84 1.76 1.73 1.74 1.80 1.73 1.53 1.47 1.46 1.43 1.45 1.59 1.74 1.85 1.82 1.67 1.70 1.61 1.48 1.39 1.37 1.50 1.45 1.48
2.31 3.25 4.51 4.59 3.24 2.52 2.48 1.91 1.44 1.06 0.78 0.83 0.84 0.72 0.78 0.92 1.03 1.50 1.90 1.38 1.00 0.89 0.98 1.52 2.06 1.87 1.77 1.77 1.90 1.86 1.69 1.53 1.45 1.42 1.40 1.43 1.57 1.71 1.81 1.67 1.63 1.71 1.69 1.58 1.54 1.52 1.61 1.59 1.62
2.58 3.71 4.09 3.47 2.63 2.02 1.76 1.50 1.16 1.00 0.70 0.48 0.65 0.85 0.76 1.00 1.18 1.39 1.34 0.97 0.77 0.79 0.88 1.36 1.99 1.86 1.70 1.67 1.84 1.77 1.62 1.62 1.55 1.47 1.49 1.55 1.73 1.95 1.99 1.81 1.78 1.75 1.76 1.65 1.65 1.66 1.71 1.68 1.67
2.86 3.66 3.66 3.27 2.44 2.09 1.58 1.24 1.04 1.02 0.82 0.55 0.55 0.86 0.99 1.33 1.30 1.27 1.17 0.98 0.78 0.79 0.82 1.13 1.72 1.73 1.60 1.57 1.67 1.63 1.64 1.67 1.55 1.51 1.53 1.62 1.73 1.93 2.10 2.06 1.98 1.94 1.88 1.77 1.69 1.68 1.64 1.62 1.67
3.26 3.34 3.45 3.22 2.63 2.31 1.79 1.31 0.95 0.88 0.75 0.60 0.58 0.87 1.21 1.64 1.52 1.46 1.24 1.14 1.00 0.88 0.79 0.94 1.46 1.59 1.50 1.52 1.56 1.51 1.53 1.50 1.41 1.46 1.52 1.54 1.60 1.77 1.93 2.00 2.06 2.00 1.89 1.87 1.82 1.78 1.67 1.66 1.61
3.02 2.98 2.75 2.33 2.48 2.60 1.86 1.18 1.08 1.02 0.98 0.84 0.61 0.93 1.31 1.75 1.60 1.33 1.30 1.34 1.41 1.25 1.07 1.03 1.14 1.23 1.35 1.46 1.50 1.60 1.67 1.53 1.38 1.33 1.37 1.42 1.43 1.52 1.63 1.73 1.82 1.82 1.82 1.83 1.77 1.72 1.71 1.75 1.62
2.44 2.51 2.31 2.25 2.47 2.62 1.60 1.02 0.86 0.85 0.91 0.60 0.52 0.85 1.10 1.34 1.43 1.37 1.34 1.39 1.36 1.29 1.22 1.15 1.16 1.13 1.15 1.25 1.52 1.80 1.88 1.74 1.48 1.36 1.28 1.37 1.36 1.38 1.49 1.49 1.70 1.81 1.81 1.83 1.85 1.78 1.71 1.74 1.70
2.09 2.42 2.51 2.44 2.35 2.07 1.26 0.94 0.75 0.55 0.58 0.52 0.42 0.62 0.81 0.84 1.10 1.30 1.31 1.33 1.29 1.21 1.23 1.16 1.17 1.19 1.27 1.33 1.44 1.77 1.95 1.92 1.50 1.27 1.25 1.19 1.09 1.17 1.27 1.30 1.72 1.91 2.02 2.01 1.99 1.85 1.72 1.63 1.64
2.14 2.36 2.25 1.82 1.58 1.30 1.00 0.86 0.71 0.74 0.82 0.72 0.55 0.63 0.77 0.85 0.97 1.20 1.23 1.13 1.07 1.05 1.06 1.08 1.07 1.05 1.07 1.12 1.48 1.76 1.61 1.66 1.33 1.25 1.18 1.14 1.20 1.23 1.08 1.19 1.64 1.88 2.02 2.00 1.94 1.86 1.66 1.41 1.25
1.80 1.94 1.60 1.37 1.15 0.93 0.87 0.82 0.63 0.75 0.94 0.74 0.56 0.63 0.77 0.88 0.99 1.06 1.12 1.04 0.95 0.93 0.84 0.81 0.86 0.83 0.83 0.95 1.13 1.45 1.69 1.66 1.57 1.48 1.37 1.35 1.26 1.10 1.04 1.16 1.33 1.52 1.61 1.53 1.62 1.59 1.43 1.26 1.19
1.56 1.49 1.29 1.16 0.86 0.90 0.90 0.76 0.68 0.66 0.71 0.52 0.47 0.53 0.71 0.89 1.02 1.00 1.02 1.03 0.94 0.99 0.97 0.80 0.73 0.73 0.72 0.78 0.93 1.19 1.40 1.47 1.45 1.35 1.21 1.40 1.37 1.17 1.11 1.30 1.45 1.47 1.52 1.68 1.69 1.61 1.47 1.32 1.19
1.44 1.49 1.20 0.99 0.85 0.90 0.84 0.77 0.66 0.67 0.57 0.45 0.45 0.59 0.81 0.99 1.05 1.04 0.98 0.99 0.99 0.99 1.05 0.92 0.73 0.68 0.74 0.77 0.83 0.90 1.12 1.22 1.18 1.30 1.21 1.25 1.28 1.16 1.10 1.18 1.43 1.49 1.52 1.74 1.82 1.62 1.53 1.53 1.48
1.27 1.22 1.16 1.00 0.91 0.93 0.94 0.77 0.66 0.79 0.68 0.57 0.63 0.75 0.92 1.02 1.02 0.97 0.89 0.86 0.87 0.88 0.93 0.90 0.79 0.77 0.77 0.74 0.70 0.71 0.74 0.91 0.91 0.90 0.86 1.04 1.20 1.19 1.21 1.15 1.31 1.56 1.62 1.68 1.72 1.63 1.55 1.50 1.53
1.05 1.13 1.27 1.16 1.11 1.07 0.96 1.04 0.81 0.82 0.81 0.69 0.68 0.75 0.95 0.92 0.90 0.86 0.79 0.71 0.67 0.75 0.79 0.84 0.85 0.84 0.81 0.81 0.79 0.74 0.74 0.78 0.85 0.90 0.89 1.00 1.12 1.21 1.21 1.11 1.20 1.45 1.67 1.72 1.70 1.63 1.64 1.46 1.38
1.22 1.51 1.76 1.43 1.21 1.18 1.09 1.24 0.89 0.89 0.84 0.74 0.71 0.70 0.79 0.71 0.69 0.71 0.67 0.61 0.56 0.57 0.63 0.70 0.72 0.78 0.82 0.85 0.89 0.85 0.86 0.85 0.83 0.88 0.88 0.89 1.04 1.19 1.28 1.21 1.17 1.37 1.62 1.87 2.00 1.86 1.76 1.63 1.52
1.55 1.65 1.58 1.48 1.16 1.17 1.10 1.15 0.97 0.83 0.79 0.70 0.68 0.69 0.66 0.59 0.55 0.58 0.57 0.52 0.45 0.45 0.44 0.51 0.59 0.69 0.77 0.84 0.92 0.88 0.88 1.01 1.07 0.95 0.85 0.91 1.02 1.11 1.33 1.44 1.38 1.43 1.65 1.78 1.86 1.89 1.76 1.73 1.65
1.26 1.24 1.25 1.34 1.10 1.02 1.00 0.93 0.94 0.78 0.63 0.59 0.59 0.59 0.55 0.52 0.46 0.46 0.48 0.48 0.44 0.41 0.40 0.42 0.51 0.56 0.58 0.74 0.90 1.00 0.92 0.97 1.18 1.21 1.22 1.26 1.30 1.32 1.46 1.59 1.62 1.64 1.75 1.78 1.96 2.17 1.97 1.77 1.74
0.92 0.92 0.97 0.90 0.77 0.88 0.89 0.84 0.88 0.80 0.65 0.52 0.50 0.54 0.50 0.46 0.47 0.41 0.38 0.45 0.45 0.40 0.36 0.41 0.48 0.51 0.52 0.64 0.79 0.89 0.96 1.11 1.29 1.33 1.39 1.53 1.56 1.56 1.67 1.77 1.85 1.82 1.76 1.86 2.07 2.47 2.36 2.01 1.80
0.84 0.83 0.87 0.77 0.66 0.71 0.81 0.86 0.84 0.76 0.67 0.56 0.49 0.42 0.40 0.39 0.37 0.33 0.31 0.35 0.37 0.37 0.35 0.38 0.47 0.57 0.61 0.67 0.81 0.98 1.20 1.29 1.42 1.57 1.57 1.57 1.63 1.68 1.74 1.94 2.06 2.04 2.04 2.14 2.20 2.48 2.68 2.43 2.20
0.82 0.76 0.70 0.73 0.69 0.69 0.75 0.96 0.90 0.81 0.67 0.55 0.47 0.38 0.31 0.34 0.32 0.25 0.27 0.30 0.32 0.34 0.42 0.44 0.55 0.75 0.92 0.98 1.18 1.49 1.74 1.80 1.73 1.75 1.82 1.80 1.81 1.87 1.83 1.92 2.12 2.14 2.14 2.22 2.41 2.73 3.06 3.04 2.75
0.84 0.58 0.52 0.63 0.77 0.88 0.72 1.03 0.88 0.80 0.72 0.56 0.47 0.41 0.34 0.37 0.40 0.31 0.29 0.32 0.30 0.35 0.48 0.67 0.87 1.16 1.38 1.48 1.64 1.87 1.98 2.01 1.93 1.95 1.96 1.97 1.88 1.80 1.79 1.89 2.08 2.25 2.38 2.51 2.58 2.57 2.97 3.30 3.12
0.66 0.53 0.52 0.62 0.74 0.78 0.65 0.79 0.76 0.65 0.71 0.62 0.56 0.50 0.45 0.44 0.43 0.44 0.43 0.48 0.50 0.60 0.81 1.16 1.43 1.63 1.75 1.77 1.82 2.01 2.15 2.30 2.33 2.23 2.09 2.01 2.00 1.93 1.82 1.84 1.90 1.95 2.07 2.24 2.38 2.45 2.70 2.93 3.11
0.54 0.61 0.64 0.67 0.77 0.89 0.61 0.62 0.75 0.62 0.59 0.62 0.63 0.55 0.50 0.47 0.48 0.58 0.71 0.85 0.93 1.02 1.23 1.47 1.62 1.76 1.74 1.69 1.71 1.83 2.02 2.18 2.20 2.25 2.23 2.12 2.03 1.94 1.80 1.72 1.80 1.81 1.83 1.98 2.10 2.22 2.50 2.71 2.84
0.60 0.79 1.02 1.03 1.02 0.85 0.51 0.61 0.64 0.45 0.42 0.50 0.56 0.56 0.51 0.48 0.56 0.77 0.94 1.10 1.20 1.30 1.42 1.46 1.45 1.51 1.54 1.50 1.50 1.57 1.65 1.68 1.73 1.86 1.80 1.68 1.60 1.55 1.53 1.43 1.45 1.58 1.66 1.84 1.92 1.89 1.97 2.14 2.35
0.56 0.61 0.90 1.01 0.89 0.74 0.56 0.75 0.66 0.47 0.44 0.42 0.47 0.54 0.62 0.71 0.84 0.96 1.07 1.18 1.24 1.37 1.42 1.38 1.34 1.34 1.28 1.21 1.22 1.22 1.27 1.34 1.34 1.35 1.32 1.25 1.22 1.20 1.16 1.16 1.15 1.21 1.29 1.52 1.75 1.76 1.78 1.83 1.91
0.47 0.48 0.52 0.70 0.66 0.69 0.64 0.74 0.66 0.45 0.42 0.41 0.43 0.53 0.67 0.84 1.09 1.27 1.27 1.18 1.13 1.18 1.26 1.23 1.18 1.13 1.05 0.98 1.00 1.02 1.08 1.11 1.08 1.03 0.98 0.99 0.92 0.92 0.92 0.96 1.05 1.11 1.11 1.21 1.35 1.54 1.62 1.70 1.76
0.39 0.43 0.53 0.79 0.92 0.91 0.75 0.82 0.78 0.58 0.51 0.47 0.51 0.63 0.81 0.97 1.17 1.44 1.55 1.44 1.20 1.02 1.05 1.03 1.02 1.06 1.05 1.01 1.01 0.98 0.90 0.81 0.80 0.81 0.74 0.74 0.80 0.82 0.83 0.83 0.89 0.97 1.00 1.09 1.20 1.24 1.34 1.43 1.60
0.40 0.45 0.56 0.73 0.74 0.98 1.21 1.18 0.87 0.75 0.68 0.66 0.70 0.77 0.85 1.10 1.39 1.51 1.53 1.40 1.24 0.98 0.91 0.91 0.90 0.95 1.02 0.96 0.97 0.96 0.84 0.70 0.66 0.61 0.57 0.57 0.61 0.66 0.66 0.72 0.82 0.86 0.89 0.93 0.94 0.98 1.03 1.10 1.21
0.35 0.44 0.60 0.90 0.89 0.84 1.06 1.09 0.70 0.73 0.83 0.77 0.83 0.92 0.95 1.04 1.08 1.07 1.15 1.16 1.10 0.98 0.92 0.98 1.02 1.03 0.98 0.92 0.89 0.87 0.79 0.69 0.68 0.62 0.54 0.56 0.61 0.64 0.64 0.70 0.75 0.76 0.84 0.87 0.86 0.86 0.90 1.02 1.11

GEFSSGP_prec_meanprecacc_282.txt.gz
Total_Precipitation_Accumulation
2.32 2.61 3.48 4.43 5.04 3.90 2.88 2.36 2.04 1.82 1.47 1.09 0.87 0.88 1.23 1.71 2.04 2.10 1.92 1.69 1.07 0.99 1.11 1.59 1.93 1.83 1.68 1.61 1.60 1.68 1.70 1.63 1.67 1.70 1.73 1.64 1.74 1.83 1.83 1.74 1.66 1.67 1.61 1.59 1.55 1.56 1.62 1.47 1.50
2.01 2.80 4.07 5.03 4.31 3.05 2.61 2.11 1.85 1.58 1.20 0.89 0.76 0.69 0.81 0.66 0.63 1.10 2.01 1.93 1.08 0.87 1.00 1.42 1.96 1.88 1.79 1.77 1.78 1.85 1.80 1.59 1.55 1.54 1.51 1.53 1.66 1.82 1.94 1.90 1.76 1.77 1.68 1.56 1.45 1.42 1.55 1.51 1.53
2.31 3.26 4.51 4.60 3.24 2.52 2.49 1.92 1.45 1.06 0.78 0.83 0.84 0.73 0.79 0.94 1.04 1.51 1.91 1.38 1.01 0.91 0.99 1.54 2.09 1.90 1.81 1.81 1.93 1.91 1.74 1.64 1.54 1.49 1.48 1.50 1.64 1.78 1.90 1.75 1.71 1.77 1.75 1.64 1.60 1.58 1.67 1.65 1.69
2.58 3.72 4.09 3.47 2.63 2.03 1.77 1.51 1.16 1.00 0.71 0.48 0.65 0.85 0.77 1.01 1.19 1.40 1.34 0.98 0.78 0.81 0.90 1.39 2.02 1.90 1.74 1.71 1.88 1.80 1.67 1.73 1.65 1.54 1.56 1.64 1.81 2.03 2.06 1.89 1.86 1.81 1.81 1.71 1.71 1.72 1.77 1.75 1.75
2.86 3.67 3.67 3.27 2.44 2.10 1.58 1.24 1.05 1.02 0.82 0.55 0.55 0.86 0.99 1.34 1.32 1.27 1.18 0.98 0.79 0.80 0.84 1.15 1.75 1.78 1.63 1.59 1.69 1.65 1.67 1.76 1.67 1.60 1.63 1.73 1.84 2.01 2.16 2.14 2.05 2.01 1.94 1.83 1.75 1.75 1.71 1.70 1.74
3.26 3.34 3.46 3.22 2.64 2.31 1.79 1.31 0.95 0.88 0.75 0.60 0.58 0.87 1.21 1.64 1.54 1.47 1.25 1.15 1.01 0.89 0.80 0.95 1.49 1.63 1.56 1.56 1.59 1.55 1.57 1.58 1.55 1.60 1.64 1.66 1.73 1.85 2.00 2.07 2.13 2.07 1.96 1.95 1.90 1.86 1.75 1.72 1.65
3.02 2.99 2.75 2.33 2.48 2.60 1.86 1.18 1.08 1.03 0.99 0.84 0.61 0.93 1.31 1.75 1.61 1.34 1.31 1.35 1.41 1.26 1.07 1.05 1.17 1.25 1.38 1.51 1.57 1.67 1.73 1.58 1.46 1.44 1.48 1.52 1.54 1.63 1.73 1.81 1.90 1.90 1.91 1.91 1.85 1.78 1.78 1.80 1.67
2.44 2.51 2.31 2.25 2.47 2.63 1.60 1.02 0.86 0.85 0.91 0.60 0.52 0.86 1.10 1.34 1.43 1.38 1.35 1.39 1.37 1.30 1.23 1.16 1.17 1.15 1.16 1.27 1.59 1.89 1.96 1.80 1.55 1.45 1.38 1.47 1.42 1.46 1.58 1.60 1.79 1.90 1.89 1.91 1.93 1.85 1.76 1.80 1.78
2.09 2.42 2.51 2.45 2.35 2.07 1.26 0.94 0.75 0.55 0.58 0.52 0.42 0.62 0.81 0.84 1.10 1.30 1.31 1.33 1.29 1.21 1.23 1.17 1.17 1.20 1.28 1.34 1.47 1.83 2.03 1.99 1.55 1.31 1.30 1.24 1.13 1.22 1.33 1.38 1.81 1.99 2.10 2.11 2.07 1.93 1.79 1.70 1.71
2.14 2.37 2.25 1.82 1.58 1.30 1.00 0.86 0.71 0.74 0.82 0.72 0.56 0.63 0.78 0.85 0.97 1.20 1.24 1.13 1.08 1.05 1.07 1.08 1.07 1.06 1.09 1.13 1.52 1.82 1.68 1.72 1.38 1.29 1.21 1.17 1.24 1.28 1.13 1.27 1.74 1.97 2.09 2.09 2.02 1.94 1.71 1.45 1.30
1.80 1.94 1.60 1.37 1.15 0.93 0.87 0.82 0.63 0.75 0.94 0.74 0.57 0.64 0.78 0.89 1.00 1.06 1.12 1.04 0.95 0.94 0.84 0.81 0.86 0.84 0.84 0.96 1.14 1.47 1.72 1.70 1.62 1.53 1.41 1.37 1.28 1.14 1.11 1.27 1.42 1.61 1.71 1.63 1.69 1.67 1.48 1.30 1.23
1.56 1.49 1.30 1.16 0.86 0.90 0.90 0.76 0.68 0.66 0.71 0.52 0.47 0.54 0.72 0.90 1.02 1.00 1.02 1.03 0.95 0.99 0.97 0.80 0.73 0.73 0.73 0.78 0.94 1.19 1.41 1.49 1.48 1.38 1.24 1.42 1.38 1.19 1.18 1.41 1.55 1.56 1.63 1.77 1.78 1.71 1.55 1.38 1.24
1.45 1.49 1.21 0.99 0.86 0.90 0.84 0.77 0.66 0.68 0.57 0.45 0.45 0.59 0.81 1.00 1.06 1.05 0.98 0.99 0.99 1.00 1.05 0.93 0.73 0.68 0.75 0.78 0.84 0.91 1.13 1.23 1.20 1.33 1.23 1.26 1.29 1.17 1.13 1.23 1.49 1.57 1.61 1.81 1.88 1.68 1.59 1.59 1.53
1.27 1.22 1.16 1.00 0.91 0.93 0.94 0.77 0.66 0.79 0.68 0.57 0.63 0.75 0.92 1.02 1.02 0.97 0.90 0.86 0.87 0.88 0.94 0.91 0.80 0.77 0.78 0.75 0.71 0.71 0.75 0.92 0.92 0.92 0.87 1.05 1.21 1.21 1.23 1.18 1.33 1.59 1.66 1.73 1.75 1.67 1.60 1.55 1.56
1.05 1.14 1.27 1.17 1.11 1.07 0.96 1.04 0.81 0.82 0.81 0.69 0.68 0.75 0.95 0.93 0.91 0.87 0.79 0.71 0.67 0.75 0.80 0.85 0.86 0.84 0.81 0.82 0.80 0.74 0.75 0.80 0.87 0.91 0.90 1.00 1.13 1.22 1.22 1.12 1.21 1.46 1.69 1.73 1.72 1.65 1.66 1.49 1.41
1.23 1.52 1.76 1.44 1.22 1.18 1.09 1.25 0.89 0.89 0.84 0.74 0.71 0.70 0.80 0.71 0.70 0.72 0.67 0.61 0.57 0.58 0.64 0.71 0.72 0.78 0.83 0.85 0.89 0.85 0.87 0.87 0.85 0.90 0.89 0.90 1.05 1.20 1.30 1.22 1.18 1.38 1.63 1.88 2.01 1.88 1.78 1.65 1.54
1.56 1.65 1.58 1.49 1.17 1.17 1.10 1.15 0.97 0.83 0.79 0.70 0.68 0.69 0.66 0.60 0.55 0.58 0.57 0.53 0.46 0.45 0.45 0.51 0.59 0.69 0.77 0.84 0.92 0.88 0.89 1.03 1.08 0.96 0.87 0.93 1.04 1.13 1.35 1.46 1.39 1.44 1.66 1.79 1.87 1.91 1.77 1.74 1.66
1.26 1.25 1.25 1.34 1.11 1.02 1.00 0.93 0.94 0.78 0.63 0.59 0.59 0.59 0.55 0.52 0.46 0.47 0.48 0.48 0.44 0.42 0.41 0.43 0.52 0.57 0.59 0.75 0.91 1.00 0.93 0.98 1.19 1.22 1.25 1.29 1.33 1.34 1.48 1.60 1.63 1.65 1.77 1.79 1.97 2.18 1.98 1.78 1.75
0.92 0.93 0.98 0.91 0.77 0.88 0.89 0.84 0.88 0.81 0.65 0.52 0.50 0.54 0.50 0.47 0.48 0.42 0.39 0.45 0.46 0.41 0.37 0.43 0.49 0.52 0.53 0.65 0.80 0.90 0.98 1.12 1.30 1.35 1.42 1.57 1.60 1.60 1.69 1.79 1.86 1.83 1.78 1.88 2.08 2.48 2.37 2.02 1.80
0.84 0.83 0.87 0.77 0.67 0.71 0.81 0.86 0.84 0.76 0.67 0.56 0.49 0.42 0.40 0.39 0.37 0.34 0.32 0.35 0.37 0.38 0.36 0.38 0.49 0.58 0.62 0.68 0.82 0.99 1.22 1.30 1.43 1.59 1.59 1.60 1.66 1.70 1.77 1.95 2.07 2.05 2.06 2.16 2.22 2.50 2.69 2.43 2.21
0.82 0.76 0.71 0.73 0.70 0.69 0.75 0.96 0.90 0.81 0.67 0.55 0.47 0.38 0.31 0.34 0.32 0.26 0.28 0.30 0.32 0.34 0.42 0.44 0.56 0.76 0.93 1.00 1.20 1.50 1.75 1.81 1.75 1.78 1.85 1.82 1.83 1.90 1.86 1.94 2.14 2.15 2.16 2.24 2.43 2.75 3.08 3.06 2.76
0.84 0.59 0.52 0.63 0.77 0.88 0.72 1.04 0.88 0.80 0.72 0.56 0.47 0.41 0.34 0.37 0.40 0.31 0.29 0.32 0.30 0.35 0.49 0.68 0.88 1.18 1.39 1.50 1.65 1.88 1.99 2.02 1.94 1.96 1.98 1.99 1.89 1.82 1.82 1.91 2.10 2.26 2.40 2.53 2.60 2.59 3.00 3.33 3.15
0.66 0.53 0.53 0.62 0.74 0.78 0.65 0.79 0.76 0.65 0.71 0.62 0.56 0.50 0.45 0.44 0.43 0.44 0.43 0.48 0.50 0.60 0.81 1.16 1.44 1.63 1.76 1.79 1.84 2.02 2.16 2.31 2.33 2.24 2.10 2.03 2.01 1.94 1.84 1.86 1.92 1.96 2.08 2.26 2.40 2.46 2.72 2.96 3.14
0.54 0.61 0.65 0.67 0.78 0.90 0.61 0.62 0.75 0.62 0.59 0.62 0.63 0.56 0.50 0.47 0.48 0.58 0.71 0.85 0.94 1.02 1.23 1.47 1.62 1.76 1.74 1.71 1.73 1.84 2.03 2.18 2.20 2.25 2.24 2.13 2.04 1.95 1.81 1.73 1.81 1.83 1.84 1.99 2.12 2.24 2.53 2.73 2.88
0.60 0.80 1.03 1.05 1.03 0.86 0.51 0.61 0.65 0.45 0.42 0.50 0.56 0.56 0.52 0.48 0.57 0.77 0.94 1.10 1.21 1.31 1.42 1.46 1.45 1.52 1.55 1.50 1.50 1.57 1.66 1.69 1.73 1.86 1.80 1.69 1.61 1.56 1.53 1.43 1.46 1.60 1.67 1.85 1.94 1.91 1.99 2.17 2.39
0.56 0.61 0.91 1.02 0.90 0.74 0.57 0.75 0.66 0.47 0.44 0.42 0.47 0.55 0.62 0.71 0.84 0.96 1.07 1.18 1.24 1.37 1.42 1.38 1.34 1.34 1.28 1.21 1.23 1.22 1.28 1.36 1.35 1.36 1.33 1.26 1.22 1.21 1.17 1.16 1.16 1.21 1.30 1.52 1.76 1.79 1.80 1.85 1.93
0.48 0.48 0.52 0.71 0.67 0.70 0.64 0.74 0.67 0.45 0.43 0.41 0.43 0.53 0.68 0.85 1.09 1.27 1.27 1.18 1.13 1.19 1.26 1.24 1.19 1.14 1.05 0.99 1.01 1.02 1.08 1.12 1.09 1.04 0.98 0.99 0.93 0.93 0.92 0.97 1.05 1.12 1.12 1.22 1.37 1.58 1.64 1.72 1.79
0.39 0.43 0.54 0.80 0.94 0.93 0.76 0.83 0.79 0.58 0.51 0.48 0.52 0.64 0.81 0.97 1.18 1.45 1.56 1.44 1.20 1.03 1.06 1.03 1.02 1.06 1.05 1.01 1.01 0.98 0.90 0.82 0.80 0.81 0.74 0.74 0.80 0.82 0.84 0.84 0.90 0.97 1.01 1.10 1.21 1.26 1.36 1.46 1.62
0.40 0.46 0.57 0.75 0.76 1.01 1.24 1.20 0.88 0.76 0.68 0.67 0.71 0.78 0.86 1.11 1.40 1.52 1.53 1.40 1.25 0.99 0.92 0.92 0.91 0.95 1.03 0.97 0.98 0.96 0.85 0.72 0.67 0.62 0.57 0.58 0.62 0.67 0.67 0.73 0.84 0.88 0.91 0.94 0.95 0.99 1.04 1.11 1.23
0.36 0.44 0.60 0.91 0.91 0.86 1.08 1.11 0.71 0.74 0.85 0.79 0.85 0.93 0.96 1.04 1.09 1.08 1.16 1.16 1.10 0.99 0.92 0.99 1.02 1.04 0.99 0.93 0.90 0.87 0.80 0.70 0.70 0.64 0.56 0.58 0.63 0.65 0.65 0.71 0.77 0.79 0.85 0.89 0.87 0.86 0.91 1.03 1.12

GEFSSGP_prec_meanprecacc_288.txt.gz
Total_Precipitation_Accumulation
2.33 2.61 3.49 4.44 5.11 3.96 2.93 2.39 2.05 1.83 1.48 1.09 0.88 0.89 1.25 1.74 2.08 2.16 1.95 1.70 1.08 1.00 1.12 1.61 1.94 1.85 1.71 1.64 1.62 1.70 1.72 1.65 1.71 1.77 1.77 1.69 1.81 1.91 1.90 1.82 1.75 1.76 1.71 1.69 1.63 1.63 1.67 1.52 1.56
2.01 2.80 4.08 5.06 4.38 3.11 2.65 2.13 1.87 1.59 1.20 0.89 0.76 0.71 0.83 0.68 0.64 1.12 2.04 1.95 1.09 0.88 1.02 1.44 1.98 1.91 1.83 1.80 1.80 1.87 1.83 1.63 1.59 1.59 1.56 1.57 1.71 1.89 2.04 2.02 1.89 1.90 1.81 1.66 1.52 1.47 1.61 1.57 1.59
2.31 3.26 4.53 4.63 3.27 2.56 2.53 1.95 1.46 1.06 0.78 0.83 0.84 0.73 0.81 0.96 1.05 1.53 1.93 1.39 1.01 0.92 1.00 1.55 2.11 1.93 1.84 1.84 1.97 1.97 1.81 1.71 1.61 1.57 1.54 1.56 1.70 1.86 1.99 1.89 1.88 1.93 1.88 1.73 1.67 1.63 1.72 1.70 1.73
2.59 3.73 4.11 3.50 2.66 2.04 1.78 1.53 1.17 1.00 0.71 0.48 0.66 0.86 0.77 1.02 1.20 1.41 1.35 0.98 0.78 0.82 0.91 1.40 2.04 1.92 1.76 1.75 1.92 1.88 1.75 1.80 1.70 1.62 1.62 1.70 1.87 2.10 2.14 2.01 2.05 1.94 1.90 1.78 1.78 1.76 1.81 1.79 1.79
2.87 3.69 3.70 3.30 2.47 2.11 1.58 1.25 1.05 1.02 0.82 0.55 0.55 0.87 1.01 1.36 1.32 1.28 1.19 0.99 0.80 0.80 0.84 1.16 1.77 1.80 1.66 1.61 1.71 1.71 1.77 1.85 1.74 1.67 1.70 1.81 1.92 2.08 2.24 2.20 2.14 2.10 2.02 1.89 1.81 1.80 1.75 1.74 1.78
3.28 3.37 3.50 3.26 2.66 2.32 1.79 1.31 0.95 0.88 0.75 0.60 0.59 0.88 1.23 1.65 1.55 1.48 1.25 1.15 1.02 0.90 0.82 0.98 1.51 1.65 1.58 1.58 1.61 1.59 1.64 1.67 1.63 1.68 1.72 1.75 1.81 1.93 2.06 2.13 2.19 2.12 2.02 2.01 1.95 1.91 1.80 1.76 1.70
3.06 3.03 2.79 2.36 2.50 2.61 1.87 1.18 1.08 1.03 0.99 0.85 0.61 0.94 1.32 1.76 1.62 1.34 1.31 1.35 1.41 1.26 1.09 1.07 1.19 1.27 1.39 1.53 1.59 1.71 1.76 1.63 1.53 1.51 1.57 1.60 1.63 1.71 1.77 1.87 1.97 1.95 1.97 1.96 1.92 1.85 1.84 1.85 1.72
2.45 2.54 2.34 2.27 2.50 2.64 1.61 1.02 0.86 0.85 0.91 0.60 0.52 0.87 1.11 1.34 1.44 1.38 1.35 1.41 1.37 1.30 1.24 1.18 1.19 1.15 1.16 1.28 1.61 1.92 1.98 1.82 1.59 1.50 1.43 1.54 1.50 1.53 1.63 1.64 1.86 1.97 1.95 1.96 1.99 1.91 1.82 1.87 1.84
2.09 2.44 2.54 2.47 2.37 2.09 1.26 0.94 0.75 0.55 0.58 0.52 0.42 0.63 0.81 0.84 1.10 1.31 1.32 1.35 1.31 1.22 1.24 1.18 1.19 1.21 1.29 1.35 1.48 1.84 2.04 2.01 1.58 1.34 1.33 1.29 1.21 1.29 1.38 1.41 1.86 2.04 2.15 2.17 2.13 1.98 1.85 1.77 1.77
2.14 2.39 2.27 1.83 1.60 1.31 1.00 0.87 0.71 0.74 0.83 0.72 0.56 0.63 0.78 0.85 0.97 1.20 1.25 1.15 1.10 1.07 1.08 1.09 1.10 1.09 1.11 1.14 1.52 1.83 1.70 1.76 1.41 1.31 1.25 1.22 1.29 1.33 1.18 1.32 1.79 2.02 2.16 2.16 2.08 1.99 1.76 1.53 1.39
1.80 1.95 1.62 1.37 1.15 0.93 0.87 0.82 0.63 0.75 0.94 0.74 0.57 0.64 0.78 0.89 1.00 1.07 1.14 1.06 0.96 0.94 0.85 0.81 0.87 0.85 0.86 0.97 1.15 1.48 1.74 1.73 1.66 1.57 1.44 1.41 1.31 1.18 1.17 1.31 1.47 1.68 1.78 1.69 1.74 1.72 1.53 1.37 1.32
1.56 1.49 1.30 1.16 0.86 0.90 0.90 0.76 0.68 0.66 0.71 0.52 0.47 0.54 0.72 0.90 1.03 1.00 1.03 1.04 0.95 0.99 0.97 0.80 0.73 0.73 0.74 0.79 0.94 1.20 1.43 1.50 1.49 1.41 1.26 1.44 1.41 1.22 1.24 1.46 1.59 1.63 1.72 1.85 1.83 1.77 1.61 1.43 1.30
1.45 1.49 1.21 0.99 0.86 0.90 0.84 0.77 0.66 0.68 0.57 0.45 0.45 0.59 0.82 1.01 1.06 1.05 0.99 0.99 0.99 1.00 1.06 0.93 0.73 0.69 0.75 0.78 0.84 0.91 1.14 1.24 1.22 1.35 1.25 1.28 1.31 1.19 1.16 1.28 1.54 1.63 1.67 1.88 1.96 1.77 1.66 1.65 1.58
1.27 1.22 1.16 1.00 0.91 0.93 0.94 0.77 0.66 0.79 0.68 0.57 0.63 0.76 0.92 1.03 1.03 0.97 0.90 0.86 0.87 0.89 0.95 0.91 0.80 0.78 0.78 0.75 0.71 0.72 0.75 0.93 0.93 0.93 0.88 1.06 1.23 1.23 1.26 1.22 1.39 1.65 1.73 1.79 1.83 1.75 1.67 1.63 1.62
1.06 1.14 1.27 1.17 1.11 1.07 0.96 1.04 0.81 0.82 0.81 0.69 0.68 0.75 0.96 0.93 0.91 0.87 0.79 0.72 0.67 0.75 0.80 0.85 0.86 0.84 0.82 0.83 0.80 0.74 0.75 0.81 0.88 0.92 0.91 1.01 1.14 1.23 1.24 1.16 1.26 1.50 1.72 1.79 1.78 1.72 1.73 1.54 1.45
1.23 1.53 1.77 1.45 1.22 1.18 1.09 1.25 0.90 0.89 0.84 0.75 0.71 0.70 0.80 0.71 0.71 0.72 0.68 0.62 0.57 0.58 0.64 0.71 0.72 0.78 0.83 0.86 0.90 0.86 0.88 0.88 0.86 0.90 0.90 0.91 1.06 1.21 1.31 1.25 1.22 1.41 1.66 1.91 2.05 1.93 1.83 1.69 1.57
1.56 1.66 1.59 1.50 1.17 1.17 1.11 1.15 0.97 0.83 0.79 0.70 0.68 0.69 0.66 0.60 0.55 0.58 0.57 0.53 0.46 0.46 0.46 0.52 0.59 0.69 0.77 0.84 0.92 0.89 0.90 1.04 1.09 0.97 0.88 0.94 1.05 1.14 1.37 1.49 1.42 1.47 1.69 1.81 1.89 1.94 1.80 1.77 1.68
1.27 1.25 1.26 1.35 1.11 1.02 1.00 0.93 0.94 0.78 0.63 0.59 0.59 0.59 0.55 0.52 0.47 0.47 0.48 0.48 0.44 0.42 0.41 0.44 0.52 0.57 0.59 0.75 0.91 1.00 0.95 1.00 1.20 1.24 1.26 1.31 1.36 1.37 1.50 1.62 1.65 1.67 1.79 1.82 1.99 2.21 2.00 1.80 1.76
0.92 0.93 0.98 0.91 0.77 0.88 0.89 0.84 0.88 0.81 0.65 0.52 0.50 0.54 0.50 0.47 0.48 0.42 0.39 0.45 0.46 0.41 0.38 0.43 0.49 0.53 0.54 0.66 0.80 0.90 0.99 1.13 1.31 1.36 1.43 1.58 1.63 1.63 1.72 1.82 1.89 1.86 1.81 1.90 2.10 2.51 2.40 2.04 1.82
0.85 0.84 0.88 0.78 0.67 0.71 0.81 0.86 0.84 0.76 0.67 0.56 0.49 0.42 0.40 0.39 0.37 0.34 0.32 0.35 0.37 0.38 0.36 0.38 0.49 0.58 0.62 0.68 0.83 1.00 1.23 1.32 1.44 1.61 1.61 1.62 1.68 1.73 1.79 1.98 2.10 2.07 2.08 2.17 2.25 2.54 2.73 2.45 2.23
0.82 0.77 0.72 0.74 0.70 0.70 0.75 0.97 0.90 0.81 0.67 0.55 0.47 0.38 0.31 0.34 0.32 0.26 0.28 0.30 0.32 0.34 0.42 0.44 0.56 0.76 0.93 1.01 1.22 1.52 1.78 1.84 1.77 1.79 1.87 1.84 1.85 1.93 1.88 1.95 2.16 2.17 2.18 2.26 2.47 2.79 3.13 3.09 2.78
0.84 0.59 0.52 0.64 0.78 0.89 0.73 1.06 0.89 0.80 0.72 0.56 0.47 0.42 0.34 0.37 0.40 0.31 0.29 0.32 0.30 0.35 0.49 0.68 0.88 1.18 1.40 1.50 1.66 1.89 2.00 2.04 1.96 1.97 2.00 2.01 1.92 1.85 1.85 1.93 2.11 2.28 2.42 2.56 2.63 2.61 3.03 3.37 3.18
0.66 0.54 0.53 0.63 0.75 0.79 0.66 0.80 0.76 0.65 0.72 0.62 0.56 0.50 0.45 0.44 0.44 0.44 0.43 0.48 0.50 0.60 0.81 1.16 1.44 1.63 1.76 1.79 1.85 2.03 2.17 2.33 2.36 2.26 2.11 2.05 2.03 1.97 1.88 1.90 1.94 1.99 2.11 2.28 2.43 2.48 2.74 3.00 3.18
0.54 0.61 0.65 0.68 0.79 0.93 0.62 0.63 0.77 0.63 0.60 0.62 0.63 0.56 0.50 0.47 0.48 0.58 0.71 0.85 0.94 1.02 1.23 1.47 1.62 1.77 1.75 1.71 1.73 1.85 2.04 2.20 2.23 2.27 2.24 2.14 2.06 1.97 1.84 1.77 1.84 1.86 1.87 2.02 2.15 2.26 2.54 2.76 2.92
0.60 0.80 1.05 1.08 1.07 0.89 0.52 0.62 0.66 0.46 0.42 0.50 0.57 0.56 0.52 0.48 0.57 0.77 0.94 1.10 1.21 1.31 1.42 1.46 1.45 1.52 1.55 1.51 1.50 1.57 1.67 1.70 1.75 1.88 1.81 1.70 1.62 1.57 1.54 1.46 1.48 1.62 1.70 1.87 1.95 1.92 2.00 2.18 2.41
0.56 0.62 0.94 1.06 0.94 0.77 0.58 0.76 0.67 0.47 0.44 0.42 0.47 0.55 0.62 0.72 0.84 0.97 1.08 1.19 1.24 1.37 1.43 1.39 1.35 1.35 1.28 1.22 1.23 1.23 1.29 1.37 1.37 1.37 1.34 1.27 1.24 1.22 1.17 1.18 1.17 1.23 1.32 1.53 1.77 1.79 1.81 1.86 1.96
0.48 0.48 0.53 0.72 0.69 0.73 0.67 0.76 0.67 0.46 0.43 0.41 0.43 0.53 0.68 0.85 1.10 1.28 1.28 1.20 1.14 1.20 1.27 1.24 1.19 1.14 1.06 0.99 1.01 1.02 1.10 1.14 1.10 1.05 0.99 1.00 0.94 0.93 0.92 0.97 1.06 1.12 1.12 1.22 1.37 1.59 1.66 1.73 1.81
0.39 0.43 0.55 0.82 0.97 0.96 0.78 0.86 0.81 0.60 0.52 0.48 0.52 0.64 0.81 0.97 1.18 1.46 1.57 1.45 1.21 1.04 1.07 1.04 1.02 1.07 1.05 1.01 1.01 0.99 0.91 0.84 0.82 0.82 0.75 0.75 0.81 0.82 0.84 0.85 0.90 0.98 1.02 1.10 1.22 1.28 1.38 1.48 1.64
0.41 0.47 0.58 0.77 0.79 1.04 1.27 1.23 0.91 0.77 0.70 0.68 0.72 0.79 0.87 1.12 1.40 1.52 1.54 1.41 1.25 1.00 0.94 0.94 0.92 0.97 1.04 0.97 0.98 0.97 0.86 0.73 0.69 0.64 0.59 0.59 0.63 0.68 0.68 0.74 0.85 0.88 0.91 0.95 0.96 1.00 1.05 1.13 1.25
0.36 0.46 0.62 0.95 0.94 0.89 1.12 1.14 0.72 0.75 0.86 0.80 0.85 0.94 0.96 1.05 1.10 1.09 1.17 1.17 1.11 0.99 0.93 1.00 1.04 1.05 1.00 0.95 0.92 0.88 0.81 0.71 0.70 0.65 0.57 0.59 0.64 0.66 0.66 0.72 0.78 0.80 0.87 0.90 0.88 0.88 0.93 1.04 1.14

GEFSSGP_prec_meanprecacc_294.txt.gz
Total_Precipitation_Accumulation
2.34 2.62 3.50 4.47 5.15 4.00 2.97 2.41 2.06 1.83 1.48 1.09 0.88 0.90 1.26 1.76 2.12 2.20 2.00 1.76 1.10 1.01 1.15 1.64 1.97 1.87 1.72 1.65 1.63 1.71 1.74 1.67 1.73 1.79 1.80 1.71 1.84 1.96 1.95 1.85 1.79 1.81 1.77 1.75 1.68 1.69 1.73 1.57 1.60
2.02 2.82 4.11 5.11 4.42 3.13 2.68 2.16 1.88 1.59 1.20 0.89 0.76 0.71 0.85 0.69 0.65 1.15 2.11 2.03 1.11 0.89 1.03 1.46 2.01 1.93 1.84 1.81 1.82 1.90 1.85 1.64 1.60 1.61 1.57 1.60 1.74 1.93 2.08 2.04 1.92 1.95 1.88 1.72 1.57 1.52 1.66 1.62 1.63
2.32 3.28 4.56 4.67 3.29 2.57 2.55 1.97 1.46 1.06 0.79 0.83 0.84 0.73 0.82 0.97 1.06 1.55 2.00 1.43 1.03 0.92 1.00 1.57 2.13 1.95 1.85 1.86 1.99 1.99 1.82 1.72 1.63 1.59 1.57 1.58 1.73 1.90 2.04 1.93 1.93 1.99 1.98 1.80 1.71 1.66 1.76 1.75 1.76
2.60 3.75 4.14 3.52 2.67 2.06 1.79 1.53 1.17 1.00 0.71 0.48 0.66 0.86 0.78 1.02 1.22 1.44 1.39 1.00 0.80 0.83 0.92 1.42 2.06 1.93 1.78 1.76 1.94 1.91 1.77 1.82 1.72 1.64 1.65 1.72 1.92 2.15 2.19 2.08 2.18 2.05 2.01 1.88 1.83 1.80 1.84 1.83 1.82
2.90 3.73 3.72 3.31 2.48 2.13 1.59 1.25 1.05 1.02 0.82 0.55 0.55 0.88 1.02 1.38 1.33 1.30 1.21 1.01 0.83 0.83 0.86 1.18 1.79 1.82 1.69 1.64 1.73 1.77 1.82 1.89 1.78 1.70 1.74 1.85 1.97 2.12 2.27 2.27 2.31 2.24 2.15 2.00 1.87 1.84 1.78 1.77 1.80
3.32 3.40 3.52 3.27 2.68 2.35 1.80 1.31 0.96 0.88 0.76 0.60 0.59 0.90 1.25 1.67 1.56 1.49 1.27 1.17 1.05 0.94 0.84 1.00 1.54 1.67 1.61 1.63 1.65 1.62 1.70 1.73 1.68 1.72 1.77 1.79 1.86 1.97 2.09 2.17 2.25 2.22 2.12 2.09 2.00 1.95 1.83 1.81 1.74
3.12 3.07 2.82 2.38 2.52 2.63 1.88 1.18 1.08 1.03 0.99 0.85 0.61 0.95 1.34 1.78 1.62 1.35 1.32 1.36 1.43 1.29 1.11 1.09 1.21 1.30 1.42 1.56 1.64 1.74 1.80 1.66 1.55 1.54 1.60 1.63 1.67 1.76 1.82 1.91 2.02 2.00 2.04 2.02 1.96 1.88 1.86 1.89 1.76
2.47 2.58 2.38 2.30 2.52 2.67 1.62 1.03 0.86 0.86 0.91 0.60 0.52 0.87 1.12 1.35 1.45 1.38 1.36 1.42 1.39 1.31 1.25 1.18 1.19 1.16 1.18 1.29 1.63 1.95 2.01 1.85 1.61 1.52 1.46 1.58 1.54 1.58 1.68 1.70 1.92 2.01 1.99 2.00 2.02 1.94 1.85 1.90 1.88
2.10 2.46 2.57 2.51 2.40 2.11 1.27 0.95 0.75 0.55 0.58 0.52 0.42 0.63 0.81 0.84 1.11 1.31 1.33 1.36 1.33 1.24 1.26 1.19 1.20 1.22 1.29 1.35 1.48 1.85 2.05 2.02 1.59 1.35 1.35 1.31 1.22 1.31 1.40 1.46 1.91 2.08 2.19 2.21 2.17 2.01 1.88 1.80 1.80
2.15 2.40 2.28 1.85 1.62 1.33 1.01 0.87 0.71 0.74 0.83 0.72 0.56 0.63 0.78 0.85 0.97 1.20 1.25 1.15 1.11 1.08 1.10 1.11 1.11 1.09 1.11 1.14 1.52 1.84 1.71 1.77 1.42 1.32 1.26 1.23 1.30 1.35 1.20 1.36 1.83 2.07 2.21 2.20 2.11 2.01 1.79 1.56 1.41
1.81 1.97 1.63 1.38 1.16 0.93 0.87 0.82 0.63 0.75 0.95 0.75 0.57 0.64 0.78 0.89 1.00 1.07 1.14 1.06 0.96 0.96 0.88 0.83 0.89 0.86 0.86 0.97 1.15 1.49 1.75 1.74 1.67 1.59 1.46 1.42 1.32 1.19 1.19 1.33 1.49 1.70 1.81 1.71 1.76 1.74 1.55 1.39 1.33
1.57 1.50 1.30 1.17 0.86 0.90 0.90 0.76 0.68 0.66 0.72 0.52 0.47 0.54 0.72 0.91 1.04 1.01 1.03 1.04 0.96 1.00 0.99 0.81 0.74 0.74 0.74 0.79 0.94 1.20 1.43 1.52 1.50 1.42 1.29 1.46 1.42 1.24 1.25 1.47 1.60 1.64 1.73 1.87 1.84 1.78 1.62 1.44 1.31
1.46 1.50 1.21 0.99 0.86 0.90 0.84 0.77 0.66 0.68 0.57 0.45 0.45 0.59 0.82 1.01 1.07 1.06 1.00 1.00 1.00 1.01 1.07 0.94 0.75 0.69 0.75 0.78 0.84 0.91 1.14 1.25 1.23 1.36 1.26 1.29 1.32 1.21 1.17 1.29 1.54 1.64 1.69 1.90 1.97 1.78 1.68 1.66 1.59
1.28 1.23 1.17 1.00 0.91 0.93 0.94 0.77 0.66 0.79 0.68 0.58 0.63 0.76 0.93 1.03 1.03 0.98 0.91 0.87 0.88 0.89 0.95 0.91 0.81 0.78 0.78 0.75 0.71 0.72 0.76 0.94 0.95 0.94 0.89 1.07 1.24 1.23 1.27 1.23 1.39 1.67 1.75 1.81 1.85 1.78 1.69 1.64 1.63
1.06 1.15 1.29 1.18 1.11 1.07 0.96 1.04 0.81 0.82 0.81 0.69 0.69 0.76 0.97 0.94 0.92 0.87 0.80 0.72 0.69 0.76 0.81 0.85 0.87 0.85 0.82 0.83 0.80 0.75 0.75 0.82 0.89 0.93 0.92 1.02 1.14 1.24 1.24 1.16 1.27 1.52 1.74 1.80 1.81 1.77 1.77 1.57 1.47
1.24 1.54 1.78 1.46 1.23 1.18 1.10 1.25 0.90 0.89 0.84 0.75 0.72 0.71 0.81 0.72 0.71 0.73 0.68 0.62 0.58 0.59 0.65 0.72 0.73 0.79 0.83 0.86 0.90 0.86 0.89 0.89 0.87 0.92 0.91 0.93 1.07 1.22 1.32 1.25 1.22 1.42 1.67 1.92 2.07 1.96 1.89 1.74 1.60
1.57 1.67 1.60 1.50 1.18 1.18 1.11 1.15 0.98 0.83 0.79 0.70 0.68 0.69 0.67 0.60 0.56 0.59 0.57 0.54 0.47 0.47 0.47 0.53 0.61 0.70 0.78 0.85 0.93 0.89 0.91 1.05 1.10 0.99 0.90 0.96 1.07 1.16 1.38 1.49 1.43 1.48 1.70 1.82 1.90 1.96 1.85 1.80 1.70
1.28 1.26 1.27 1.36 1.12 1.03 1.01 0.94 0.95 0.78 0.63 0.59 0.59 0.59 0.56 0.53 0.47 0.47 0.49 0.49 0.45 0.43 0.42 0.45 0.53 0.58 0.60 0.75 0.91 1.01 0.95 1.01 1.21 1.26 1.27 1.31 1.37 1.38 1.51 1.63 1.66 1.68 1.80 1.83 2.00 2.23 2.03 1.82 1.78
0.93 0.94 1.00 0.93 0.79 0.89 0.90 0.85 0.89 0.81 0.66 0.53 0.50 0.55 0.51 0.47 0.48 0.42 0.39 0.46 0.46 0.41 0.38 0.43 0.50 0.53 0.54 0.66 0.80 0.91 1.00 1.14 1.32 1.37 1.44 1.59 1.65 1.65 1.75 1.84 1.91 1.87 1.82 1.91 2.11 2.53 2.42 2.07 1.85
0.86 0.86 0.90 0.80 0.69 0.73 0.82 0.87 0.85 0.76 0.68 0.57 0.49 0.42 0.40 0.40 0.38 0.34 0.33 0.35 0.38 0.38 0.36 0.39 0.49 0.58 0.63 0.69 0.84 1.01 1.24 1.33 1.46 1.64 1.65 1.66 1.73 1.78 1.83 2.02 2.13 2.09 2.09 2.19 2.26 2.55 2.74 2.47 2.25
0.82 0.78 0.72 0.75 0.72 0.71 0.78 0.99 0.91 0.82 0.67 0.56 0.48 0.38 0.32 0.34 0.33 0.27 0.29 0.31 0.33 0.35 0.42 0.45 0.56 0.76 0.93 1.01 1.23 1.54 1.80 1.85 1.80 1.82 1.90 1.88 1.90 1.96 1.91 1.98 2.17 2.19 2.19 2.27 2.48 2.80 3.14 3.11 2.80
0.84 0.60 0.53 0.64 0.80 0.92 0.75 1.08 0.90 0.81 0.73 0.56 0.48 0.42 0.34 0.38 0.41 0.32 0.30 0.33 0.31 0.36 0.50 0.68 0.88 1.18 1.40 1.50 1.67 1.91 2.02 2.05 1.99 2.00 2.01 2.04 1.96 1.88 1.87 1.95 2.12 2.29 2.43 2.57 2.64 2.62 3.03 3.38 3.18
0.66 0.54 0.54 0.63 0.76 0.80 0.67 0.82 0.79 0.66 0.73 0.63 0.57 0.51 0.45 0.46 0.45 0.46 0.45 0.50 0.51 0.61 0.82 1.17 1.44 1.64 1.76 1.80 1.86 2.05 2.19 2.36 2.40 2.28 2.13 2.07 2.07 2.00 1.90 1.91 1.95 2.00 2.12 2.29 2.44 2.50 2.75 3.01 3.19
0.55 0.63 0.67 0.69 0.81 0.96 0.64 0.64 0.78 0.64 0.61 0.63 0.64 0.57 0.51 0.49 0.50 0.60 0.73 0.87 0.94 1.03 1.24 1.48 1.63 1.78 1.76 1.72 1.75 1.86 2.06 2.23 2.25 2.29 2.26 2.16 2.09 2.01 1.86 1.79 1.85 1.87 1.88 2.03 2.16 2.28 2.56 2.77 2.93
0.61 0.82 1.07 1.11 1.09 0.92 0.54 0.64 0.68 0.48 0.45 0.52 0.58 0.57 0.53 0.50 0.60 0.82 0.99 1.13 1.23 1.33 1.44 1.48 1.47 1.54 1.56 1.52 1.51 1.58 1.68 1.72 1.77 1.90 1.83 1.71 1.63 1.59 1.56 1.48 1.50 1.63 1.71 1.88 1.97 1.93 2.01 2.19 2.42
0.57 0.63 0.95 1.08 0.96 0.80 0.60 0.79 0.69 0.51 0.50 0.44 0.48 0.56 0.64 0.74 0.87 1.01 1.12 1.23 1.28 1.41 1.46 1.42 1.38 1.36 1.30 1.23 1.24 1.24 1.30 1.39 1.39 1.39 1.36 1.28 1.25 1.23 1.19 1.20 1.19 1.24 1.33 1.55 1.78 1.80 1.81 1.87 1.97
0.49 0.49 0.54 0.74 0.71 0.75 0.69 0.79 0.70 0.50 0.48 0.44 0.45 0.55 0.70 0.88 1.12 1.31 1.31 1.23 1.18 1.23 1.31 1.28 1.23 1.17 1.08 1.00 1.02 1.03 1.11 1.15 1.12 1.07 1.02 1.02 0.95 0.95 0.93 0.98 1.07 1.14 1.13 1.23 1.39 1.60 1.66 1.74 1.81
0.40 0.44 0.57 0.86 1.01 1.00 0.81 0.89 0.84 0.64 0.56 0.52 0.55 0.67 0.83 1.00 1.21 1.49 1.60 1.48 1.23 1.06 1.10 1.06 1.05 1.10 1.09 1.03 1.03 1.00 0.93 0.86 0.83 0.83 0.77 0.77 0.83 0.84 0.85 0.86 0.91 0.99 1.03 1.11 1.22 1.28 1.39 1.49 1.65
0.42 0.48 0.60 0.80 0.83 1.09 1.31 1.26 0.93 0.81 0.74 0.71 0.75 0.81 0.89 1.13 1.43 1.55 1.57 1.44 1.28 1.02 0.96 0.95 0.95 0.99 1.06 0.99 1.01 0.99 0.88 0.75 0.70 0.65 0.60 0.61 0.65 0.70 0.70 0.76 0.86 0.89 0.92 0.95 0.96 1.00 1.06 1.14 1.26
0.37 0.47 0.64 0.98 0.97 0.94 1.16 1.17 0.74 0.78 0.89 0.83 0.88 0.96 0.99 1.07 1.13 1.12 1.20 1.20 1.14 1.01 0.95 1.02 1.06 1.07 1.02 0.96 0.93 0.90 0.84 0.74 0.73 0.66 0.59 0.60 0.65 0.67 0.68 0.74 0.80 0.82 0.88 0.90 0.88 0.88 0.93 1.04 1.14

GEFSSGP_prec_meanprecacc_300.txt.gz
Total_Precipitation_Accumulation
2.35 2.64 3.52 4.48 5.15 4.00 2.97 2.42 2.06 1.83 1.48 1.10 0.89 0.91 1.27 1.77 2.12 2.21 2.03 1.79 1.12 1.04 1.18 1.69 2.02 1.92 1.76 1.69 1.67 1.75 1.77 1.71 1.76 1.84 1.84 1.76 1.92 2.03 2.02 1.94 1.86 1.88 1.85 1.82 1.76 1.76 1.80 1.64 1.68
2.02 2.83 4.14 5.12 4.42 3.13 2.69 2.16 1.88 1.59 1.20 0.89 0.76 0.72 0.86 0.70 0.67 1.16 2.13 2.05 1.14 0.91 1.05 1.49 2.06 1.96 1.87 1.86 1.87 1.94 1.89 1.68 1.64 1.66 1.62 1.64 1.80 2.03 2.16 2.12 2.02 2.04 1.96 1.80 1.65 1.58 1.73 1.67 1.69
2.33 3.30 4.57 4.68 3.29 2.57 2.56 1.97 1.46 1.06 0.79 0.83 0.84 0.74 0.82 0.98 1.09 1.57 2.03 1.45 1.06 0.95 1.02 1.59 2.17 1.98 1.89 1.90 2.05 2.05 1.89 1.77 1.67 1.63 1.63 1.62 1.77 1.97 2.12 2.02 2.03 2.13 2.08 1.87 1.77 1.72 1.83 1.80 1.80
2.62 3.76 4.14 3.53 2.67 2.06 1.79 1.54 1.17 1.00 0.71 0.48 0.66 0.86 0.78 1.03 1.23 1.47 1.41 1.02 0.82 0.85 0.94 1.45 2.10 1.97 1.81 1.80 2.02 1.98 1.81 1.85 1.75 1.67 1.70 1.78 2.00 2.24 2.26 2.16 2.25 2.16 2.12 1.95 1.89 1.84 1.90 1.89 1.88
2.91 3.74 3.73 3.31 2.48 2.13 1.59 1.25 1.05 1.02 0.82 0.55 0.55 0.88 1.03 1.38 1.34 1.33 1.24 1.03 0.85 0.85 0.89 1.22 1.83 1.86 1.73 1.69 1.85 1.85 1.88 1.95 1.82 1.74 1.78 1.90 2.05 2.21 2.34 2.34 2.38 2.31 2.23 2.10 1.95 1.88 1.83 1.84 1.88
3.33 3.40 3.52 3.27 2.68 2.35 1.80 1.31 0.96 0.88 0.76 0.60 0.59 0.90 1.25 1.68 1.56 1.50 1.30 1.20 1.09 0.96 0.87 1.03 1.57 1.71 1.65 1.67 1.74 1.77 1.82 1.81 1.75 1.78 1.84 1.86 1.94 2.07 2.15 2.21 2.31 2.28 2.21 2.20 2.09 2.00 1.88 1.86 1.79
3.12 3.07 2.82 2.38 2.52 2.63 1.89 1.19 1.09 1.03 0.99 0.85 0.61 0.95 1.34 1.78 1.63 1.36 1.36 1.41 1.47 1.32 1.14 1.12 1.22 1.32 1.45 1.60 1.70 1.84 1.90 1.74 1.63 1.61 1.65 1.68 1.73 1.82 1.87 1.96 2.08 2.07 2.13 2.13 2.05 1.95 1.92 1.93 1.81
2.48 2.58 2.39 2.30 2.52 2.67 1.62 1.03 0.87 0.86 0.92 0.60 0.52 0.87 1.12 1.36 1.45 1.40 1.37 1.43 1.40 1.33 1.26 1.19 1.20 1.17 1.18 1.30 1.66 1.99 2.06 1.90 1.66 1.56 1.51 1.62 1.57 1.60 1.72 1.74 1.99 2.09 2.11 2.13 2.11 2.02 1.91 1.94 1.93
2.10 2.46 2.57 2.51 2.40 2.11 1.27 0.95 0.76 0.56 0.58 0.52 0.42 0.63 0.81 0.84 1.11 1.32 1.33 1.36 1.33 1.24 1.26 1.20 1.20 1.22 1.29 1.35 1.50 1.88 2.07 2.05 1.62 1.38 1.37 1.34 1.25 1.33 1.43 1.48 1.95 2.14 2.31 2.36 2.26 2.07 1.93 1.84 1.84
2.15 2.40 2.28 1.85 1.62 1.34 1.02 0.87 0.71 0.74 0.83 0.72 0.56 0.63 0.78 0.85 0.97 1.21 1.25 1.16 1.11 1.09 1.10 1.11 1.11 1.09 1.11 1.14 1.53 1.85 1.71 1.77 1.43 1.33 1.26 1.24 1.32 1.37 1.23 1.39 1.87 2.11 2.28 2.33 2.22 2.07 1.84 1.60 1.44
1.81 1.97 1.63 1.38 1.17 0.94 0.87 0.82 0.63 0.75 0.95 0.75 0.57 0.64 0.78 0.89 1.01 1.08 1.14 1.06 0.97 0.97 0.89 0.83 0.89 0.86 0.86 0.97 1.15 1.49 1.75 1.75 1.68 1.60 1.46 1.43 1.34 1.21 1.21 1.35 1.52 1.73 1.86 1.79 1.84 1.79 1.59 1.41 1.34
1.57 1.50 1.30 1.17 0.87 0.90 0.90 0.76 0.68 0.66 0.72 0.52 0.47 0.54 0.72 0.91 1.04 1.01 1.03 1.04 0.96 1.01 1.00 0.82 0.74 0.74 0.74 0.79 0.94 1.21 1.44 1.53 1.52 1.43 1.29 1.46 1.43 1.25 1.27 1.48 1.61 1.65 1.75 1.90 1.88 1.82 1.66 1.47 1.33
1.46 1.50 1.22 1.00 0.86 0.91 0.85 0.77 0.67 0.68 0.57 0.45 0.45 0.59 0.82 1.01 1.07 1.06 1.00 1.00 1.00 1.02 1.08 0.95 0.75 0.70 0.75 0.78 0.84 0.92 1.15 1.26 1.24 1.37 1.27 1.30 1.33 1.22 1.19 1.31 1.56 1.65 1.70 1.91 1.98 1.80 1.69 1.68 1.61
1.28 1.24 1.18 1.02 0.92 0.94 0.95 0.78 0.66 0.79 0.68 0.58 0.64 0.76 0.93 1.03 1.03 0.98 0.91 0.88 0.88 0.90 0.96 0.92 0.81 0.78 0.78 0.75 0.72 0.73 0.76 0.96 0.97 0.95 0.90 1.09 1.25 1.25 1.28 1.24 1.41 1.68 1.76 1.83 1.86 1.78 1.70 1.65 1.65
1.06 1.16 1.30 1.20 1.12 1.08 0.96 1.04 0.81 0.82 0.81 0.70 0.69 0.76 0.97 0.94 0.92 0.87 0.80 0.72 0.69 0.76 0.81 0.85 0.87 0.85 0.82 0.83 0.81 0.75 0.76 0.83 0.91 0.95 0.93 1.03 1.15 1.25 1.25 1.17 1.27 1.53 1.76 1.82 1.83 1.78 1.77 1.58 1.47
1.24 1.54 1.79 1.47 1.24 1.19 1.11 1.26 0.91 0.90 0.84 0.75 0.72 0.71 0.81 0.72 0.71 0.73 0.68 0.62 0.58 0.59 0.65 0.73 0.73 0.80 0.83 0.86 0.90 0.87 0.89 0.89 0.88 0.93 0.92 0.93 1.08 1.23 1.33 1.26 1.23 1.43 1.69 1.94 2.10 1.99 1.90 1.75 1.61
1.57 1.67 1.60 1.51 1.19 1.19 1.12 1.16 0.98 0.84 0.79 0.70 0.69 0.70 0.68 0.60 0.56 0.59 0.58 0.54 0.47 0.47 0.47 0.53 0.61 0.71 0.79 0.85 0.93 0.90 0.91 1.05 1.11 1.00 0.91 0.97 1.07 1.16 1.39 1.50 1.44 1.49 1.71 1.85 1.94 2.00 1.87 1.82 1.72
1.28 1.27 1.28 1.36 1.13 1.04 1.01 0.94 0.96 0.79 0.64 0.59 0.60 0.60 0.57 0.53 0.48 0.48 0.49 0.49 0.45 0.43 0.42 0.45 0.53 0.59 0.61 0.76 0.91 1.01 0.96 1.01 1.22 1.27 1.28 1.32 1.37 1.39 1.53 1.65 1.67 1.69 1.82 1.84 2.02 2.26 2.08 1.87 1.81
0.93 0.94 1.00 0.94 0.80 0.90 0.91 0.86 0.90 0.82 0.66 0.53 0.51 0.55 0.51 0.47 0.49 0.43 0.40 0.46 0.47 0.41 0.38 0.44 0.51 0.54 0.55 0.66 0.81 0.91 1.00 1.15 1.33 1.39 1.47 1.62 1.67 1.67 1.78 1.88 1.93 1.90 1.84 1.92 2.12 2.55 2.46 2.12 1.90
0.86 0.86 0.90 0.81 0.70 0.74 0.83 0.88 0.86 0.77 0.69 0.57 0.50 0.43 0.40 0.41 0.39 0.35 0.33 0.36 0.38 0.38 0.37 0.39 0.50 0.59 0.63 0.69 0.84 1.01 1.25 1.33 1.47 1.67 1.68 1.68 1.75 1.80 1.86 2.05 2.15 2.11 2.11 2.20 2.27 2.57 2.76 2.51 2.30
0.82 0.78 0.73 0.76 0.73 0.73 0.79 1.00 0.92 0.82 0.68 0.56 0.48 0.39 0.32 0.35 0.34 0.27 0.29 0.32 0.33 0.35 0.43 0.46 0.57 0.77 0.94 1.02 1.24 1.55 1.81 1.87 1.81 1.84 1.91 1.89 1.92 2.00 1.96 2.01 2.20 2.22 2.21 2.28 2.49 2.81 3.16 3.13 2.82
0.84 0.60 0.53 0.64 0.80 0.93 0.76 1.09 0.91 0.81 0.73 0.57 0.48 0.42 0.35 0.38 0.42 0.33 0.31 0.34 0.32 0.37 0.50 0.69 0.89 1.19 1.40 1.51 1.67 1.92 2.04 2.07 2.01 2.01 2.02 2.05 1.98 1.91 1.91 1.98 2.16 2.33 2.46 2.58 2.64 2.63 3.05 3.39 3.20
0.66 0.55 0.54 0.64 0.76 0.81 0.67 0.82 0.79 0.67 0.74 0.64 0.57 0.51 0.46 0.46 0.46 0.47 0.46 0.51 0.52 0.61 0.83 1.18 1.45 1.64 1.76 1.80 1.87 2.07 2.21 2.37 2.41 2.29 2.14 2.09 2.09 2.03 1.93 1.94 1.98 2.03 2.14 2.30 2.44 2.50 2.76 3.01 3.20
0.55 0.63 0.67 0.69 0.81 0.96 0.64 0.65 0.78 0.64 0.61 0.64 0.65 0.57 0.52 0.50 0.52 0.62 0.75 0.89 0.96 1.04 1.25 1.49 1.63 1.78 1.76 1.73 1.75 1.87 2.06 2.23 2.26 2.30 2.27 2.17 2.10 2.03 1.89 1.81 1.87 1.89 1.90 2.04 2.17 2.29 2.57 2.79 2.94
0.62 0.82 1.08 1.11 1.09 0.92 0.54 0.64 0.68 0.48 0.45 0.52 0.58 0.58 0.55 0.51 0.62 0.84 1.01 1.15 1.25 1.35 1.46 1.50 1.48 1.55 1.57 1.52 1.52 1.58 1.69 1.74 1.79 1.92 1.84 1.72 1.65 1.61 1.57 1.50 1.52 1.64 1.72 1.89 1.98 1.94 2.03 2.22 2.44
0.57 0.63 0.95 1.09 0.96 0.80 0.60 0.79 0.70 0.52 0.51 0.45 0.49 0.57 0.65 0.76 0.89 1.03 1.14 1.25 1.30 1.43 1.49 1.44 1.40 1.38 1.31 1.24 1.25 1.25 1.31 1.40 1.41 1.41 1.38 1.30 1.26 1.25 1.21 1.21 1.21 1.26 1.35 1.56 1.79 1.81 1.83 1.90 2.00
0.49 0.50 0.55 0.74 0.71 0.76 0.69 0.79 0.71 0.51 0.50 0.46 0.46 0.56 0.71 0.89 1.14 1.32 1.32 1.24 1.20 1.26 1.33 1.30 1.24 1.19 1.09 1.02 1.03 1.05 1.12 1.17 1.13 1.08 1.03 1.04 0.97 0.97 0.96 1.00 1.09 1.16 1.15 1.25 1.40 1.61 1.67 1.76 1.83
0.40 0.45 0.57 0.87 1.02 1.01 0.81 0.90 0.85 0.65 0.59 0.55 0.57 0.69 0.86 1.02 1.24 1.51 1.62 1.49 1.25 1.09 1.12 1.08 1.07 1.12 1.11 1.05 1.05 1.03 0.95 0.88 0.85 0.85 0.78 0.79 0.84 0.85 0.87 0.88 0.93 1.01 1.05 1.13 1.24 1.29 1.40 1.50 1.66
0.42 0.48 0.60 0.80 0.83 1.10 1.32 1.27 0.94 0.82 0.75 0.73 0.76 0.82 0.91 1.16 1.45 1.57 1.58 1.45 1.30 1.05 0.98 0.97 0.96 1.01 1.09 1.02 1.03 1.01 0.90 0.77 0.72 0.67 0.62 0.62 0.66 0.71 0.71 0.77 0.87 0.91 0.94 0.97 0.98 1.01 1.06 1.14 1.27
0.37 0.47 0.65 0.99 0.98 0.94 1.16 1.17 0.76 0.79 0.90 0.83 0.89 0.97 1.00 1.08 1.14 1.14 1.22 1.23 1.16 1.04 0.97 1.04 1.07 1.09 1.04 0.99 0.96 0.92 0.85 0.75 0.74 0.68 0.60 0.62 0.66 0.68 0.69 0.75 0.81 0.82 0.89 0.92 0.90 0.89 0.94 1.05 1.15